[[{"header":{"parameterUnit":"m.s-1","parameterCategory":1,"la1":30.6,"la2":28.766,"lo1":-90.7593,"lo2":-88.6598,"dy":0.0162,"dx":0.0183,"nx":116,"ny":114,"refTime":"2023-10-17T12:00:00:Z","depth":0,"parameterNumber":2,"parameterNumberName":"U-component_of_WINDS"},"data":[0.0,0.0,0.0,0.0,0.0,0.0,0.0,0.0,0.0,0.0,0.0,0.0,0.0,0.0,0.0,0.0,0.0,0.0,0.0,0.0,0.0,0.0,0.0,0.0,0.0,0.0,0.0,0.0,0.0,0.0,0.0,0.0,0.0,0.0,0.0,0.0,0.0,0.0,0.0,0.0,0.0,0.0,0.0,0.0,0.0,0.0,0.0,0.0,0.0,0.0,0.0,0.0,0.0,0.0,0.0,0.0,0.0,0.0,0.0,0.0,0.0,0.0,0.0,0.0,0.0,0.0,0.0,0.0,0.0,0.0,0.0,0.0,0.0,0.0,0.0,0.0,0.0,0.0,0.0,0.0,0.0,0.0,0.0,0.0,0.0,0.0,0.0,0.0,0.0,0.0,0.0,0.0,0.0,0.0,0.0,0.0,0.0,0.0,0.0,0.0,0.0,0.0,0.0,0.0,0.0,0.0,0.0,0.0,0.0,0.0,0.0,0.0,0.0,0.0,0.0,0.0,0.0,0.0,0.0,0.0,0.0,0.0,0.0,0.0,0.0,0.0,0.0,0.0,0.0,0.0,0.0,0.0,0.0,0.0,0.0,0.0,0.0,0.0,0.0,0.0,0.0,0.0,0.0,0.0,0.0,0.0,0.0,0.0,0.0,0.0,0.0,0.0,0.0,0.0,0.0,0.0,0.0,0.0,0.0,0.0,0.0,0.0,0.0,0.0,0.0,0.0,0.0,0.0,0.0,0.0,0.0,0.0,0.0,0.0,0.0,0.0,0.0,0.0,0.0,0.0,0.0,0.0,0.0,0.0,0.0,0.0,0.0,0.0,0.0,0.0,0.0,0.0,0.0,0.0,0.0,0.0,0.0,0.0,0.0,0.0,0.0,0.0,0.0,0.0,0.0,0.0,0.0,0.0,0.0,0.0,0.0,0.0,0.0,0.0,0.0,0.0,0.0,0.0,0.0,0.0,0.0,0.0,0.0,0.0,0.0,0.0,0.0,0.0,0.0,0.0,0.0,0.0,0.0,0.0,0.0,0.0,0.0,0.0,0.0,0.0,0.0,0.0,0.0,0.0,0.0,0.0,0.0,0.0,0.0,0.0,0.0,0.0,0.0,0.0,0.0,0.0,0.0,0.0,0.0,0.0,0.0,0.0,0.0,0.0,0.0,0.0,0.0,0.0,0.0,0.0,0.0,0.0,0.0,0.0,0.0,0.0,0.0,0.0,0.0,0.0,0.0,0.0,0.0,0.0,0.0,0.0,0.0,0.0,0.0,0.0,0.0,0.0,0.0,0.0,0.0,0.0,0.0,0.0,0.0,0.0,0.0,0.0,0.0,0.0,0.0,0.0,0.0,0.0,0.0,0.0,0.0,0.0,0.0,0.0,0.0,0.0,0.0,0.0,0.0,0.0,0.0,0.0,0.0,0.0,0.0,0.0,0.0,0.0,0.0,0.0,0.0,0.0,0.0,0.0,0.0,0.0,0.0,0.0,0.0,0.0,0.0,0.0,0.0,0.0,0.0,0.0,0.0,0.0,0.0,0.0,0.0,0.0,0.0,0.0,0.0,0.0,0.0,0.0,0.0,0.0,0.0,0.0,0.0,0.0,0.0,0.0,0.0,0.0,0.0,0.0,0.0,0.0,0.0,0.0,0.0,0.0,0.0,0.0,0.0,0.0,0.0,0.0,0.0,0.0,0.0,0.0,0.0,0.0,0.0,0.0,0.0,0.0,0.0,0.0,0.0,0.0,0.0,0.0,0.0,0.0,0.0,0.0,0.0,0.0,0.0,0.0,0.0,0.0,0.0,0.0,0.0,0.0,0.0,0.0,0.0,0.0,0.0,0.0,0.0,0.0,0.0,0.0,0.0,0.0,0.0,0.0,0.0,0.0,0.0,0.0,0.0,0.0,0.0,0.0,0.0,0.0,0.0,0.0,0.0,0.0,0.0,0.0,0.0,0.0,0.0,0.0,0.0,0.0,0.0,0.0,0.0,0.0,0.0,0.0,0.0,0.0,0.0,0.0,0.0,0.0,0.0,0.0,0.0,0.0,0.0,0.0,0.0,0.0,0.0,0.0,0.0,0.0,0.0,0.0,0.0,0.0,0.0,0.0,0.0,0.0,0.0,0.0,0.0,0.0,0.0,0.0,0.0,0.0,0.0,0.0,0.0,0.0,0.0,0.0,0.0,0.0,0.0,0.0,0.0,0.0,0.0,0.0,0.0,0.0,0.0,0.0,0.0,0.0,0.0,0.0,0.0,0.0,0.0,0.0,0.0,0.0,0.0,0.0,0.0,0.0,0.0,0.0,0.0,0.0,0.0,0.0,0.0,0.0,0.0,0.0,0.0,0.0,0.0,0.0,0.0,0.0,0.0,0.0,0.0,0.0,0.0,0.0,0.0,0.0,0.0,0.0,0.0,0.0,0.0,0.0,0.0,0.0,0.0,0.0,0.0,0.0,0.0,0.0,0.0,0.0,0.0,0.0,0.0,0.0,0.0,0.0,0.0,0.0,0.0,0.0,0.0,0.0,0.0,0.0,0.0,0.0,0.0,0.0,0.0,0.0,0.0,0.0,0.0,0.0,0.0,0.0,0.0,0.0,0.0,0.0,0.0,0.0,0.0,0.0,0.0,0.0,0.0,0.0,0.0,0.0,0.0,0.0,0.0,0.0,0.0,0.0,0.0,0.0,0.0,0.0,0.0,0.0,0.0,0.0,0.0,0.0,0.0,0.0,0.0,0.0,0.0,0.0,0.0,0.0,0.0,0.0,0.0,0.0,0.0,0.0,0.0,0.0,0.0,0.0,0.0,0.0,0.0,0.0,0.0,0.0,0.0,0.0,0.0,0.0,0.0,0.0,0.0,0.0,0.0,0.0,0.0,0.0,0.0,0.0,0.0,0.0,0.0,0.0,0.0,0.0,0.0,0.0,0.0,0.0,0.0,0.0,0.0,0.0,0.0,0.0,0.0,0.0,0.0,0.0,0.0,0.0,0.0,0.0,0.0,0.0,0.0,0.0,0.0,0.0,0.0,0.0,0.0,0.0,0.0,0.0,0.0,0.0,0.0,0.0,0.0,0.0,0.0,0.0,0.0,0.0,0.0,0.0,0.0,0.0,0.0,0.0,0.0,0.0,0.0,0.0,0.0,0.0,0.0,0.0,0.0,0.0,0.0,0.0,0.0,0.0,0.0,0.0,0.0,0.0,0.0,0.0,0.0,0.0,0.0,0.0,0.0,0.0,0.0,0.0,0.0,0.0,0.0,0.0,0.0,0.0,0.0,0.0,0.0,0.0,0.0,0.0,0.0,0.0,0.0,0.0,0.0,0.0,0.0,0.0,0.0,0.0,0.0,0.0,0.0,0.0,0.0,0.0,0.0,0.0,0.0,0.0,0.0,0.0,0.0,0.0,0.0,0.0,0.0,0.0,0.0,0.0,0.0,0.0,0.0,0.0,0.0,0.0,0.0,0.0,0.0,0.0,0.0,0.0,0.0,0.0,0.0,0.0,0.0,0.0,0.0,0.0,0.0,0.0,0.0,0.0,0.0,0.0,0.0,0.0,0.0,0.0,0.0,0.0,0.0,0.0,0.0,0.0,0.0,0.0,0.0,0.0,0.0,0.0,0.0,0.0,0.0,0.0,0.0,0.0,0.0,0.0,0.0,0.0,0.0,0.0,0.0,0.0,0.0,0.0,0.0,0.0,0.0,0.0,0.0,0.0,0.0,0.0,0.0,0.0,0.0,0.0,0.0,0.0,0.0,0.0,0.0,0.0,0.0,0.0,0.0,0.0,0.0,0.0,0.0,0.0,0.0,0.0,0.0,0.0,0.0,0.0,0.0,0.0,0.0,0.0,0.0,0.0,0.0,0.0,0.0,0.0,0.0,0.0,0.0,0.0,0.0,0.0,0.0,0.0,0.0,0.0,0.0,0.0,0.0,0.0,0.0,0.0,0.0,0.0,0.0,0.0,0.0,0.0,0.0,0.0,0.0,0.0,0.0,0.0,0.0,0.0,0.0,0.0,0.0,0.0,0.0,0.0,0.0,0.0,0.0,0.0,0.0,0.0,0.0,0.0,0.0,0.0,0.0,0.0,0.0,0.0,0.0,0.0,0.0,0.0,0.0,0.0,0.0,0.0,0.0,0.0,0.0,0.0,0.0,0.0,0.0,0.0,0.0,0.0,0.0,0.0,0.0,0.0,0.0,0.0,0.0,0.0,0.0,0.0,0.0,0.0,0.0,0.0,0.0,0.0,0.0,0.0,0.0,0.0,0.0,0.0,0.0,0.0,0.0,0.0,0.0,0.0,0.0,0.0,0.0,0.0,0.0,0.0,0.0,0.0,0.0,0.0,0.0,0.0,0.0,0.0,0.0,0.0,0.0,0.0,0.0,0.0,0.0,0.0,0.0,0.0,0.0,0.0,0.0,0.0,0.0,0.0,0.0,0.0,0.0,0.0,0.0,0.0,0.0,0.0,0.0,0.0,0.0,0.0,0.0,0.0,0.0,0.0,0.0,0.0,0.0,0.0,0.0,0.0,0.0,0.0,0.0,0.0,0.0,0.0,0.0,0.0,0.0,0.0,0.0,0.0,0.0,0.0,0.0,0.0,0.0,0.0,0.0,0.0,0.0,0.0,0.0,0.0,0.0,0.0,0.0,0.0,0.0,0.0,0.0,0.0,0.0,0.0,0.0,0.0,0.0,0.0,0.0,0.0,0.0,0.0,0.0,0.0,0.0,0.0,0.0,0.0,0.0,0.0,0.0,0.0,0.0,0.0,0.0,0.0,0.0,0.0,0.0,0.0,0.0,0.0,0.0,0.0,0.0,0.0,0.0,0.0,0.0,0.0,0.0,0.0,0.0,0.0,0.0,0.0,0.0,0.0,0.0,0.0,0.0,0.0,0.0,0.0,0.0,0.0,0.0,0.0,0.0,0.0,0.0,0.0,0.0,0.0,0.0,0.0,0.0,0.0,0.0,0.0,0.0,0.0,0.0,0.0,0.0,0.0,0.0,0.0,0.0,0.0,0.0,0.0,0.0,0.0,0.0,0.0,0.0,0.0,0.0,0.0,0.0,0.0,0.0,0.0,0.0,0.0,0.0,0.0,0.0,0.0,0.0,0.0,0.0,0.0,0.0,0.0,0.0,0.0,0.0,0.0,0.0,0.0,0.0,0.0,0.0,0.0,0.0,0.0,0.0,0.0,0.0,0.0,0.0,0.0,0.0,0.0,0.0,0.0,0.0,0.0,0.0,0.0,0.0,0.0,0.0,0.0,0.0,0.0,0.0,0.0,0.0,0.0,0.0,0.0,0.0,0.0,0.0,0.0,0.0,0.0,0.0,0.0,0.0,0.0,0.0,0.0,0.0,0.0,0.0,0.0,0.0,0.0,0.0,0.0,0.0,0.0,0.0,0.0,0.0,0.0,0.0,0.0,0.0,0.0,0.0,0.0,0.0,0.0,0.0,0.0,0.0,0.0,0.0,0.0,0.0,0.0,0.0,0.0,0.0,0.0,0.0,0.0,0.0,0.0,0.0,0.0,0.0,0.0,0.0,0.0,0.0,0.0,0.0,0.0,0.0,0.0,0.0,0.0,0.0,0.0,0.0,0.0,0.0,0.0,0.0,0.0,0.0,0.0,0.0,0.0,0.0,0.0,0.0,0.0,0.0,0.0,0.0,0.0,0.0,0.0,0.0,0.0,0.0,0.0,0.0,0.0,0.0,0.0,0.0,0.0,0.0,0.0,0.0,0.0,0.0,0.0,0.0,0.0,0.0,0.0,0.0,0.0,0.0,0.0,0.0,0.0,0.0,0.0,0.0,0.0,0.0,0.0,0.0,0.0,0.0,0.0,0.0,0.0,0.0,0.0,0.0,0.0,0.0,0.0,0.0,0.0,0.0,0.0,0.0,0.0,0.0,0.0,0.0,0.0,0.0,0.0,0.0,0.0,0.0,0.0,0.0,0.0,0.0,0.0,0.0,0.0,0.0,0.0,0.0,0.0,0.0,0.0,0.0,0.0,0.0,0.0,0.0,0.0,0.0,0.0,0.0,0.0,0.0,0.0,0.0,0.0,0.0,0.0,0.0,0.0,0.0,0.0,0.0,0.0,0.0,0.0,2.9272,2.6585,0.0,0.0,0.0,0.0,0.0,0.0,0.0,0.0,0.0,0.0,0.0,0.0,0.0,0.0,0.0,0.0,0.0,0.0,0.0,0.0,0.0,0.0,0.0,0.0,0.0,0.0,0.0,0.0,0.0,0.0,0.0,0.0,0.0,0.0,0.0,0.0,0.0,0.0,0.0,0.0,0.0,0.0,0.0,0.0,0.0,0.0,0.0,0.0,0.0,0.0,0.0,0.0,0.0,0.0,0.0,0.0,0.0,0.0,0.0,0.0,0.0,0.0,0.0,0.0,0.0,0.0,0.0,0.0,0.0,0.0,0.0,0.0,0.0,0.0,0.0,0.0,0.0,0.0,0.0,0.0,0.0,0.0,0.0,0.0,0.0,0.0,0.0,0.0,0.0,0.0,0.0,0.0,0.0,0.0,0.0,0.0,0.0,0.0,0.0,0.0,0.0,0.0,0.0,0.0,0.0,0.0,0.0,0.0,0.0,0.0,0.0,0.0,0.0,0.0,3.1188,2.9936,0.0,0.0,0.0,0.0,0.0,0.0,0.0,0.0,0.0,0.0,0.0,0.0,0.0,0.0,0.0,0.0,0.0,0.0,0.0,0.0,0.0,0.0,0.0,0.0,0.0,0.0,0.0,0.0,0.0,0.0,0.0,0.0,0.0,0.0,0.0,0.0,0.0,0.0,0.0,0.0,0.0,0.0,0.0,0.0,0.0,0.0,0.0,0.0,0.0,0.0,0.0,0.0,0.0,0.0,0.0,0.0,0.0,0.0,0.0,0.0,0.0,0.0,0.0,0.0,0.0,0.0,0.0,0.0,0.0,0.0,0.0,0.0,0.0,0.0,0.0,0.0,0.0,0.0,0.0,0.0,0.0,0.0,0.0,0.0,0.0,0.0,0.0,0.0,0.0,0.0,0.0,0.0,0.0,0.0,0.0,0.0,0.0,0.0,0.0,0.0,0.0,0.0,0.0,0.0,0.0,0.0,0.0,0.0,3.2511,3.2498,3.2516,3.2613,3.2879,3.3399,3.433,3.4878,3.4976,3.3294,0.0,0.0,0.0,0.0,0.0,0.0,0.0,0.0,0.0,0.0,0.0,0.0,0.0,0.0,0.0,0.0,0.0,0.0,0.0,0.0,0.0,0.0,0.0,0.0,0.0,0.0,0.0,0.0,0.0,0.0,0.0,0.0,0.0,0.0,0.0,0.0,0.0,0.0,2.8118,2.8229,2.7773,2.6849,0.0,0.0,0.0,0.0,0.0,0.0,0.0,0.0,0.0,0.0,0.0,0.0,0.0,0.0,0.0,0.0,0.0,0.0,0.0,0.0,0.0,0.0,0.0,0.0,0.0,0.0,0.0,0.0,0.0,0.0,0.0,0.0,0.0,0.0,0.0,0.0,0.0,0.0,0.0,0.0,0.0,0.0,0.0,0.0,2.6763,2.8968,0.0,0.0,0.0,0.0,0.0,0.0,0.0,0.0,0.0,0.0,0.0,0.0,0.0,3.1252,3.1414,3.426,3.5687,3.5735,3.8456,3.9731,3.9731,3.9262,3.9139,3.9066,3.7192,0.0,3.7063,3.6456,0.0,0.0,0.0,0.0,0.0,0.0,0.0,0.0,0.0,0.0,0.0,0.0,0.0,0.0,0.0,0.0,0.0,0.0,0.0,0.0,0.0,0.0,0.0,0.0,0.0,0.0,0.0,0.0,0.0,0.0,0.0,0.0,0.0,0.0,0.0,0.0,2.9645,3.1646,3.2636,3.2635,3.2617,3.2578,3.2558,3.0282,2.6481,2.6487,0.0,0.0,0.0,0.0,0.0,0.0,0.0,0.0,0.0,0.0,0.0,0.0,0.0,0.0,0.0,0.0,0.0,0.0,0.0,0.0,0.0,0.0,0.0,0.0,0.0,0.0,0.0,0.0,0.0,0.0,0.0,0.0,0.0,0.0,0.0,0.0,0.0,0.0,0.0,2.6839,2.9158,3.0972,3.0294,2.895,0.0,0.0,0.0,0.0,0.0,0.0,0.0,0.0,0.0,3.2956,3.4358,3.5269,3.5643,3.7919,3.9056,3.9019,4.0115,4.065,4.0633,4.0196,4.0352,4.0889,3.9611,3.9765,4.0671,3.8248,3.7147,3.6842,0.0,0.0,0.0,0.0,3.3237,3.4261,0.0,0.0,0.0,0.0,0.0,0.0,0.0,0.0,0.0,0.0,0.0,0.0,0.0,0.0,0.0,2.2422,0.0,0.0,0.0,0.0,0.0,0.0,0.0,0.0,0.0,0.0,0.0,0.0,3.277,3.4726,3.5996,3.5979,3.5982,3.5996,3.5976,3.3461,2.9224,2.9228,2.7734,0.0,0.0,0.0,0.0,0.0,0.0,0.0,0.0,0.0,0.0,0.0,0.0,0.0,0.0,0.0,0.0,0.0,0.0,0.0,0.0,0.0,0.0,0.0,0.0,0.0,0.0,0.0,0.0,0.0,0.0,0.0,0.0,0.0,0.0,0.0,0.0,0.0,0.0,2.867,3.1099,3.2713,3.2352,3.1335,0.0,0.0,0.0,0.0,0.0,0.0,3.3148,3.3759,3.4563,3.5624,3.7459,3.8707,3.9313,4.0726,4.1423,4.1405,4.1194,4.1125,4.1107,4.0701,4.1008,4.1791,4.1485,4.2085,4.3066,4.0068,3.8559,3.8193,3.8781,3.7642,3.571,3.6303,3.7047,3.7697,0.0,0.0,0.0,0.0,0.0,0.0,0.0,0.0,0.0,0.0,0.0,0.0,0.0,0.0,2.4214,2.4177,2.3494,2.2613,0.0,0.0,0.0,0.0,0.0,0.0,0.0,0.0,0.0,3.1969,3.4588,3.5918,3.5996,3.5939,3.5946,3.5996,3.5937,3.4453,3.1992,3.1992,3.0449,2.7793,0.0,0.0,0.0,0.0,0.0,0.0,0.0,0.0,0.0,0.0,0.0,0.0,0.0,0.0,0.0,0.0,0.0,0.0,0.0,0.0,0.0,0.0,0.0,0.0,0.0,0.0,0.0,0.0,0.0,0.0,0.0,0.0,0.0,0.0,0.0,0.0,0.0,0.0,0.0,3.3757,3.6745,0.0,0.0,0.0,0.0,3.2753,3.2743,3.4129,3.7059,3.725,3.8334,4.0671,4.0855,4.0946,4.0983,4.1827,4.2249,4.2249,4.3002,4.3334,4.3316,4.2774,4.26,4.2639,4.2598,4.2655,4.2732,4.2533,4.2723,4.291,4.0689,3.9735,3.9344,3.714,3.7764,3.9761,0.0,0.0,0.0,0.0,0.0,0.0,0.0,0.0,0.0,0.0,0.0,0.0,0.0,2.4781,2.6836,2.6869,2.7613,2.7457,2.5951,0.0,0.0,0.0,0.0,0.0,0.0,0.0,3.1307,3.2865,3.4938,3.5957,3.6015,3.6464,3.6685,3.6736,3.7222,3.6957,3.6065,3.5071,3.3144,3.0684,2.9746,2.7358,0.0,0.0,0.0,0.0,0.0,0.0,0.0,0.0,0.0,0.0,0.0,0.0,0.0,0.0,0.0,0.0,0.0,0.0,0.0,0.0,0.0,0.0,0.0,0.0,0.0,0.0,0.0,0.0,0.0,0.0,0.0,0.0,0.0,0.0,0.0,0.0,0.0,3.5712,3.6851,0.0,3.6273,3.6752,3.6742,3.592,3.7311,3.867,3.9753,4.0304,4.0983,4.1864,4.2378,4.2635,4.2635,4.2928,4.3057,4.3075,4.3351,4.3497,4.3479,4.2939,4.2902,4.3214,4.2864,4.2902,4.3214,4.3214,4.3339,4.3406,4.2543,4.2213,4.2103,4.124,4.1479,4.2213,0.0,0.0,0.0,0.0,0.0,0.0,0.0,0.0,0.0,0.0,0.0,2.3256,2.3883,2.7032,2.9129,2.9179,3.0505,3.0191,2.7496,0.0,0.0,0.0,0.0,0.0,0.0,3.0346,3.2699,3.4213,3.5657,3.6406,3.6445,3.7161,3.7511,3.7548,3.8013,3.8267,3.8267,3.7215,3.5809,3.4219,3.332,3.0391,2.6386,0.0,0.0,0.0,0.0,0.0,0.0,0.0,0.0,0.0,0.0,0.0,0.0,0.0,0.0,0.0,0.0,0.0,0.0,0.0,0.0,0.0,0.0,0.0,0.0,0.0,0.0,0.0,0.0,0.0,0.0,0.0,0.0,0.0,0.0,3.202,3.4777,3.7074,3.7745,3.8099,3.8183,3.8635,3.898,3.9124,4.0598,4.1625,4.1901,4.2415,4.269,4.269,4.3222,4.3497,4.3497,4.3497,4.3497,4.3497,4.3497,4.3497,4.3479,4.2939,4.2449,4.201,4.2502,4.243,4.2063,4.3061,4.3497,4.3497,4.3497,4.3497,4.3497,4.3497,4.3497,4.3497,0.0,0.0,0.0,0.0,0.0,0.0,0.0,0.0,0.0,0.0,2.4397,2.6194,2.7903,2.977,3.0898,3.0898,3.1699,3.0353,2.6007,2.6439,0.0,0.0,0.0,0.0,3.0722,3.1734,3.3461,3.604,3.6889,3.7304,3.7363,3.8029,3.8373,3.8428,3.8247,3.8285,3.8466,3.8408,3.8414,3.8261,3.5801,3.3242,3.0644,0.0,0.0,0.0,0.0,0.0,0.0,0.0,0.0,0.0,0.0,0.0,0.0,0.0,0.0,0.0,0.0,0.0,0.0,0.0,0.0,0.0,0.0,0.0,0.0,0.0,0.0,0.0,0.0,0.0,0.0,0.0,0.0,0.0,3.1108,3.4218,3.6904,3.7803,3.9804,4.1148,4.1148,4.1167,4.1515,4.2286,4.2341,4.2671,4.3442,4.3424,4.3387,4.3387,4.3387,4.3387,4.3387,4.3442,4.3497,4.3497,4.3497,4.3497,4.3479,4.2976,4.1412,3.9265,4.1683,4.1358,3.9355,4.2298,4.3497,4.3497,4.3497,4.3497,4.3497,4.3497,4.3497,4.3479,0.0,0.0,0.0,0.0,0.0,0.0,0.0,0.0,0.0,0.0,2.277,2.4868,2.5391,2.8708,3.0898,3.0898,3.1703,3.1132,2.8579,0.0,0.0,0.0,0.0,0.0,3.1534,3.3743,3.5521,3.6862,3.7108,3.7572,3.8262,3.8978,3.9325,3.9362,3.9835,4.0065,4.0085,4.02,4.0202,3.9984,3.8138,3.5879,3.3476,0.0,0.0,0.0,0.0,0.0,0.0,0.0,0.0,0.0,0.0,0.0,0.0,0.0,0.0,0.0,0.0,0.0,0.0,0.0,0.0,0.0,0.0,0.0,0.0,0.0,0.0,0.0,0.0,0.0,0.0,0.0,3.3709,3.6059,3.5913,3.7165,3.8615,4.0031,4.1236,4.1974,4.1974,4.2506,4.2928,4.3149,4.3167,4.3259,4.3479,4.1827,4.0891,4.0891,4.0891,4.0891,4.0891,4.2616,4.3497,4.3497,4.3497,4.3497,4.3479,4.3339,4.292,4.2317,4.2993,4.2902,4.2335,4.3169,4.3497,4.3497,4.3497,4.3497,4.3497,4.3497,4.3497,4.324,0.0,0.0,0.0,0.0,0.0,0.0,0.0,0.0,0.0,0.0,2.3139,2.5152,2.5957,2.8945,3.0909,3.0895,3.1986,3.1128,2.7562,0.0,0.0,0.0,0.0,3.1028,3.3556,3.5506,3.6738,3.7242,3.7969,3.8614,3.916,3.983,4.0198,4.0266,4.0538,4.0735,4.0831,4.085,4.0908,4.0877,3.9887,3.8007,3.5723,3.5195,3.3693,3.1804,3.1234,3.1393,3.167,3.0141,0.0,0.0,0.0,0.0,0.0,0.0,0.0,0.0,0.0,0.0,0.0,0.0,0.0,0.0,0.0,0.0,0.0,0.0,0.0,0.0,0.0,0.0,0.0,0.0,3.6242,3.9194,4.0074,4.0197,4.0689,4.1956,4.2525,4.28,4.28,4.3222,4.3497,4.3497,4.3497,4.3497,4.3497,4.2158,4.0928,3.9918,4.0873,4.091,3.99,4.2286,4.3497,4.3497,4.3497,4.3497,4.3497,4.3497,4.2947,4.2047,4.3057,4.291,4.2066,4.3075,4.3497,4.3497,0.0,0.0,0.0,0.0,4.3497,4.3296,0.0,0.0,0.0,0.0,0.0,0.0,0.0,0.0,0.0,0.0,0.0,2.6295,2.8105,2.9863,3.0934,3.1039,3.2167,3.0558,0.0,0.0,0.0,3.1853,3.2116,3.3385,3.6094,3.6894,3.7402,3.7598,3.9141,3.9941,4.0058,4.0584,4.0911,4.1004,4.0713,4.0733,4.0985,4.0831,4.0908,4.1174,4.1058,3.9694,3.7734,3.7676,3.625,3.4275,3.4199,3.4223,3.4238,3.3945,0.0,0.0,0.0,0.0,0.0,0.0,0.0,0.0,0.0,0.0,0.0,0.0,0.0,0.0,0.0,0.0,0.0,0.0,0.0,0.0,0.0,0.0,0.0,0.0,3.8768,4.1382,4.3235,4.2892,4.269,4.3406,4.3497,4.3497,4.3497,4.3497,4.3497,4.3497,4.3497,4.3497,4.3497,4.3222,0.0,0.0,0.0,4.2066,3.9918,4.2286,4.3497,4.3497,4.3497,4.3497,4.3497,4.3497,4.2323,4.0414,4.2561,4.2268,4.0469,4.2616,4.3497,4.3497,4.3497,4.3497,4.3461,4.3185,4.3259,4.3442,0.0,0.0,0.0,0.0,0.0,0.0,0.0,0.0,0.0,2.2763,2.4519,2.6295,2.8105,2.9863,3.1172,3.1889,3.0896,2.9414,0.0,0.0,2.6502,3.1864,3.214,3.3708,3.6973,3.7207,3.7988,3.9394,3.9726,4.0254,4.0957,4.1072,4.1134,4.1163,4.1084,4.1042,4.0985,4.1078,4.1078,4.1043,4.1135,4.0878,4.0449,4.043,4.0117,3.9687,3.9681,3.9684,3.9375,3.7266,3.6074,3.5625,3.6328,0.0,0.0,0.0,0.0,0.0,0.0,0.0,0.0,0.0,0.0,0.0,0.0,0.0,0.0,0.0,0.0,0.0,0.0,0.0,0.0,3.9192,4.1354,4.303,4.3458,4.3369,4.3314,4.3461,4.3497,4.3497,4.3497,4.3497,4.3497,4.3497,4.3497,4.3497,4.3497,4.1644,4.0377,3.99,4.0341,4.0359,3.99,4.2286,4.3497,4.3497,4.3497,0.0,4.3497,4.3497,4.324,4.2818,4.3296,4.3222,4.2837,4.3296,4.3497,4.3497,4.3497,4.3497,4.324,4.1295,4.1827,4.3204,0.0,0.0,0.0,0.0,0.0,0.0,0.0,0.0,0.0,0.0,2.3159,2.4927,2.6702,2.7327,2.8101,2.9401,2.7899,0.0,0.0,2.8485,2.9518,3.3817,3.4075,3.5117,3.7246,3.7734,3.8594,3.9902,4.0332,4.0762,4.1191,4.1133,4.1133,4.1198,4.1067,4.1042,4.1104,4.11,4.1097,4.1108,4.116,4.1193,4.1191,4.1191,4.1191,4.1191,4.1191,4.1191,4.0996,3.9687,3.8965,3.8672,3.9101,3.8066,3.5976,0.0,0.0,0.0,0.0,0.0,0.0,0.0,0.0,0.0,0.0,0.0,0.0,0.0,0.0,3.6128,3.6175,0.0,3.8905,4.0012,4.1174,4.2308,4.3348,4.3497,4.3497,4.3497,4.3497,4.3497,4.3497,4.3497,4.3497,4.3497,4.3497,4.3497,4.3497,4.2359,4.1148,3.9937,4.1056,4.1111,3.99,4.2286,4.3497,4.3497,4.3497,4.3497,4.3497,4.392,4.4103,4.4121,4.4525,4.469,4.469,4.469,4.469,4.469,4.469,4.4452,4.3993,4.3204,4.3663,4.4525,0.0,0.0,0.0,0.0,0.0,0.0,0.0,0.0,0.0,0.0,0.0,2.3248,2.4845,2.4433,2.4526,0.0,0.0,0.0,0.0,3.1068,3.2508,3.5781,3.5976,3.6484,3.7539,3.8242,3.9101,4.0156,4.0859,4.1191,4.1191,4.1094,4.1094,4.1191,4.0964,4.0996,4.119,4.1081,4.1112,4.1187,4.1202,4.1191,4.1191,4.1191,4.1191,4.1191,4.1191,4.1191,4.1191,4.1191,4.1308,4.1426,4.1426,4.1986,4.1436,3.522,3.5853,0.0,0.0,0.0,0.0,0.0,0.0,0.0,0.0,3.6757,3.7334,3.6834,3.7642,3.83,3.7909,3.8461,3.938,4.0624,4.0948,4.1593,4.3272,4.3497,4.3497,4.3497,4.3497,4.3497,4.3497,4.3497,4.3497,4.3497,4.3497,4.3497,4.3497,4.3497,4.2598,4.0653,4.247,4.2561,4.0616,4.2525,4.3497,4.3497,4.3644,4.3718,4.3754,4.458,4.4947,4.4984,4.5626,4.5902,4.5902,4.5902,4.5902,4.592,4.6067,4.5755,4.5241,4.5718,4.5902,4.5902,0.0,0.0,0.0,0.0,0.0,0.0,0.0,0.0,0.0,0.0,0.0,0.0,0.0,0.0,0.0,0.0,0.0,0.0,0.0,3.0733,3.3218,3.5878,3.5996,3.6777,3.8418,3.8555,3.9414,4.1055,4.1152,4.1191,4.1191,4.1172,4.1191,4.1191,4.1171,4.1171,4.1191,4.1188,4.1183,4.1205,4.1191,4.1191,4.1191,4.1191,4.1191,4.1191,4.1191,4.1191,4.1191,4.1191,4.168,4.2266,4.2266,4.2863,4.278,3.8866,0.0,3.7058,3.0781,2.8234,2.8091,3.1198,3.4295,3.6776,0.0,4.1219,4.3835,4.1566,4.297,4.4403,4.3791,4.3744,4.3686,4.3203,4.3125,4.3235,4.3461,4.3497,4.3497,4.3497,4.3497,4.3497,4.3497,4.3497,4.3497,4.3497,4.3497,4.3497,4.3497,4.3497,4.3369,4.3094,4.3351,4.3351,4.3094,4.3351,4.3497,4.3497,4.4213,4.458,4.4599,4.5406,4.5773,4.5773,4.5865,4.5902,4.5902,4.5902,4.5902,4.5975,4.6709,4.6929,4.6783,4.614,4.5902,4.5902,0.0,0.0,0.0,0.0,0.0,0.0,0.0,0.0,0.0,0.0,0.0,0.0,0.0,0.0,0.0,0.0,0.0,0.0,2.7923,3.0646,3.333,3.5834,3.5971,3.6816,3.8555,3.8594,3.9453,4.1191,4.1117,4.1081,4.1081,4.1,4.1013,4.1074,4.1074,4.1133,4.1191,4.1191,4.1191,4.1191,4.1191,4.1191,4.1191,4.1191,4.1484,4.1641,3.9648,3.8926,0.0,0.0,3.9902,4.0547,4.2539,4.2393,4.1202,3.9712,3.817,0.0,3.3647,3.3789,3.5026,3.6449,3.9373,4.197,4.2335,4.4066,4.5297,4.422,4.4855,4.54,4.4707,4.3416,4.2682,4.3391,4.2304,4.1882,4.3296,4.3497,4.3497,4.3497,4.1846,4.0891,4.135,4.2671,4.291,4.1497,4.269,4.3497,4.3497,4.3497,4.3497,4.3497,4.3497,4.3497,4.3497,4.3956,4.4195,4.4213,4.5021,4.5406,4.5424,4.6232,4.6856,4.7297,4.7297,4.7297,4.7297,4.7297,4.7297,4.7333,4.7682,4.781,4.7774,4.7425,4.7297,4.7297,0.0,0.0,0.0,0.0,0.0,0.0,0.0,0.0,0.0,0.0,0.0,0.0,0.0,0.0,0.0,0.0,0.0,0.0,0.0,3.0632,3.3292,3.5825,3.5978,0.0,3.8555,3.8594,3.9453,4.1191,4.1071,4.0985,4.1001,4.0858,4.0852,4.0953,4.0972,4.1055,4.1152,4.1172,4.1191,4.1191,4.1191,4.1191,4.1211,4.1445,4.1152,4.0312,3.7832,3.7109,0.0,0.0,3.7422,3.8828,4.0117,4.0233,3.9693,3.8695,3.6338,3.4195,3.5013,3.6452,3.8161,4.0027,4.2527,4.4739,4.5432,4.5586,4.5586,4.5586,4.5586,4.54,4.4707,4.3139,4.2269,4.3336,4.2029,4.1497,4.324,4.3497,4.3167,4.2268,4.012,3.8303,3.7312,4.023,4.1809,4.0946,4.2506,4.3497,4.3497,4.3497,4.3497,4.3497,4.3718,4.3828,4.3828,4.4635,4.5039,4.5039,4.5847,4.6232,4.6269,4.7076,4.7755,4.8306,4.8306,4.8306,4.8306,4.8306,4.8306,4.8306,4.8306,4.8306,4.8306,4.8306,4.8306,4.8306,0.0,0.0,0.0,0.0,0.0,0.0,0.0,0.0,0.0,0.0,0.0,0.0,0.0,0.0,0.0,0.0,0.0,0.0,0.0,3.0618,3.3262,3.5878,3.5996,3.6816,3.8555,3.8594,3.9453,4.1191,4.1071,4.0985,4.0985,4.0866,4.0804,4.081,4.0944,4.0996,4.1016,4.1133,4.1191,4.1191,4.1191,4.1191,4.1289,4.207,3.9805,3.6172,3.6074,0.0,0.0,0.0,3.4453,3.7891,3.3828,3.5923,0.0,3.569,3.2124,3.0037,3.3346,3.2506,3.2275,3.8854,4.12,4.2566,4.5028,4.5586,4.5586,4.5586,4.5586,4.54,4.4707,4.4549,4.4271,4.3612,4.3424,4.3406,4.3479,4.3497,4.2341,3.9221,3.8762,3.6541,3.1035,3.5569,4.0102,4.3149,4.3442,4.3497,4.3497,4.3497,4.3497,4.3497,4.4268,4.4672,4.4672,4.5461,4.5865,4.5865,4.6691,4.7076,4.7113,4.7902,4.8288,4.8306,4.8306,4.8306,4.8306,4.8306,4.8306,4.8306,4.8306,4.8306,4.8306,4.8306,4.8306,4.8306,0.0,0.0,0.0,0.0,0.0,0.0,0.0,0.0,0.0,0.0,0.0,0.0,0.0,0.0,0.0,0.0,0.0,0.0,0.0,2.8025,3.0684,3.3301,3.5078,3.6543,3.7715,3.8301,3.918,4.0332,4.0789,4.0954,4.087,4.0773,4.0735,4.075,4.0827,4.0929,4.1016,4.1133,4.1191,4.1191,4.1191,4.1191,4.1035,3.957,3.8125,3.6269,0.0,0.0,0.0,0.0,0.0,3.1914,3.2734,3.2635,3.1602,2.856,3.0037,3.2531,3.1852,3.4334,3.7642,3.9931,4.2431,4.4547,4.5393,4.5586,4.5586,4.5586,4.3797,4.208,4.1637,3.9618,3.8587,4.0237,3.8699,3.8802,4.3206,4.0052,3.8487,4.1816,3.8206,3.6395,3.8781,3.8836,3.8469,3.79,4.135,4.3497,4.3497,4.4011,4.4305,4.4305,4.5076,4.5498,4.5498,4.6305,4.6709,4.6728,4.7517,4.7921,4.7921,4.8196,4.8306,4.8306,4.8306,4.8306,4.8306,4.8306,4.8306,4.8306,4.8306,4.8306,4.8306,4.8306,4.8306,4.8306,0.0,0.0,0.0,0.0,0.0,0.0,0.0,0.0,0.0,0.0,0.0,0.0,0.0,0.0,0.0,0.0,0.0,0.0,0.0,0.0,2.7947,3.0559,3.2007,3.3297,3.4446,3.5921,3.7243,3.8436,4.0082,4.0848,4.0754,4.0677,4.0639,4.0639,4.0716,4.0815,4.0906,4.1052,4.1285,4.1384,3.994,3.9687,3.9844,3.668,3.4707,0.0,0.0,0.0,0.0,0.0,0.0,2.7949,2.8613,2.7519,2.6166,2.7125,2.9655,3.2359,3.3333,3.6757,4.0431,4.195,4.397,4.5586,4.5586,4.5586,4.5586,4.5586,4.3835,4.175,3.9872,3.7619,3.6629,3.8406,3.6912,3.7534,4.3371,4.0528,3.8943,4.1921,3.8414,3.6842,3.9766,3.9478,3.8358,3.6468,3.9974,4.2194,4.2194,4.2983,4.3956,4.5094,4.592,4.6342,4.6342,4.715,4.7535,4.7553,4.8067,4.8306,4.8306,4.8306,4.7682,4.6654,4.781,4.7664,4.6673,4.7829,4.8306,4.8306,4.8306,4.8306,4.8306,4.8306,4.8306,4.8306,0.0,0.0,0.0,0.0,0.0,0.0,0.0,0.0,0.0,0.0,0.0,0.0,0.0,0.0,0.0,0.0,0.0,0.0,0.0,0.0,0.0,2.7725,2.7183,2.7576,2.916,3.1657,3.3751,3.541,3.8608,4.0196,4.0177,4.0042,4.0004,3.9988,4.0104,4.0177,4.0198,4.0398,4.0883,4.1182,3.7282,3.666,3.7578,3.3535,0.0,0.0,0.0,0.0,0.0,0.0,2.3512,2.6384,2.2479,2.1757,2.3778,3.0916,3.0846,3.0036,3.7185,3.9354,4.0566,4.4586,4.5586,4.5586,4.5586,4.5586,4.5528,4.5316,4.5124,4.3593,3.8956,3.7907,3.7761,3.7886,3.7722,3.9183,4.3731,4.4209,4.2925,3.9631,3.9234,3.7984,3.4696,3.793,3.9808,3.8891,3.968,4.0194,4.0194,4.0983,4.2818,4.5865,4.6746,4.7186,4.7186,4.7921,4.8306,4.8306,4.8306,4.8306,4.8306,4.8306,4.6636,4.392,4.6966,4.6562,4.3975,4.704,4.8306,4.8306,4.8306,4.8343,4.8379,4.8379,4.8398,4.8434,0.0,0.0,0.0,0.0,0.0,0.0,0.0,0.0,0.0,0.0,0.0,0.0,0.0,0.0,0.0,0.0,0.0,0.0,0.0,0.0,0.0,0.0,0.0,0.0,0.0,0.0,0.0,0.0,0.0,3.3224,3.3176,3.3138,3.3075,0.0,3.3127,3.3179,3.3179,3.3267,3.3425,3.3521,0.0,3.2336,3.248,0.0,0.0,0.0,0.0,0.0,0.0,0.0,2.4359,2.8063,2.9466,3.005,3.021,3.0229,3.3158,3.6415,3.6459,4.0142,4.4239,4.5316,4.5586,4.5586,4.5586,4.5586,4.4701,4.1546,3.8873,3.5589,3.0593,2.851,2.8939,3.3184,3.2879,3.4242,4.0321,3.9108,3.8137,3.961,3.9977,4.0663,4.2147,4.3553,4.3296,4.0689,4.291,4.436,4.436,4.5149,4.5957,4.6783,4.759,4.7994,4.7994,4.8214,4.8306,4.8306,4.8306,4.8306,4.8306,4.8306,4.7847,4.7131,4.7939,4.7829,4.715,4.7957,4.8306,4.8306,4.8306,4.8691,4.926,4.926,4.9646,5.016,0.0,0.0,0.0,0.0,0.0,0.0,0.0,0.0,0.0,0.0,0.0,0.0,0.0,0.0,0.0,0.0,0.0,0.0,0.0,0.0,0.0,0.0,0.0,0.0,0.0,0.0,0.0,0.0,0.0,0.0,0.0,3.0505,3.0463,3.0398,3.0477,3.0503,3.0522,0.0,0.0,0.0,0.0,0.0,0.0,0.0,0.0,0.0,0.0,0.0,0.0,0.0,0.0,2.8978,3.4249,3.4616,3.3545,3.5811,3.7808,3.9404,3.9823,4.2701,4.5586,4.5586,4.5586,4.5105,4.3258,4.2835,4.1527,3.6911,3.443,3.1545,2.6428,2.519,2.6511,3.1312,3.1938,3.3769,3.9428,3.8982,3.8716,4.0367,4.1022,4.2573,4.5734,4.6607,4.6122,4.4147,4.4223,4.4323,4.4323,4.5076,4.6177,4.759,4.8067,4.8306,4.8306,4.8306,4.8306,4.8306,4.8306,4.8306,4.8306,4.8306,4.7535,4.6269,4.77,4.7498,4.6305,4.7719,4.8526,4.8875,4.8875,4.9389,5.0123,5.0123,5.0398,5.0857,0.0,0.0,0.0,0.0,0.0,0.0,0.0,0.0,0.0,0.0,0.0,0.0,0.0,0.0,0.0,0.0,0.0,0.0,0.0,0.0,0.0,0.0,0.0,0.0,0.0,0.0,0.0,0.0,0.0,0.0,0.0,0.0,0.0,0.0,0.0,0.0,0.0,0.0,0.0,0.0,0.0,0.0,0.0,0.0,0.0,0.0,0.0,0.0,0.0,0.0,3.2088,3.033,3.7921,3.775,3.6115,4.3073,4.2748,4.0856,4.4049,4.524,4.5586,4.5586,4.5586,4.4624,4.0969,3.9604,3.77,3.2737,3.116,2.9333,2.4918,2.5376,2.7623,3.1282,3.3177,3.5407,3.8854,4.0758,4.156,4.0941,4.1931,4.39,4.7015,4.7597,4.7843,4.7927,4.4975,4.3143,4.3094,4.3754,4.5424,4.8214,4.8306,4.8306,4.8306,4.8306,4.8306,4.8306,4.8306,4.8306,4.8306,4.8306,4.6783,4.4287,4.7095,4.6783,4.4525,4.7315,4.8985,4.9738,4.9738,5.0251,5.0967,5.0967,5.1041,5.1224,0.0,0.0,0.0,0.0,0.0,0.0,0.0,0.0,0.0,0.0,0.0,0.0,0.0,0.0,0.0,0.0,0.0,0.0,0.0,0.0,0.0,0.0,0.0,0.0,0.0,0.0,0.0,0.0,0.0,0.0,0.0,0.0,0.0,0.0,0.0,0.0,0.0,0.0,0.0,0.0,0.0,0.0,0.0,0.0,0.0,0.0,0.0,0.0,0.0,0.0,3.4898,3.548,4.2381,4.4032,4.3169,4.1816,4.2893,4.4049,4.195,4.3451,4.5586,4.5586,4.5586,4.5393,4.4662,4.1239,3.6988,3.2602,2.8352,2.5149,2.4264,2.5457,2.7907,3.2025,3.4128,3.4768,3.343,3.818,4.1011,3.8831,4.1476,4.4801,4.8167,4.6448,4.6205,4.8972,4.8282,4.7601,4.7297,4.7388,4.7719,4.8288,4.8306,4.8306,4.8306,4.8306,4.8306,4.8306,4.8306,4.8306,4.8306,4.8306,4.8012,4.7498,4.8067,4.8398,4.8581,4.9132,4.9848,5.0582,5.0582,5.1077,5.1775,5.1775,5.2215,5.2803,0.0,0.0,0.0,0.0,0.0,0.0,0.0,0.0,0.0,0.0,0.0,0.0,0.0,0.0,0.0,0.0,0.0,0.0,0.0,0.0,0.0,0.0,0.0,0.0,0.0,0.0,1.6715,1.7119,0.0,1.751,1.8318,1.8318,1.8799,1.9619,0.0,0.0,0.0,0.0,0.0,0.0,0.0,0.0,0.0,0.0,0.0,0.0,0.0,0.0,0.0,0.0,3.2538,3.4389,4.2912,4.5586,4.4932,4.1489,4.2912,4.4836,4.1431,4.2989,4.5586,4.5586,4.5586,4.4316,3.9469,3.6488,3.2641,2.5293,2.185,2.0012,1.9542,2.0831,2.4235,3.116,3.3718,3.5488,3.7373,4.0796,4.2643,4.1412,4.329,4.5322,4.6989,4.5848,4.5616,4.7043,4.7,4.7384,4.8529,4.8421,4.8306,4.8306,4.8306,4.8306,4.8306,4.8306,4.8306,4.8306,4.8306,4.8306,4.8306,4.8306,4.8545,4.8967,4.8967,4.8471,4.7792,4.9517,4.9682,4.9058,5.0765,5.1922,5.2619,5.2619,5.2876,5.3206,0.0,0.0,0.0,0.0,0.0,0.0,0.0,0.0,0.0,0.0,0.0,0.0,0.0,0.0,0.0,0.0,0.0,0.0,0.0,0.0,0.0,0.0,0.0,0.0,0.0,0.0,0.0,1.7702,1.7061,0.0,0.0,0.0,0.0,0.0,1.9088,1.9485,2.0292,0.0,0.0,0.0,0.0,2.0312,0.0,0.0,0.0,0.0,0.0,0.0,0.0,0.0,2.9483,3.1417,4.0146,4.3145,4.3047,4.1088,4.2396,4.4066,4.2104,4.3566,4.5624,4.5624,4.5643,4.347,3.5004,3.225,2.8879,1.9745,1.7003,1.6381,1.6771,1.7934,2.1756,3.0756,3.2583,3.5064,4.1393,4.2662,4.3355,4.4451,4.5182,4.5874,4.6605,4.6028,4.5783,4.6194,4.6145,4.6961,4.8912,4.864,4.8421,4.8421,4.8326,4.8306,4.8306,4.8306,4.8306,4.8306,4.8306,4.8398,4.8581,4.8581,4.904,4.9848,4.9848,4.8434,4.6416,4.9701,4.9609,4.77,5.0967,5.2637,5.3206,5.3206,5.3206,5.3206,0.0,0.0,0.0,0.0,0.0,0.0,0.0,0.0,0.0,0.0,0.0,0.0,0.0,0.0,0.0,0.0,0.0,0.0,0.0,0.0,0.0,0.0,0.0,0.0,0.0,0.0,0.0,1.7702,1.7626,0.0,0.0,0.0,0.0,0.0,0.0,1.9477,2.0254,1.9453,0.0,0.0,0.0,0.0,0.0,0.0,0.0,0.0,0.0,0.0,0.0,0.0,0.0,2.8933,3.29,3.5206,3.6978,3.9761,4.077,4.1566,4.4355,4.5449,4.5776,4.5776,4.5834,4.4434,3.887,3.4026,2.9113,2.3473,1.8625,1.6796,2.1351,2.2313,2.4958,3.2704,3.0871,3.1083,3.8604,3.9027,4.0296,4.4932,4.5547,4.6817,4.9913,4.7413,4.6874,4.9952,4.9835,4.9575,4.9456,4.9043,4.8829,4.8829,4.8477,4.8306,4.8306,4.8306,4.8306,4.8306,4.8306,4.871,4.9462,4.9462,4.9903,5.0692,5.0692,4.9279,4.726,5.0527,5.0435,4.8526,5.1811,5.3133,5.3206,5.3206,5.3206,5.3206,0.0,0.0,0.0,0.0,0.0,0.0,0.0,0.0,0.0,0.0,0.0,0.0,0.0,0.0,0.0,0.0,0.0,0.0,0.0,0.0,0.0,0.0,0.0,0.0,0.0,0.0,1.8472,1.8472,1.7972,0.0,0.0,0.0,0.0,0.0,0.0,1.9196,1.9523,1.9715,0.0,0.0,0.0,0.0,0.0,0.0,0.0,0.0,0.0,0.0,2.3092,2.4755,0.0,0.0,2.5859,2.6965,0.0,0.0,3.66,3.9756,3.9615,4.2618,4.5825,4.5854,4.5866,4.3749,3.5495,3.2061,2.828,2.0024,1.6711,1.5928,1.7952,1.8329,2.0656,2.7757,2.7498,2.9958,4.0162,4.1296,4.2951,4.8048,4.8663,4.8394,4.7702,4.6394,4.6163,4.7528,4.7473,4.8214,5.0111,4.9617,4.9139,4.8897,4.8744,4.8657,4.8657,4.8421,4.8306,4.8324,4.882,4.9242,4.9609,5.0086,5.0747,5.1518,5.1518,4.9022,4.5369,5.0823,5.0212,4.6298,5.1854,5.3814,5.3565,5.3565,5.3422,5.3206,0.0,0.0,0.0,0.0,0.0,0.0,0.0,0.0,0.0,0.0,0.0,0.0,0.0,0.0,0.0,0.0,0.0,0.0,0.0,0.0,0.0,0.0,0.0,0.0,0.0,0.0,1.9126,1.9377,1.8773,1.8465,0.0,0.0,1.8792,1.9377,0.0,0.0,0.0,0.0,0.0,0.0,0.0,0.0,0.0,0.0,0.0,0.0,0.0,0.0,0.0,0.0,0.0,0.0,0.0,0.0,0.0,0.0,3.3097,3.7667,3.6949,4.1191,4.5844,4.5949,4.4839,4.1448,3.2674,2.9492,2.5901,1.7129,1.5325,1.5325,1.5325,1.5323,1.7558,0.0,0.0,2.9397,3.9788,4.1216,4.3104,4.8202,4.8586,4.8086,4.7201,4.7105,4.7105,4.7105,4.7105,4.8125,5.041,5.0092,4.9673,4.9265,4.9139,4.9011,4.8897,4.8844,4.8789,4.8691,4.9536,4.9554,4.8912,5.0453,5.1059,5.0949,5.1922,4.9517,4.5369,5.1212,5.043,4.6134,5.2024,5.4187,5.4013,5.4013,5.3739,5.34,0.0,0.0,0.0,0.0,0.0,0.0,0.0,0.0,0.0,0.0,0.0,0.0,0.0,0.0,0.0,0.0,0.0,0.0,0.0,0.0,0.0,0.0,0.0,0.0,0.0,0.0,1.9419,2.0292,2.0292,2.0273,2.0273,2.0273,2.0292,2.0254,0.0,0.0,0.0,0.0,0.0,0.0,0.0,0.0,0.0,0.0,0.0,0.0,0.0,0.0,0.0,0.0,0.0,0.0,0.0,1.9931,2.0389,0.0,3.1015,3.511,3.852,4.2615,4.5939,4.6066,4.2352,3.7305,3.209,2.6894,2.1699,1.6465,1.5391,1.5391,1.5391,1.5391,1.7614,2.4405,2.6161,0.0,3.59,3.6812,3.8661,4.3758,4.3662,4.5143,5.0144,5.0644,5.0644,5.0644,5.0644,5.0485,5.0135,5.0483,5.0504,5.0092,4.9719,4.9295,4.8897,4.9682,4.9916,4.9591,5.0398,4.9499,4.726,5.0508,5.0655,4.8526,5.1793,5.1316,4.8508,5.1848,5.1505,4.9262,5.2529,5.4083,5.4503,5.4503,5.4187,5.3814,0.0,0.0,0.0,0.0,0.0,0.0,0.0,0.0,0.0,0.0,0.0,0.0,0.0,0.0,0.0,0.0,0.0,0.0,0.0,0.0,0.0,0.0,0.0,0.0,0.0,0.0,0.0,0.0,2.0004,2.0312,2.0312,2.0312,2.0312,2.0292,2.0004,1.9561,0.0,0.0,0.0,0.0,0.0,0.0,1.9492,0.0,0.0,0.0,0.0,0.0,0.0,0.0,0.0,0.0,0.0,0.0,0.0,2.1435,2.4981,2.8534,2.9696,3.3127,3.6292,3.5833,3.4507,3.1992,2.6816,2.4316,2.1641,1.6465,1.5391,1.5391,1.5391,1.5898,1.834,2.4567,2.6286,3.0205,3.9882,4.1228,4.3067,4.8085,4.8452,4.8933,5.0529,4.8586,4.8182,5.051,4.8529,4.8164,5.0389,5.0624,5.0523,5.0116,4.9974,5.0119,5.0542,5.0587,5.0642,5.086,5.164,5.0287,4.7204,5.1077,5.1169,4.8489,5.1775,5.1353,4.8601,5.2155,5.1948,4.9766,5.3316,5.479,5.4924,5.4924,5.464,5.4221,0.0,0.0,0.0,0.0,0.0,0.0,0.0,0.0,0.0,0.0,0.0,0.0,0.0,0.0,0.0,0.0,0.0,0.0,0.0,0.0,0.0,0.0,0.0,0.0,0.0,0.0,0.0,0.0,0.0,0.0,2.0312,2.0312,2.0312,2.0312,2.0312,1.9812,0.0,0.0,0.0,0.0,0.0,0.0,1.9107,0.0,0.0,0.0,0.0,0.0,0.0,0.0,0.0,0.0,0.0,0.0,0.0,0.0,2.0126,2.2614,2.4598,2.8265,3.1408,3.1006,2.9414,2.7129,2.3926,2.1641,1.9277,1.6055,1.6973,1.7734,1.5762,1.7695,2.029,2.239,2.6646,3.1643,3.7218,3.9644,4.1967,4.5045,4.7413,4.9279,5.0567,4.8759,4.8394,5.0529,4.8721,4.8452,5.0587,5.0991,5.1045,5.0795,5.0795,5.0937,5.1299,5.1575,5.1769,5.1875,5.2494,5.0951,4.77,5.1481,5.1426,4.8489,5.1775,5.205,0.0,5.2634,5.2746,5.1668,5.3974,5.5061,5.5331,5.5331,5.4979,5.4471,0.0,0.0,0.0,0.0,0.0,0.0,0.0,0.0,0.0,0.0,0.0,0.0,0.0,0.0,0.0,0.0,0.0,0.0,0.0,0.0,0.0,0.0,0.0,0.0,0.0,0.0,0.0,1.8915,1.8965,1.9458,2.0312,0.0,2.0312,2.0312,2.0312,1.9773,1.8799,1.7202,1.6465,1.6484,1.7292,1.8126,0.0,0.0,0.0,0.0,0.0,0.0,0.0,0.0,0.0,0.0,0.0,0.0,0.0,0.0,0.0,0.0,0.0,2.6668,2.9721,2.9779,2.6152,2.2578,2.2637,0.0,0.0,1.5879,1.9824,2.1719,1.6836,2.0937,2.3615,1.9249,2.7538,3.3432,3.0288,3.4122,3.7161,3.6911,4.2258,4.7105,5.0048,5.0548,5.0702,5.0702,5.0702,5.0702,5.0702,5.1471,5.1914,5.1914,5.2029,5.1883,5.149,5.2655,5.2954,5.236,5.2942,5.1393,4.8086,5.161,5.1426,4.8489,5.1775,5.3206,5.3206,5.3206,5.372,5.4503,5.4503,5.5007,5.5703,5.5703,5.5212,5.4597,0.0,0.0,0.0,0.0,0.0,0.0,0.0,0.0,0.0,0.0,0.0,0.0,0.0,0.0,0.0,0.0,0.0,0.0,0.0,0.0,0.0,0.0,0.0,0.0,0.0,0.0,0.0,1.801,1.8669,1.9458,2.0312,2.0312,0.0,0.0,0.0,1.9446,1.7933,1.6926,1.6118,1.558,1.6445,1.7273,0.0,0.0,0.0,0.0,1.811,1.7826,0.0,0.0,0.0,0.0,0.0,0.0,0.0,0.0,1.6224,1.5977,1.7187,0.0,1.9841,1.9196,1.8125,1.7207,0.0,0.0,0.0,0.0,0.0,0.0,0.0,2.6777,2.9667,2.4709,3.1039,3.6279,3.5328,3.9411,4.1566,3.8988,4.5086,4.8779,4.6971,4.9144,5.0702,5.0702,5.0702,5.0702,5.0702,5.1471,5.1914,5.1914,5.3203,5.3667,5.3219,5.3495,5.2378,4.9896,5.2438,5.0472,4.4819,5.0582,5.1426,4.8489,5.1775,5.3206,5.3206,5.3206,5.372,5.4503,5.4503,5.5007,5.5703,5.5703,5.5577,5.5331,0.0,0.0,0.0,0.0,0.0,0.0,0.0,0.0,0.0,0.0,0.0,0.0,0.0,0.0,0.0,0.0,0.0,0.0,0.0,0.0,0.0,0.0,0.0,0.0,0.0,0.0,0.0,0.0,0.0,1.9061,0.0,0.0,0.0,0.0,0.0,1.8965,1.7645,1.683,1.6003,1.5285,1.6157,0.0,0.0,0.0,0.0,0.0,1.7554,1.7044,0.0,1.7676,1.8283,1.8691,0.0,0.0,0.0,0.0,1.5762,1.5391,1.5391,1.5742,1.6562,1.8457,1.7148,1.6035,0.0,0.0,0.0,0.0,0.0,0.0,0.0,2.6786,2.8926,2.6149,3.0133,3.4505,3.7089,4.0085,4.1335,3.9508,4.2951,4.549,4.5586,4.8682,5.0702,5.0702,5.0702,5.0856,5.1221,5.2049,5.2683,5.3087,5.4376,5.4754,5.413,5.4131,5.2502,4.9302,5.2159,5.0765,4.5865,5.0912,5.2234,5.0545,5.0453,5.1481,5.3059,5.1187,5.188,5.4187,5.4439,5.4895,5.5446,5.564,5.5466,5.5088,0.0,0.0,0.0,0.0,0.0,0.0,0.0,0.0,0.0,0.0,0.0,0.0,0.0,0.0,0.0,0.0,0.0,0.0,0.0,0.0,0.0,0.0,0.0,0.0,0.0,0.0,0.0,0.0,0.0,0.0,0.0,0.0,2.0312,0.0,1.9246,1.8388,1.7645,1.6696,1.5888,1.5266,1.6003,0.0,0.0,0.0,0.0,0.0,0.0,0.0,0.0,1.7258,1.7793,1.7793,1.7793,0.0,0.0,0.0,0.0,0.0,1.5391,1.5391,1.6641,2.1816,1.9219,1.6777,2.2012,0.0,0.0,0.0,0.0,0.0,0.0,2.6955,2.8393,2.6071,2.8351,3.2179,3.7286,3.92,3.9873,3.9354,4.0315,4.2239,4.5297,4.8682,5.0702,5.0702,5.0702,5.1048,5.1875,5.2741,5.3606,5.4472,5.528,5.5376,5.4684,5.4609,5.2866,4.9551,5.2066,5.1544,4.8416,5.1701,5.3206,5.3023,4.9554,5.0013,5.2949,4.9481,5.0304,5.3851,5.4322,5.475,5.516,5.5489,5.5186,5.4579,0.0,0.0,0.0,0.0,0.0,0.0,0.0,0.0,0.0,0.0,0.0,0.0,0.0,0.0,0.0,0.0,0.0,0.0,0.0,0.0,0.0,0.0,0.0,0.0,0.0,0.0,0.0,0.0,0.0,0.0,2.0312,2.0312,2.0312,2.0235,1.8619,1.783,1.76,1.6042,1.5324,1.5209,1.5349,0.0,0.0,0.0,0.0,0.0,0.0,0.0,0.0,1.6562,1.6894,1.6894,1.6894,0.0,0.0,0.0,0.0,0.0,1.5391,1.5391,1.6641,2.1816,1.9219,1.6777,2.2012,0.0,0.0,0.0,0.0,0.0,0.0,3.8221,4.1027,2.7832,3.1376,3.6334,3.7878,4.1229,4.247,3.9642,4.5009,4.8067,4.5817,4.8682,5.0702,5.0702,5.0702,5.1048,5.1875,5.2741,5.3606,5.4472,5.528,5.5645,5.5511,5.518,5.3015,4.9118,5.2213,5.1805,4.8416,5.1701,5.3206,5.3188,5.2546,5.2637,5.317,5.2527,5.289,5.3851,5.4322,5.475,5.5107,5.516,5.5115,5.4905,0.0,0.0,0.0,0.0,0.0,0.0,0.0,0.0,0.0,0.0,0.0,0.0,0.0,0.0,0.0,0.0,0.0,0.0,0.0,0.0,0.0,0.0,0.0,0.0,0.0,0.0,0.0,0.0,0.0,1.8581,2.0312,2.0312,2.0054,1.9535,1.8273,1.7465,1.6965,1.5734,1.5189,1.5189,0.0,0.0,0.0,0.0,0.0,0.0,0.0,0.0,0.0,0.0,1.709,1.6777,1.7246,0.0,0.0,0.0,0.0,0.0,1.5391,1.5391,1.7291,2.5232,2.1249,1.8223,0.0,0.0,0.0,0.0,0.0,0.0,0.0,3.4078,3.5192,3.2138,3.8883,4.3799,4.1747,4.3107,4.3893,4.2816,4.5393,4.6797,4.5701,4.8682,5.0702,5.0702,5.0702,5.126,5.2529,5.2991,5.3799,5.5107,5.5511,5.5703,5.5703,5.5512,5.3365,4.9363,5.2373,5.1862,4.8416,5.1701,5.3206,5.3096,5.0875,5.1169,5.3041,5.0839,5.1308,5.3505,5.396,5.4236,5.4382,5.4382,5.4382,5.4317,0.0,0.0,0.0,0.0,0.0,0.0,0.0,0.0,0.0,0.0,0.0,0.0,0.0,0.0,0.0,0.0,0.0,0.0,0.0,0.0,0.0,0.0,0.0,0.0,0.0,0.0,1.5926,1.7407,1.7606,1.8581,2.0312,2.0092,1.9631,1.8958,1.7888,1.708,1.6445,1.558,1.5189,1.5209,0.0,0.0,0.0,0.0,0.0,0.0,0.0,0.0,0.0,0.0,0.0,0.0,0.0,0.0,0.0,1.5605,1.5391,1.5391,1.5391,1.5391,1.7588,2.6683,2.2117,0.0,0.0,0.0,0.0,0.0,0.0,0.0,3.1803,3.0278,2.9946,3.7334,4.4641,4.8547,4.6144,4.5797,4.6047,4.6721,4.6201,4.6047,4.6721,4.9144,5.0702,5.0702,5.0702,5.1337,5.2818,5.3087,5.3876,5.5376,5.5588,5.5703,5.5703,5.5703,5.4077,5.0903,5.2982,5.2437,4.9674,5.2091,5.3206,5.3041,4.9903,5.0325,5.2968,4.9829,5.038,5.323,5.3624,5.3814,5.3814,5.3814,5.3758,5.3663,0.0,0.0,0.0,0.0,0.0,0.0,0.0,0.0,0.0,0.0,0.0,0.0,0.0,0.0,0.0,0.0,0.0,0.0,0.0,0.0,0.0,0.0,0.0,0.0,0.0,1.5189,1.5657,1.658,1.733,1.8581,2.0292,1.9477,1.9054,1.8939,1.7311,1.6542,1.6445,1.558,1.5189,1.5209,1.5272,0.0,0.0,0.0,0.0,0.0,0.0,0.0,0.0,0.0,0.0,0.0,0.0,0.0,1.5488,1.543,1.5391,1.5391,1.5391,1.5391,1.6748,2.2345,1.9543,0.0,3.4739,2.6968,0.0,3.5224,0.0,3.2183,3.705,3.5737,3.6125,4.2853,4.4498,4.6196,4.974,5.024,5.026,5.0317,5.0279,5.026,5.0317,5.0548,5.0702,5.0702,5.0702,5.1087,5.1952,5.276,5.3626,5.4549,5.5299,5.5703,5.5703,5.5703,5.5355,5.4699,5.4527,5.409,5.3405,5.3249,5.3206,5.3188,5.2894,5.2949,5.3188,5.2894,5.2949,5.323,5.3624,5.3814,5.3814,5.3814,5.3565,5.323,0.0,0.0,0.0,0.0,0.0,0.0,0.0,0.0,0.0,0.0,0.0,0.0,0.0,0.0,0.0,0.0,0.0,0.0,0.0,0.0,0.0,0.0,0.0,1.5189,1.5189,1.5189,1.5868,1.7253,1.8638,1.9658,2.0292,1.94,0.0,1.8138,1.7003,1.6195,1.5676,1.5388,1.5547,1.5963,1.5547,1.5882,0.0,0.0,0.0,0.0,0.0,0.0,0.0,0.0,1.5859,1.5488,1.6035,1.584,1.5391,1.5391,1.5391,1.5391,1.5391,1.5762,1.8028,2.5894,2.1959,0.0,0.0,2.9085,2.4822,3.9991,3.4575,2.8096,3.1275,3.583,4.024,4.3808,4.6621,4.8894,5.0471,5.0702,5.0702,5.0702,5.0702,5.0702,5.0702,5.0702,5.0702,5.0702,5.0702,5.1048,5.1875,5.2741,5.3606,5.4472,5.528,5.5703,5.5703,5.5446,5.5237,5.5107,5.4671,5.4102,5.3422,5.3272,5.3206,5.3206,5.3206,5.3206,5.3206,5.3206,5.3206,5.3206,5.3359,5.3422,5.3422,5.3422,5.3336,5.3206,0.0,0.0,0.0,0.0,0.0,0.0,0.0,0.0,0.0,0.0,0.0,0.0,0.0,0.0,0.0,0.0,0.0,0.0,0.0,0.0,0.0,0.0,0.0,1.5189,1.5189,1.5465,1.6176,1.7311,1.9042,2.0023,2.0292,0.0,0.0,0.0,1.6984,1.6176,1.5618,1.5682,1.5867,1.6104,1.5886,1.6002,0.0,0.0,0.0,0.0,0.0,0.0,0.0,0.0,1.5703,1.5137,1.6016,1.5879,1.5391,1.5391,1.5405,1.5407,1.5407,1.5795,1.8169,2.6217,0.0,0.0,3.499,3.0544,2.7236,4.11,3.7054,3.1193,3.1782,3.7363,4.2313,4.3701,4.6605,4.9144,5.051,5.0702,5.0702,5.0702,5.0702,5.0702,5.0702,5.0702,5.0702,5.0702,5.0702,5.0933,5.1491,5.2337,5.3203,5.4068,5.4895,5.5371,5.5512,5.5256,5.496,5.4682,5.4401,5.3979,5.34,5.3272,5.3206,5.3206,5.3206,5.3206,5.3206,5.3206,5.3206,5.3206,5.3206,5.3206,5.3206,5.3206,5.3206,5.3206,0.0,0.0,0.0,0.0,0.0,0.0,0.0,0.0,0.0,0.0,0.0,0.0,0.0,0.0,0.0,0.0,0.0,0.0,0.0,0.0,0.0,0.0,0.0,1.5189,1.5189,1.6061,1.6522,1.6522,1.8184,1.9453,2.0292,1.94,0.0,0.0,1.7285,1.6535,1.6509,1.6592,1.6123,1.5388,1.6322,1.6187,1.5408,0.0,0.0,0.0,0.0,0.0,0.0,0.0,1.4824,1.4258,1.5137,1.5391,1.541,1.5469,1.5435,1.5413,1.5451,1.5446,1.6614,2.1662,0.0,0.0,3.4729,3.0879,2.7129,3.7226,4.2729,4.466,4.1078,4.1328,4.229,4.2989,4.3816,4.5855,5.0087,5.0702,5.0702,5.0702,5.0702,5.0702,5.0702,5.0702,5.0702,5.0702,5.0702,5.0683,5.0683,5.1452,5.2278,5.3144,5.403,5.4664,5.5088,5.5088,5.4652,5.3814,5.3814,5.3814,5.3777,5.3381,5.3206,5.3206,5.3206,5.3206,5.3206,5.3206,5.3206,5.3206,5.3206,5.3206,5.3206,5.3206,5.3206,5.3206,0.0,0.0,0.0,0.0,0.0,0.0,0.0,0.0,0.0,0.0,0.0,0.0,0.0,0.0,0.0,0.0,0.0,0.0,0.0,0.0,0.0,0.0,0.0,0.0,0.0,0.0,1.7645,1.8261,1.8761,1.9453,0.0,0.0,0.0,1.8145,0.0,0.0,1.5817,1.8235,1.8119,1.6262,1.5922,1.5995,1.6252,0.0,0.0,0.0,0.0,0.0,0.0,0.0,0.0,0.0,1.5312,1.5391,1.6113,1.9805,1.8277,1.6193,1.9823,1.8586,1.7491,2.2665,0.0,0.0,0.0,2.9864,0.0,0.0,4.0392,4.0232,3.6713,4.1678,4.5603,4.3451,4.6297,4.924,5.051,5.0702,5.0702,5.0702,5.0702,5.0702,5.0702,5.0702,5.0702,5.0702,5.0442,5.0272,5.0272,5.0818,5.1486,5.2322,5.3157,5.4077,5.5088,5.4478,5.4202,5.4288,5.3682,5.34,5.3381,5.3272,5.3206,5.3206,5.3206,5.3206,5.3206,5.3206,5.3206,5.3206,5.3206,5.3206,5.3206,5.3206,5.3206,5.3206,0.0,0.0,0.0,0.0,0.0,0.0,0.0,0.0,0.0,0.0,0.0,0.0,0.0,0.0,0.0,0.0,0.0,0.0,0.0,0.0,0.0,0.0,0.0,0.0,0.0,1.7176,1.8126,0.0,0.0,0.0,0.0,0.0,0.0,1.828,0.0,1.8645,1.6406,1.8177,1.8067,1.6646,1.6135,1.6016,1.6133,0.0,0.0,0.0,0.0,0.0,0.0,0.0,0.0,0.0,1.5293,0.0,1.871,1.9786,1.93,1.9097,2.2178,2.1099,2.0827,2.801,2.7201,2.5444,2.8599,3.0863,3.412,4.0545,4.186,4.1212,3.9119,4.3855,4.7451,4.5413,4.824,5.0702,5.0702,5.0702,5.0702,5.0702,5.0702,5.0702,5.0702,5.0702,5.0702,5.0702,5.0336,5.0092,5.0092,5.0212,5.0654,5.1514,5.2296,5.3169,5.411,5.3896,5.3851,5.3979,5.3422,5.3206,5.3206,5.3206,5.3206,5.3206,5.3206,5.3206,5.3206,5.3206,5.3206,5.3206,5.3206,5.3206,5.3206,5.3206,5.3206,5.3206,0.0,0.0,0.0,0.0,0.0,0.0,0.0,0.0,0.0,0.0,1.812,0.0,0.0,0.0,0.0,0.0,0.0,0.0,0.0,0.0,0.0,0.0,0.0,0.0,0.0,0.0,0.0,0.0,0.0,0.0,0.0,0.0,1.8761,1.8761,0.0,1.8005,1.7541,1.7262,1.6923,1.658,1.6589,1.6113,1.5391,1.5391,0.0,0.0,0.0,0.0,0.0,0.0,0.0,0.0,1.5156,1.8652,2.1658,1.7368,1.9386,2.3086,2.3496,2.3323,2.5244,3.4526,3.113,2.7037,3.2899,3.3846,3.5795,4.3932,4.5297,4.5124,4.5528,4.6913,4.8009,4.8086,4.949,5.0606,5.0683,5.0702,5.0702,5.0702,5.0702,5.0702,5.0702,5.0702,5.0683,5.0663,5.0272,5.0043,4.9999,4.9589,4.9781,5.0659,5.1412,5.2029,5.2602,5.3293,5.3491,5.3272,5.3206,5.3206,5.3206,5.3206,5.3206,5.3206,5.3206,5.3206,5.3206,5.3206,5.3206,5.3206,5.3206,5.3206,5.3206,5.3206,5.3206,5.3206,0.0,0.0,0.0,0.0,0.0,0.0,0.0,0.0,0.0,0.0,0.0,0.0,0.0,0.0,0.0,0.0,0.0,0.0,0.0,0.0,0.0,0.0,0.0,0.0,0.0,0.0,0.0,0.0,0.0,0.0,0.0,0.0,0.0,1.7176,0.0,1.958,1.6052,1.9256,1.8703,1.5674,1.5683,1.5566,1.5391,1.5391,1.5391,0.0,0.0,0.0,0.0,0.0,0.0,0.0,1.5332,1.6172,1.7656,2.0581,2.218,2.3869,2.7941,2.6492,2.4532,2.7409,2.722,2.9244,4.0385,4.0312,3.9411,4.468,4.3044,4.1662,4.4989,4.6451,4.7355,4.8009,4.899,4.9913,5.0587,5.0702,5.0702,5.0702,5.0702,5.0702,5.0702,5.0702,5.0565,5.0249,4.9872,4.9504,4.9171,4.8779,4.8975,4.9825,5.0028,5.0917,5.2602,5.2469,5.2816,5.3663,5.3359,5.3206,5.3206,5.3206,5.3206,5.3206,5.3206,5.3206,5.3206,5.3206,5.3206,5.3206,5.3206,5.3206,5.3206,5.3206,5.3206,5.3206,0.0,0.0,0.0,0.0,0.0,0.0,0.0,0.0,0.0,0.0,0.0,0.0,0.0,0.0,0.0,0.0,0.0,0.0,0.0,0.0,0.0,0.0,0.0,0.0,0.0,0.0,0.0,0.0,0.0,0.0,0.0,0.0,0.0,1.7176,0.0,1.9008,1.6661,1.8492,1.8013,1.5996,1.5566,1.5391,1.5391,1.5391,1.5391,1.5391,1.5391,0.0,0.0,0.0,0.0,0.0,0.0,0.0,1.918,1.9355,2.1146,2.3705,2.6726,2.7357,2.7948,3.1252,3.3884,3.6911,4.1527,4.245,4.2951,4.5257,4.3893,4.2989,4.5182,4.6317,4.7048,4.7471,4.8586,4.9548,5.001,5.0433,5.0702,5.0702,5.0702,5.0702,5.0702,5.0702,5.0544,5.0135,4.9719,4.9326,4.893,4.8513,4.8508,4.8948,4.937,5.0096,5.1139,5.1735,5.2342,5.2932,5.3111,5.3206,5.3206,5.3206,5.3206,5.3206,5.3206,5.3206,5.3206,5.3206,5.3206,5.3206,5.3206,5.3206,5.3206,5.3206,5.3206,5.3206,0.0,0.0,0.0,0.0,0.0,0.0,0.0,0.0,0.0,0.0,0.0,0.0,0.0,0.0,0.0,0.0,0.0,0.0,0.0,0.0,0.0,0.0,0.0,0.0,0.0,0.0,0.0,0.0,0.0,0.0,0.0,0.0,0.0,1.835,0.0,1.8169,1.7628,1.6928,1.6562,1.6426,1.5859,1.5625,1.5625,1.5625,1.5625,1.5605,1.5449,1.5391,1.5391,1.5391,0.0,0.0,0.0,0.0,2.0996,1.668,1.9048,2.3207,2.376,2.723,3.2087,3.7862,4.1373,4.2874,4.0854,4.2527,4.472,4.5451,4.5586,4.5586,4.5586,4.6182,4.6721,4.6894,4.8182,4.9221,4.9375,5.0144,5.0702,5.0702,5.0702,5.0702,5.0702,5.0702,5.0544,5.0135,4.9719,4.9326,4.893,4.8513,4.8306,4.8306,4.9003,4.9426,4.9591,5.0912,5.172,5.1995,5.2821,5.3206,5.3206,5.3206,5.3206,5.3206,5.3206,5.3206,5.3206,5.3206,5.3206,5.3206,5.3206,5.3206,5.3206,5.3206,5.3206,5.3206,0.0,0.0,0.0,0.0,0.0,0.0,0.0,0.0,0.0,0.0,1.5546,0.0,0.0,0.0,0.0,0.0,0.0,0.0,0.0,0.0,0.0,0.0,1.6445,0.0,0.0,0.0,0.0,0.0,0.0,0.0,0.0,0.0,0.0,2.1004,0.0,0.0,1.6771,1.6719,1.6269,1.5625,1.6269,1.6523,1.6523,1.6523,1.6523,1.6426,1.5664,1.5391,1.5391,1.5391,1.5391,0.0,0.0,0.0,1.6309,1.5605,1.9002,2.304,2.3122,0.0,3.2792,3.8005,3.693,3.6372,4.3201,4.2354,4.1181,4.4836,4.5586,4.5586,4.5586,4.5701,4.6009,4.6778,4.7682,4.8548,4.9298,5.0144,5.0702,5.0702,5.0702,5.0702,5.0702,5.0702,5.0544,5.0135,4.9719,4.9326,4.893,4.8513,4.8306,4.8306,4.8416,4.8838,4.9572,4.9793,5.06,5.1995,5.2821,5.3206,5.3206,5.3206,5.3206,5.3206,5.3206,5.3206,5.3206,5.3206,5.3206,5.3206,5.3206,5.3206,5.3206,5.3206,5.3206,5.3206,0.0,0.0,0.0,0.0,0.0,0.0,0.0,0.0,0.0,0.0,0.0,1.4965,0.0,0.0,0.0,0.0,0.0,0.0,0.0,0.0,0.0,1.6465,1.6503,1.6445,1.6292,0.0,0.0,0.0,0.0,0.0,0.0,2.3601,2.3254,0.0,0.0,0.0,0.0,1.9347,1.8603,1.6152,1.6543,1.6973,1.7322,1.6867,1.668,1.6523,1.5703,1.5391,1.5391,1.5391,1.5391,1.5391,1.5391,0.0,0.0,0.0,1.6992,1.9986,2.5658,2.7669,3.0534,4.038,3.7815,3.5122,4.3662,4.2316,4.0489,4.472,4.5586,4.5586,4.5586,4.5586,4.572,4.6105,4.6874,4.7721,4.8548,4.9217,4.9906,5.0606,5.0504,5.0442,5.0683,5.0702,5.0544,5.0135,4.9719,4.9326,4.893,4.8513,4.8306,4.8306,4.8306,4.8489,4.8857,4.9352,5.0178,5.1334,5.2142,5.2527,5.2546,5.3004,5.3206,5.3206,5.3206,5.3206,5.3206,5.3206,5.3206,5.3206,5.3206,5.3206,5.3206,5.3206,5.3206,5.3206,0.0,0.0,0.0,0.0,0.0,0.0,0.0,0.0,0.0,0.0,0.0,0.0,0.0,0.0,0.0,0.0,0.0,0.0,0.0,0.0,0.0,1.6465,1.6503,1.6195,1.5541,0.0,0.0,0.0,0.0,0.0,2.4361,2.612,2.6024,0.0,2.7467,2.5793,0.0,0.0,0.0,1.832,1.8513,1.8454,1.816,1.7543,1.729,1.7103,1.607,1.5702,1.5664,1.5469,1.5391,1.5391,1.5391,1.5391,0.0,0.0,0.0,1.7338,2.6193,2.6738,2.7567,3.9165,3.6498,3.2985,4.0627,3.9931,3.8873,4.3104,4.4836,4.5586,4.5586,4.5586,4.5586,4.5586,4.6336,4.7105,4.7721,4.8466,4.9261,5.012,5.0243,5.0336,5.0544,5.0624,5.0584,5.0272,4.9773,4.9356,4.9075,4.8568,4.8306,4.8306,4.8306,4.8306,4.8306,4.915,4.9845,5.025,5.1257,5.1734,5.1791,5.2559,5.2901,5.2937,5.3103,5.3206,5.3206,5.3206,5.3206,5.3206,5.3206,5.3206,5.3206,5.3206,5.3206,5.3206,0.0,0.0,0.0,0.0,0.0,0.0,0.0,0.0,0.0,0.0,0.0,0.0,0.0,0.0,0.0,1.5189,1.5189,1.5209,1.5266,1.5228,1.5599,1.6465,1.6503,0.0,1.6426,1.6484,0.0,0.0,0.0,0.0,2.1793,2.5909,2.8159,2.8736,2.8198,2.8211,2.8364,0.0,0.0,0.0,0.0,2.1934,1.912,1.902,1.8968,1.8753,1.7115,1.6548,1.6426,1.5664,1.5391,1.5391,1.5391,1.5391,1.5391,0.0,0.0,0.0,2.1933,2.3262,2.4631,3.0873,2.9072,2.7153,3.2378,3.3391,3.4449,3.8738,4.2797,4.5586,4.5586,4.5586,4.5586,4.5586,4.6336,4.6913,4.6971,4.8337,4.9238,4.8938,4.9963,5.0544,5.0159,5.0483,5.0683,5.0663,4.9949,4.9475,4.9475,4.8728,4.8306,4.8306,4.8306,4.8306,4.8306,4.915,4.9295,4.871,5.0172,5.0939,5.1058,5.1749,5.2101,5.2224,5.2893,5.3206,5.3206,5.3206,5.3206,5.3206,5.3206,5.3206,5.3206,5.3206,5.3206,5.3206,0.0,0.0,0.0,0.0,0.0,0.0,0.0,0.0,0.0,0.0,0.0,0.0,0.0,1.4862,1.4978,1.442,1.4882,1.5445,1.6003,1.5503,1.5599,1.6465,1.5965,1.5676,1.5676,1.5676,0.0,0.0,0.0,1.7907,2.1562,2.4216,2.6765,2.9294,3.393,3.1936,2.5358,2.9309,0.0,0.0,2.6533,2.5386,2.015,2.2369,2.3179,2.2645,1.8757,1.878,2.0195,1.7183,1.582,1.5391,1.5391,1.5391,1.5391,1.5391,1.5391,1.6504,2.1621,2.0987,2.0823,2.8906,2.6092,2.3244,3.0491,3.2531,3.3333,3.4872,4.0739,4.4759,4.2047,4.3758,4.5586,4.5586,4.5855,4.6259,4.6817,4.7183,4.7848,4.9043,4.9129,4.9365,5.0035,5.0019,5.0043,5.0313,4.7186,4.6515,4.9343,4.6294,4.5626,4.8233,4.8306,4.8306,4.8306,4.8618,4.8433,4.7836,4.8883,4.9409,4.9486,5.025,5.086,5.1274,5.1599,5.1754,5.1892,5.2335,5.249,5.2554,5.2999,5.3206,5.3206,5.3206,5.3206,5.3206,0.0,0.0,0.0,0.0,0.0,0.0,0.0,0.0,0.0,0.0,0.0,0.0,0.0,0.0,1.4978,1.4382,1.4862,1.5445,1.6022,1.5522,1.5465,1.6042,1.5503,1.5189,1.5189,1.5189,0.0,0.0,0.0,0.0,0.0,2.2725,2.5014,2.7689,3.3622,3.2833,0.0,0.0,3.136,2.4624,2.9725,2.8878,2.4658,2.5542,2.5842,2.551,2.3276,2.3003,2.3499,2.1826,1.9777,1.7925,1.7949,1.6777,1.5391,1.5391,1.5391,1.6133,1.9531,1.8379,1.7827,2.4589,2.2219,1.9947,2.64,3.0282,3.2569,3.2833,3.9662,4.4739,4.1931,4.3701,4.5586,4.5586,4.5586,4.5797,4.6374,4.6493,4.6967,4.822,4.8134,4.8363,4.9366,4.9229,4.9315,4.9879,4.6817,4.6183,4.9145,4.6135,4.5553,4.8233,4.8306,4.8306,4.8306,4.8306,4.7995,4.7403,4.7926,4.8235,4.8326,4.9073,4.9665,5.0123,5.0171,5.0515,5.1069,5.1796,5.2112,5.2159,5.2893,5.3206,5.3206,5.3206,5.3206,5.3206,0.0,0.0,0.0,0.0,0.0,0.0,0.0,0.0,0.0,0.0,0.0,0.0,0.0,0.0,0.0,1.5189,1.5189,1.5189,1.5189,1.5189,1.5189,1.5189,1.5189,1.5189,1.5189,1.5234,0.0,0.0,0.0,0.0,0.0,0.0,2.3129,2.4014,2.6621,3.0525,3.5238,3.6257,3.6535,3.6026,3.3242,3.2321,3.2201,2.8403,2.6802,2.7033,3.0494,2.9082,2.6094,2.9418,2.7122,2.2896,2.279,1.9375,1.5391,1.5391,1.5391,0.0,0.0,0.0,0.0,1.7422,1.7207,1.7236,1.9639,2.6034,3.1711,3.2506,3.945,4.5374,4.5413,4.5509,4.5586,4.5586,4.5586,4.5586,4.5586,4.6336,4.6743,4.6358,4.7064,4.7748,4.8136,4.824,4.8598,4.9409,4.8977,4.8766,4.8878,4.8513,4.8306,4.8306,4.8306,4.8306,4.8306,4.8306,4.7977,4.7385,4.7385,4.7474,4.7647,4.8227,4.8593,4.8763,4.8732,4.9501,5.0839,5.1651,5.1975,5.204,5.2802,5.3091,5.3091,5.3133,5.3151,5.317,0.0,0.0,0.0,0.0,0.0,0.0,0.0,0.0,0.0,0.0,0.0,0.0,0.0,0.0,1.4516,1.5132,1.5189,1.5189,1.5189,1.5189,1.5214,1.5272,1.5234,1.5214,1.5272,1.5848,0.0,0.0,0.0,0.0,0.0,0.0,0.0,0.0,2.3456,2.5938,2.7659,3.4007,3.1751,2.4974,3.6935,3.4471,2.4454,3.2352,3.1656,2.6967,3.081,3.124,3.0105,3.1047,2.761,2.2253,1.8592,1.6496,0.0,1.5391,1.5391,0.0,1.5391,0.0,0.0,0.0,0.0,0.0,1.748,2.207,2.6429,2.7287,3.4208,4.0296,4.0931,4.3528,4.5586,4.5586,4.5586,4.5586,4.5586,4.5797,4.6164,4.6666,4.6674,4.6957,4.7699,4.7843,4.8065,4.8532,4.5791,4.5497,4.8747,4.8513,4.8306,4.8306,4.8306,4.8306,4.8306,4.8306,4.7738,4.6664,4.6664,4.6459,4.6114,4.6297,4.6891,4.7788,4.7392,4.7694,4.8519,4.8833,4.8995,4.9098,5.0261,5.0722,5.0784,5.1302,5.183,5.2325,0.0,0.0,0.0,0.0,0.0,0.0,0.0,0.0,0.0,0.0,0.0,0.0,0.0,0.0,0.0,1.5151,1.5189,1.5189,1.5189,1.5234,1.5407,1.5784,1.5787,1.5966,1.638,1.6832,0.0,0.0,0.0,0.0,0.0,0.0,0.0,0.0,0.0,0.0,0.0,2.8948,3.0006,2.7698,3.6539,3.6233,3.1066,3.6444,3.5514,3.1874,3.6159,3.6362,3.4906,3.6849,3.2628,2.5996,2.2688,1.9001,1.6259,1.8045,1.707,0.0,0.0,0.0,0.0,1.5859,0.0,0.0,1.741,2.2392,2.7092,2.83,3.5273,4.0777,3.9527,4.1296,4.297,4.297,4.297,4.3585,4.5336,4.5586,4.5778,4.6297,4.603,4.6123,4.698,4.6788,4.7023,4.7909,4.5694,4.555,4.8473,4.8421,4.8306,4.8306,4.8306,4.8172,4.7937,4.8172,4.7797,4.6801,4.6524,4.6192,4.5865,4.5597,4.5883,4.6607,4.6304,4.636,4.67,4.6565,4.701,4.7925,4.9012,4.9567,4.9856,5.0216,5.0835,5.1499,0.0,0.0,0.0,0.0,0.0,0.0,0.0,0.0,0.0,0.0,0.0,0.0,0.0,0.0,0.0,0.0,1.5055,1.5055,1.508,1.5214,0.0,1.6341,1.6425,1.6813,1.7611,1.7723,0.0,0.0,0.0,0.0,0.0,0.0,0.0,0.0,0.0,0.0,0.0,2.2793,2.939,3.6531,3.4075,3.7338,4.3316,4.0066,3.8305,3.8192,4.3247,4.2328,3.9395,4.3401,3.9259,3.2083,3.0337,2.4102,1.8078,2.1312,1.9081,0.0,0.0,0.0,0.0,1.6387,1.6113,0.0,1.8231,2.4012,2.9506,3.1411,3.7828,4.2091,3.8904,3.8304,3.8315,3.833,3.8392,3.9954,4.4278,4.5297,4.5432,4.4951,4.5055,4.5445,4.6148,4.5685,4.5917,4.7383,4.7257,4.7462,4.8269,4.8306,4.8306,4.8306,4.8229,4.7937,4.7385,4.7937,4.7897,4.7281,4.6664,4.6383,4.6288,4.5699,4.5459,4.5511,4.5407,4.5459,4.5459,4.4869,4.573,4.7521,4.8219,4.8859,4.9343,4.9388,4.9912,5.0574,1.4118,0.0,0.0,0.0,0.0,0.0,0.0,0.0,0.0,0.0,0.0,0.0,0.0,0.0,0.0,0.0,1.4176,1.4176,1.422,1.4893,1.5388,1.5605,1.5579,1.5667,1.5889,1.6584,0.0,0.0,0.0,0.0,0.0,0.0,0.0,0.0,0.0,0.0,0.0,2.0554,2.4197,2.9329,3.5141,3.6369,3.5302,4.0779,3.8915,3.4373,4.1973,4.2326,3.9215,3.9415,3.8272,3.5438,2.7768,2.4111,2.2008,1.8728,1.709,1.6211,1.5586,1.5874,1.6245,1.5774,1.6543,0.0,1.6326,1.7829,2.0442,2.417,2.6218,2.8335,3.1602,3.221,3.2231,3.222,3.2756,3.4894,3.9838,4.3451,4.4335,4.0931,4.3475,4.5552,4.5725,4.5957,4.6095,4.6158,4.6731,4.7462,4.8269,4.8306,4.8306,4.8306,4.7838,4.753,4.7385,4.753,4.7237,4.6618,4.6478,4.6161,4.5648,4.5052,4.5052,4.5459,4.4998,4.5052,4.5459,4.4869,4.4851,4.5295,4.5909,4.6236,4.642,4.6873,4.7922,4.9021,1.4138,0.0,0.0,0.0,0.0,0.0,0.0,0.0,0.0,0.0,0.0,0.0,0.0,0.0,0.0,0.0,0.0,0.0,0.0,0.0,1.5567,1.6027,1.6013,1.6224,1.6699,1.7125,0.0,0.0,0.0,0.0,0.0,0.0,0.0,0.0,0.0,0.0,0.0,1.9465,2.2331,2.7108,3.2953,3.526,3.581,4.1571,4.1297,3.8393,4.2726,4.3388,4.1817,3.9458,3.8642,3.7834,3.3141,2.8464,2.413,2.1163,1.8509,1.6378,1.5566,1.5647,1.5961,1.5982,1.6323,0.0,0.0,1.8271,2.0681,2.364,2.555,2.6963,2.7829,2.7647,2.7354,2.7358,2.8019,2.9294,3.1431,3.7916,4.245,4.2431,4.4297,4.5586,4.5586,4.5666,4.5651,4.5519,4.6141,4.6856,4.7664,4.7719,4.7902,4.8306,4.7995,4.7554,4.691,4.7237,4.691,4.5965,4.5965,4.5783,4.5459,4.4869,4.4776,4.5035,4.472,4.4759,4.5052,4.472,4.4587,4.4626,4.4961,4.5232,4.5563,4.5833,4.6583,4.75,1.4167,0.0,0.0,0.0,0.0,0.0,0.0,0.0,0.0,0.0,0.0,0.0,0.0,0.0,0.0,0.0,0.0,0.0,1.5364,1.6135,1.6582,1.6455,1.6459,1.6789,1.7472,1.7497,1.7146,0.0,0.0,0.0,0.0,0.0,0.0,0.0,0.0,0.0,0.0,2.0465,2.3312,2.8115,3.1749,3.4663,3.7333,4.1957,4.3107,4.2437,4.3722,4.4638,4.4591,4.0636,3.9296,3.9161,3.8334,3.2314,2.5389,2.457,2.0845,1.6827,1.6006,1.5908,1.6124,1.6502,1.6342,1.6334,0.0,0.0,0.0,2.3305,2.5707,2.6779,2.4043,2.2977,2.2566,2.273,2.3287,2.3798,2.4082,3.1191,3.7632,4.1062,4.245,4.3085,4.2931,4.3484,4.4275,4.5249,4.5586,4.6102,4.6838,4.704,4.7407,4.8067,4.8098,4.7554,4.643,4.6955,4.6635,4.5511,4.5511,4.5511,4.5459,4.4869,4.4587,4.4587,4.4587,4.4587,4.4587,4.4587,4.4587,4.4587,4.4587,4.4906,4.532,4.532,4.5681,4.624,1.4115,1.4616,0.0,0.0,0.0,0.0,0.0,0.0,0.0,0.0,0.0,0.0,2.1796,1.8173,1.6922,2.0737,2.0357,1.8626,1.559,1.8968,1.9409,1.5718,1.5559,1.5598,1.5699,1.5644,1.5563,0.0,0.0,0.0,0.0,0.0,0.0,0.0,1.9049,0.0,0.0,2.5754,2.8236,3.2519,3.6382,3.5514,3.2842,4.1273,4.1668,3.837,4.3236,4.5222,4.4897,4.0719,3.9296,3.8642,3.4834,3.0333,2.6294,2.5418,2.2139,1.8621,1.7754,1.8082,1.835,1.6946,1.7639,1.8153,1.6132,0.0,1.7246,1.6679,0.0,1.7006,1.6614,0.0,0.0,1.7423,1.7578,1.9134,2.3577,2.5127,2.6006,2.6487,3.116,3.4064,3.3353,3.7003,4.119,4.5432,4.5455,4.549,4.603,4.6728,4.715,4.7241,4.7393,4.715,4.643,4.6478,4.6143,4.5511,4.5511,4.5511,4.5459,4.4869,4.4587,4.4587,4.4587,4.4587,4.4587,4.4587,4.4587,4.4587,4.4587,4.4626,4.472,4.472,4.5089,4.5597,1.443,1.4878,0.0,0.0,0.0,0.0,0.0,0.0,0.0,0.0,0.0,1.7754,2.1934,2.0458,2.0882,2.5148,2.5201,2.4429,2.2976,2.2207,0.0,1.9195,1.6682,1.5338,1.533,1.5313,1.555,0.0,1.6043,0.0,0.0,0.0,0.0,0.0,1.9607,2.2376,2.6672,2.61,2.8582,3.2994,3.4165,3.3374,3.2416,4.1249,4.3271,4.138,4.1184,4.2914,4.4327,3.7771,3.8873,4.1777,3.5026,3.1679,3.0083,2.9256,2.4274,1.9396,2.102,2.1716,2.1938,2.1705,2.1478,2.1152,2.0573,1.8084,1.5939,1.6077,0.0,0.0,0.0,0.0,0.0,0.0,1.631,1.7171,1.8854,1.9862,2.2282,2.7234,2.9963,3.2487,3.5103,3.4713,3.6311,4.1203,4.0651,4.0577,4.1644,4.4268,4.6159,4.7095,4.7177,4.7161,4.6999,4.6618,4.6112,4.5511,4.5142,4.4998,4.4944,4.472,4.4587,4.4587,4.4587,4.4587,4.4587,4.4587,4.4587,4.4587,4.4587,4.4587,4.4587,4.4587,4.4759,4.5052,1.4281,0.0,0.0,0.0,0.0,0.0,0.0,0.0,1.6868,1.7099,1.7671,1.9551,2.3457,2.2051,2.2923,2.8123,2.8623,2.8652,2.8652,2.5478,2.3576,2.3537,1.8476,1.6193,1.7368,1.6458,1.6266,0.0,0.0,0.0,0.0,0.0,0.0,0.0,1.9741,2.2362,2.6391,2.7119,3.0213,3.4699,3.5187,3.5324,3.5783,4.0767,4.3564,4.4455,4.1241,4.2316,4.4153,3.7045,3.8757,4.2777,3.6603,3.3853,3.3026,3.3603,2.8563,2.336,2.5842,2.6515,2.6255,2.5236,2.4083,2.2959,2.1914,1.8547,1.5742,1.6161,1.5928,0.0,0.0,0.0,1.5487,1.5729,0.0,1.6159,1.5799,1.6556,1.9432,2.5599,2.7723,3.0121,3.3833,3.2417,3.2697,3.6176,3.6507,3.7082,3.8315,4.2396,4.5259,4.6434,4.6893,4.7083,4.706,4.6603,4.6112,4.5511,4.4906,4.4587,4.4587,4.4587,4.4587,4.4587,4.4587,4.4587,4.4587,4.4587,4.4587,4.4587,4.4587,4.4587,4.4587,4.4587,4.4587,4.4682,1.3356,1.3021,0.0,0.0,1.3325,0.0,1.3994,1.7557,2.0537,2.1402,2.1513,2.3477,2.8594,2.2559,2.1211,2.8887,2.9551,2.9551,2.9551,2.8633,2.8024,2.7903,2.0604,1.8467,2.2575,1.9346,1.7638,1.7657,0.0,0.0,0.0,0.0,0.0,0.0,1.9229,2.1555,2.5757,3.0674,3.5211,3.9415,4.3158,4.4482,4.3706,3.9388,4.0997,4.5494,4.5048,4.5168,4.4932,4.0566,3.9277,3.945,3.9181,3.6238,3.3718,3.7853,3.5911,3.2487,3.2583,3.2622,3.1256,2.5572,2.4091,2.2579,1.6875,1.6042,1.6247,1.5509,1.5994,1.6328,1.5584,1.5424,1.5673,1.6517,1.5974,0.0,0.0,1.5985,1.5547,1.5753,2.0826,2.436,2.4536,2.8867,3.1541,3.1184,3.4776,3.7138,3.7537,4.2084,4.4727,4.4782,4.6305,4.6809,4.6248,4.6354,4.6112,4.5511,4.4906,4.4587,4.4587,4.4587,4.4587,4.4587,4.4587,4.4587,4.4587,4.4587,4.4587,4.4587,4.4587,4.4587,4.4587,4.4587,4.4587,4.457,0.0,0.0,0.0,1.3944,1.3984,1.3863,1.3915,1.569,1.8156,2.1302,2.2249,2.5248,3.2166,3.0605,3.0332,3.3555,3.5957,3.6284,3.3926,3.3456,3.3203,3.3062,2.8345,2.5081,2.3717,2.1957,2.0254,1.8554,1.7984,0.0,0.0,0.0,0.0,0.0,0.0,2.0921,2.5693,3.0218,3.4924,3.9411,4.0735,4.1185,4.1151,4.1612,4.3114,4.4877,4.4508,4.4612,4.4296,4.0013,4.0469,4.2357,3.9738,3.7903,3.7613,4.2132,3.845,3.3526,3.6353,3.7142,3.6661,3.4661,3.1179,2.7755,2.5755,2.0727,1.6266,1.5407,1.5932,1.6285,1.5484,1.5334,1.5433,1.5774,1.5589,1.5491,0.0,1.5586,1.5387,1.5373,1.7607,2.0231,2.3041,2.222,2.3018,2.6658,2.747,2.8307,2.9425,3.6119,4.0175,4.0726,4.3846,4.5645,4.6006,4.573,4.5511,4.5291,4.4795,4.4587,4.4587,4.4587,4.4587,4.4587,4.4587,4.4587,4.4587,4.4587,4.4587,4.4587,4.4587,4.4587,4.4587,4.4587,4.4587,4.472,1.3251,1.2547,1.2909,1.3906,1.3946,1.4456,1.6317,1.7388,1.9946,2.5488,2.5671,2.7695,3.399,3.356,3.3544,3.5371,3.6992,3.801,3.8178,3.4411,3.4012,3.8113,3.209,2.8752,2.9044,2.5832,2.4082,2.3938,2.0062,1.9215,0.0,0.0,0.0,0.0,0.0,1.9335,2.3057,2.9159,3.3782,3.7142,3.853,3.985,4.1045,4.1538,4.3033,4.4732,4.4346,4.4373,4.4183,4.1393,4.2304,4.4159,4.1598,4.0789,4.1364,4.4359,4.1436,3.7846,4.0607,4.1443,4.1104,3.9277,3.5949,3.2641,3.0802,2.5986,2.1658,2.0792,2.1293,2.1193,1.8854,1.8197,1.753,1.6054,1.5599,1.5409,0.0,1.5391,1.5409,1.5391,1.746,1.9227,2.0115,1.9262,1.9516,2.1599,2.2645,2.3708,2.4907,3.2926,3.7734,3.8267,4.2451,4.4947,4.548,4.5036,4.4933,4.5198,4.4473,4.4316,4.4587,4.4587,4.4587,4.4587,4.4587,4.4587,4.4587,4.4587,4.4587,4.4587,4.4587,4.4587,4.4587,4.4587,4.4587,4.472,1.3941,1.3309,1.3131,1.2554,1.3456,1.5914,2.0754,2.237,2.5717,3.3164,3.1468,3.0869,3.4338,3.1913,3.1276,3.4368,3.3203,3.5017,4.1421,3.2085,3.1347,4.2761,3.2428,3.0068,3.7892,3.091,2.9044,3.2891,2.3726,2.1304,0.0,0.0,0.0,0.0,1.6509,1.6979,1.831,2.773,3.2321,3.3519,3.7007,4.0552,4.333,3.9296,4.081,4.5052,4.4682,4.4553,4.4553,4.4553,4.4553,4.4553,4.4572,4.4553,4.458,4.458,4.4825,4.5074,4.5074,4.5322,4.4395,3.9569,3.8166,3.6738,3.1891,3.1256,3.1448,3.0571,3.1102,3.0213,2.5313,2.3586,2.1572,1.7549,1.6067,1.5403,1.5408,1.5391,1.5391,1.5391,1.9687,2.0707,1.5785,1.9668,2.0719,1.6413,2.0337,2.331,2.4154,3.2254,3.7048,3.7507,4.1754,4.4232,4.4654,4.405,4.419,4.5092,4.3889,4.3775,4.4519,4.4519,4.4536,4.4587,4.4587,4.4587,4.4587,4.4587,4.4587,4.4587,4.4587,4.4587,4.4587,4.4587,4.4587,4.457,1.4051,1.338,1.3411,1.33,1.6723,1.9939,2.1284,2.4389,2.7566,3.0266,3.2066,3.3938,3.6144,3.7839,3.7424,3.3887,3.5488,3.6307,3.5441,3.5666,3.8301,4.3778,4.1703,3.9954,3.8988,3.6411,3.4353,3.2891,2.6101,2.3351,2.4293,0.0,0.0,0.0,0.0,1.6421,1.8359,2.7113,3.3473,3.7469,3.5264,3.6859,4.0368,3.8965,4.119,4.4988,4.4106,4.3791,4.3791,4.3791,4.3791,4.3823,4.4076,4.4146,4.4204,4.4501,4.4657,4.4751,4.4751,4.4966,4.4916,4.3616,4.0626,3.7661,3.6353,3.3795,3.1448,3.0571,3.1102,3.1095,2.9145,2.5523,2.2489,2.1443,1.7975,1.5401,1.539,1.5391,1.5391,1.5391,1.6559,1.6805,1.5435,1.6297,1.6725,1.613,1.715,1.9666,2.397,2.6423,3.0696,3.7305,3.5734,3.7698,4.3754,4.0441,4.0317,4.3483,4.2842,4.298,4.3724,4.3724,4.4028,4.4587,4.4587,4.4587,4.4587,4.4587,4.4587,4.4587,4.4587,4.4587,4.4587,4.4587,4.4587,4.4682,1.4386,1.4405,1.4905,1.4654,2.0342,2.4739,2.4167,2.7201,3.0783,3.4191,3.5476,3.7017,3.9526,4.1454,4.1261,3.795,3.6977,3.6978,3.7967,3.608,3.7911,4.4586,4.3566,4.172,3.9354,3.8815,3.7623,3.5699,2.792,2.5053,2.6697,0.0,0.0,0.0,0.0,1.6028,1.7841,2.7132,3.4251,3.9095,3.6708,3.8193,0.0,3.949,4.1273,4.4781,4.4194,4.3868,4.3693,4.3548,4.3497,4.3548,4.3726,4.3772,4.3836,4.4065,4.4223,4.4318,4.4318,4.4587,4.4919,4.5074,4.3081,4.1144,4.13,3.9469,3.7642,3.7142,3.743,3.7065,3.4718,2.9813,2.4685,2.0293,1.7222,1.5391,1.5391,1.7344,1.793,1.5664,1.7377,1.7814,1.5524,1.5107,1.5153,1.5588,1.5847,1.733,2.0409,2.4635,2.8421,3.1593,3.322,3.5385,3.8175,3.5377,3.6086,4.0264,3.9637,4.0629,4.2929,4.2929,4.3335,4.4079,4.4079,4.4265,4.4587,4.4587,4.4587,4.4587,4.4587,4.4587,4.4587,4.4587,4.4587,4.4626,1.448,1.5345,1.6518,1.6496,2.3273,2.865,2.8461,3.1058,3.4961,4.0271,3.9673,3.9805,4.2563,4.3162,4.3261,4.3035,3.8166,3.7621,4.3588,3.5633,3.5133,4.5163,4.2066,4.0123,4.0123,4.0123,4.0123,4.0123,2.9921,2.6794,3.0167,0.0,0.0,0.0,0.0,1.642,1.8893,2.739,3.4214,3.9339,3.9389,4.1387,4.4015,4.0826,4.1749,4.4751,4.4682,4.4373,4.3955,4.3679,4.3548,4.3497,4.3497,4.3497,4.3497,4.3497,4.3693,4.3924,4.3924,4.4204,4.458,4.4877,4.503,4.518,4.5476,4.5568,4.5586,4.5586,4.5586,4.447,4.0796,3.4885,2.747,1.7983,1.5958,1.5585,1.5701,1.9957,2.1207,1.6151,1.9951,0.0,1.5796,1.5164,1.5068,1.4988,1.5597,1.6175,1.6667,2.43,2.7555,2.5052,3.2082,3.4734,3.221,3.0884,3.268,3.7541,3.614,3.7821,4.2151,4.2151,4.2557,4.3267,4.3267,4.3707,4.4418,4.4418,4.4485,4.4587,4.4587,4.4587,4.4587,4.4587,4.4587,4.4587,1.2931,1.339,1.566,1.9029,2.2361,2.6664,3.2878,3.7455,3.9719,3.8366,4.0272,4.1301,4.0127,4.247,4.3278,4.12,4.0023,3.9908,4.1123,3.9527,4.0642,4.5374,4.4874,4.4489,4.4489,4.4489,4.4489,4.4489,3.4295,2.9679,3.0167,1.9958,0.0,0.0,0.0,2.0023,2.8061,2.7098,3.1656,3.9539,3.9451,3.9807,4.0684,4.3361,4.4823,4.54,4.5118,4.4587,4.3986,4.3924,4.3726,4.3497,4.3497,4.3497,4.3497,4.3497,4.3548,4.3597,4.3597,4.3836,4.4117,4.4175,4.4638,4.5137,4.5161,4.54,4.5586,4.5586,4.5586,4.5355,4.4624,3.7352,2.9516,2.3528,1.9095,1.662,1.7284,2.0588,2.1307,1.6906,2.0243,2.0905,1.5792,1.5139,1.5007,1.4995,1.5125,1.6857,2.0645,2.0052,2.2532,2.8943,2.8081,3.0399,3.6387,3.2295,3.3793,4.0919,3.6672,3.7043,4.139,4.139,4.1796,4.2489,4.2489,4.2912,4.3623,4.3623,4.3995,4.4587,4.4587,4.4587,4.4587,4.4587,4.4587,4.4587,1.7284,1.6287,1.6608,1.9003,2.3528,2.8194,3.2334,3.8561,4.224,4.0715,4.2455,4.3521,4.2665,4.4008,4.447,4.3239,4.1508,4.1239,4.3028,4.147,4.2027,4.5451,4.5586,4.4566,4.2374,4.447,4.4528,4.2316,3.4314,3.0398,3.0167,1.9958,1.5189,1.5311,1.8042,2.2269,2.7542,3.0877,3.5137,3.9828,4.1927,4.275,4.2925,4.4872,4.5586,4.5586,4.5419,4.5033,4.4516,4.4117,4.3772,4.3497,4.3497,4.3497,4.3497,4.3497,4.3497,4.3497,4.3497,4.3631,4.3772,4.3955,4.429,4.4638,4.5011,4.5222,4.54,4.5568,4.5586,4.4778,4.2143,3.7993,3.3323,2.8231,2.3515,2.0648,2.1069,2.2958,2.3368,2.084,2.4676,2.5341,1.9772,1.9131,1.7911,1.5205,1.4995,1.5939,1.8049,1.9195,2.1838,2.6319,2.7383,2.9953,3.4284,3.1872,3.3348,3.8664,3.618,3.6983,4.0629,4.0629,4.1018,4.1728,4.1728,4.2151,4.2828,4.2828,4.3284,4.3978,4.3978,4.4215,4.4587,4.4587,4.4587,4.4587,2.2535,2.1027,2.0188,2.1604,2.6147,3.0468,3.3008,3.8332,4.2392,4.3321,4.4272,4.5033,4.5438,4.5495,4.5148,4.4335,4.2604,4.195,4.2835,4.2066,4.2374,4.4182,4.5105,4.4028,4.07,4.3893,4.397,4.0642,3.4853,3.1564,3.0467,2.1158,1.683,1.7048,2.2275,2.5609,2.7765,3.5313,3.9517,4.1386,4.4646,4.5906,4.5853,4.5699,4.5624,4.5624,4.5605,4.5381,4.5011,4.4409,4.3955,4.3597,4.3513,4.3497,4.3497,4.3497,4.3497,4.3497,4.3497,4.3497,4.3563,4.3836,4.3955,4.4146,4.4738,4.4988,4.5161,4.5438,4.555,4.4355,4.0354,3.8873,3.6617,3.1576,2.7141,2.4072,2.3204,2.4362,2.5071,2.4497,2.7663,2.8048,2.3333,2.1844,1.9473,1.5307,1.4995,1.5378,1.6231,1.9139,2.147,2.2942,2.6851,2.9641,3.1127,3.1052,3.3032,3.7052,3.5933,3.7025,4.007,4.007,4.0409,4.0967,4.0967,4.1373,4.2066,4.2236,4.2642,4.3183,4.3183,4.3555,4.4113,4.4282,4.4333,4.435,2.535,2.6235,2.8319,3.2159,3.0488,3.1555,4.0292,3.9138,3.8846,4.3341,4.4031,4.4354,4.5074,4.5159,4.3713,4.0204,4.3085,4.197,3.4564,4.1008,4.3547,4.0027,4.3547,4.5413,4.5009,4.5393,4.5393,4.5009,3.9815,3.5334,3.1448,2.5063,2.2081,2.2321,2.7556,3.2531,3.7061,3.8073,4.1277,4.5703,4.5975,4.6084,4.6046,4.5853,4.5776,4.5776,4.5624,4.5381,4.5096,4.5011,4.4535,4.3912,4.3597,4.3497,4.3497,4.3497,4.3497,4.3497,4.3497,4.3497,4.3532,4.3548,4.3772,4.4016,4.4087,4.4612,4.5096,4.514,4.54,4.5451,4.497,4.1758,3.7507,3.2422,2.7997,2.3841,2.0027,2.2241,2.4485,2.5118,2.4274,2.3417,2.287,1.8638,1.5664,1.5059,1.4995,1.6885,2.1166,1.828,1.8471,2.2868,2.4153,2.6557,3.0283,3.0761,3.4447,4.1184,3.7271,3.7025,4.007,4.007,4.0121,4.0189,4.0189,4.0612,4.1356,4.2016,4.2337,4.2388,4.2388,4.2439,4.2591,4.3284,4.3521,4.3639,2.8668,2.7099,2.6832,3.0406,3.1167,3.3007,3.8183,3.9705,4.0981,4.2939,4.3684,4.4204,4.4732,4.48,4.4166,4.2626,4.4206,4.3848,4.0461,4.3613,4.4836,4.3143,4.4701,4.5586,4.5586,4.5586,4.5586,4.5586,3.743,3.2539,3.0682,2.5312,2.4428,2.7582,3.2829,3.6326,3.8514,4.1702,4.4311,4.6289,4.6152,4.6095,4.6084,4.5917,4.5829,4.5796,4.5738,4.5571,4.5362,4.518,4.4781,4.429,4.3912,4.3804,4.374,4.3582,4.3497,4.3497,4.3497,4.3497,4.3497,4.3497,4.3597,4.3804,4.4252,4.4606,4.4919,4.5322,4.5513,4.5586,4.5586,4.422,4.1566,3.6988,3.4814,3.2218,2.7928,2.8525,3.0448,3.3353,3.0833,2.966,3.1718,2.5024,2.0304,1.9715,1.684,1.5853,1.7569,1.8902,2.1773,2.6447,2.7383,3.1146,3.8102,3.6007,3.7402,4.2324,4.0235,3.9713,4.0577,4.0254,4.007,4.007,4.007,4.0257,4.0595,4.1235,4.1528,4.1696,4.2056,4.2245,4.2337,4.2625,4.2743,4.2794,3.1543,2.9537,2.8431,3.0688,3.299,3.4784,3.5675,3.9417,4.1841,4.1124,4.2687,4.3986,4.4373,4.4401,4.3992,4.2961,4.4239,4.4069,4.1667,4.4075,4.5047,4.3797,4.4932,4.5586,4.5586,4.5586,4.5586,4.5586,3.8392,3.4191,3.2812,2.9291,2.9429,3.2872,3.8108,4.0467,4.0753,4.4477,4.6097,4.6178,4.6112,4.6094,4.6093,4.5987,4.5938,4.588,4.5841,4.5757,4.5626,4.538,4.5115,4.4781,4.4204,4.4016,4.3924,4.3597,4.3497,4.3497,4.3497,4.3497,4.3497,4.3497,4.3497,4.3631,4.4154,4.4447,4.4781,4.5457,4.5586,4.5586,4.5586,4.5586,4.4124,3.9642,3.9123,3.7719,3.3179,3.2545,3.366,3.6699,3.2833,3.1468,3.5391,2.8448,2.3571,2.3206,1.9799,1.7477,1.6915,1.9033,2.2423,2.709,2.6851,3.0815,3.9496,3.7,3.7954,4.244,4.1979,4.1402,4.0655,4.0286,4.007,4.007,4.007,4.0204,4.0368,4.0733,4.1108,4.14,4.1626,4.1808,4.1886,4.1933,4.1965,4.1999,3.3753,3.5123,3.6259,3.6335,3.7074,3.695,3.4589,3.7847,3.9771,3.7464,4.0884,4.3612,4.3986,4.4016,4.2594,3.9087,4.2654,4.1667,3.359,4.0931,4.3739,3.9546,4.3355,4.5586,4.5586,4.5586,4.5586,4.5586,4.547,4.3278,3.9181,3.9123,3.8661,3.8142,4.3371,4.5719,4.5714,4.5847,4.5907,4.5924,4.6041,4.6094,4.6094,4.6094,4.6094,4.6087,4.5951,4.5853,4.5796,4.5796,4.5701,4.54,4.4354,4.4016,4.3924,4.3597,4.3497,4.3497,4.3497,4.3497,4.3497,4.3497,4.3497,4.3479,4.3513,4.4065,4.4781,4.5457,4.5586,4.5586,4.5586,4.5586,4.3932,3.8834,3.8738,3.7507,3.2429,3.1718,3.1737,3.1795,2.6544,2.4928,2.9994,2.5832,2.3167,2.4014,2.3849,2.3201,2.206,1.8168,1.8157,2.2923,1.9932,2.2152,3.0283,3.1091,3.495,4.181,4.1793,4.1213,4.0121,4.0121,4.007,4.007,4.007,4.0417,4.0903,4.0903,4.1268,4.1725,4.1133,4.092,4.0948,4.1154,4.1221,4.1322,2.6589,3.0369,3.3573,3.2913,3.512,3.6927,3.6675,3.8572,3.9812,3.9039,4.1288,4.2995,4.3087,4.344,4.3208,4.2073,4.1004,4.0526,4.0865,4.1148,4.1989,4.3528,4.2124,4.1296,4.1296,4.1296,4.1296,4.1296,4.07,3.9719,3.8411,3.8328,4.0038,4.3239,4.4913,4.5719,4.5796,4.5827,4.5853,4.5907,4.6048,4.6098,4.6113,4.6191,4.6172,4.6093,4.6054,4.5929,4.58,4.5806,4.5719,4.5513,4.4924,4.4587,4.4318,4.3974,4.3679,4.3497,4.3497,4.3497,4.3497,4.3497,4.3497,4.3563,4.3804,4.4401,4.5074,4.5513,4.5586,4.5586,4.5586,4.5586,4.4124,3.9623,4.1527,4.2008,3.7507,3.6757,3.6677,3.6677,3.2244,3.1074,3.5799,3.1537,2.844,2.8398,2.5028,2.2966,2.3003,2.4777,2.7738,3.1935,3.1568,3.388,3.9221,3.678,3.7863,4.24,4.1997,4.1196,4.007,4.007,4.007,4.007,4.007,4.0417,4.0949,4.1358,4.1621,4.181,4.2021,4.1621,4.0891,4.0978,4.0776,4.046,2.5727,2.9026,3.1972,3.1678,3.3856,3.5536,3.5316,3.7351,3.8635,3.7793,4.0158,4.2032,4.2342,4.2884,4.3338,4.366,4.1669,4.1637,4.4586,4.2697,4.2712,4.547,4.3066,4.1662,4.1662,4.1662,4.1662,4.1662,4.1123,4.0854,4.0854,4.0768,4.2475,4.5586,4.5586,4.5643,4.5719,4.5719,4.5757,4.5796,4.5969,4.6019,4.6053,4.6229,4.625,4.6172,4.6172,4.6026,4.5836,4.5854,4.5738,4.5568,4.5342,4.5074,4.4682,4.4146,4.3772,4.3497,4.3497,4.3497,4.3497,4.3497,4.3497,4.3631,4.4106,4.4587,4.5033,4.5513,4.5586,4.5586,4.5586,4.5586,4.4703,4.1928,4.3803,4.4645,4.1871,4.0053,3.8852,3.8475,3.4452,3.3468,3.8,3.5432,3.3508,3.3527,2.9052,2.7043,2.8688,2.8046,2.9599,3.3862,3.478,3.7129,4.1203,3.8744,3.9254,4.2711,4.1853,4.0967,4.007,4.007,4.007,4.007,4.007,4.0546,4.1268,4.1621,4.2044,4.2444,4.2637,4.2121,4.1223,4.0995,4.0577,4.007,2.9252,3.0348,3.1542,3.2189,3.3322,3.3506,3.1656,3.4902,3.6805,3.4734,3.8042,4.0906,4.1647,4.2262,4.2978,4.3844,4.3695,4.3971,4.4969,4.4789,4.4937,4.5531,4.5316,4.5163,4.5163,4.5163,4.5297,4.5586,4.5586,4.5586,4.5586,4.5586,4.5586,4.5586,4.5586,4.5586,4.5586,4.5586,4.5586,4.5605,4.5815,4.591,4.5924,4.62,4.6308,4.6308,4.6308,4.6124,4.5909,4.5905,4.5776,4.5605,4.5586,4.5362,4.4966,4.429,4.3836,4.3548,4.3548,4.3513,4.3497,4.3497,4.3513,4.3712,4.4447,4.4606,4.4806,4.5476,4.5586,4.5586,4.5586,4.5586,4.5495,4.518,4.5381,4.5361,4.4758,4.1361,3.8495,3.7262,3.3715,3.2978,3.7167,3.7814,3.8137,3.8575,3.4999,3.4202,3.7442,2.8984,2.6204,3.0962,3.1843,3.4064,3.7893,3.793,3.9528,4.2711,4.149,4.0655,4.0171,4.0121,4.007,4.007,4.007,4.0737,4.181,4.181,4.2483,4.3444,4.2939,4.2382,4.181,4.1161,4.0625,4.0171,2.3866,2.8212,3.1666,2.9826,3.2587,3.5011,3.4505,3.6328,3.7552,3.7009,3.9226,4.0897,4.107,4.1664,4.2266,4.2959,4.0675,4.0644,4.4055,4.1722,4.1721,4.5069,4.2368,4.0777,4.0777,4.0777,4.2354,4.5586,4.5586,4.5586,4.5586,4.5586,4.5586,4.5586,4.5586,4.5586,4.5586,4.5586,4.5586,4.5605,4.5815,4.591,4.5924,4.62,4.6308,4.6308,4.6308,4.619,4.6042,4.5916,4.5834,4.5738,4.5624,4.5362,4.5074,4.4877,4.4382,4.3881,4.3881,4.3693,4.3497,4.3497,4.3693,4.4016,4.4501,4.48,4.5096,4.5513,4.5586,4.5586,4.5586,4.5586,4.5568,4.5495,4.5342,4.4094,4.0901,3.9172,3.6975,3.3631,3.4822,3.654,3.8128,4.0798,4.1174,3.8023,3.6545,3.6029,3.6675,3.4473,3.5358,4.0194,4.0524,4.1093,4.2066,4.2066,4.2283,4.2711,4.149,4.081,4.0703,4.0286,4.007,4.007,4.007,4.0737,4.181,4.181,4.2483,4.3497,4.3375,4.2958,4.2422,4.181,4.1223,4.0655,2.6115,2.9209,3.173,3.111,3.3115,3.4986,3.5439,3.6477,3.7397,3.7748,3.9073,4.0135,4.048,4.1059,4.1534,4.1853,4.0745,4.1121,4.3837,4.2354,4.2435,4.4778,4.3139,4.2042,4.1722,4.2023,4.3297,4.5586,4.5586,4.5513,4.5362,4.5513,4.5513,4.5381,4.5531,4.5586,4.5586,4.5586,4.5586,4.5605,4.5796,4.5872,4.5924,4.6122,4.625,4.6308,4.6308,4.6211,4.609,4.5949,4.5862,4.5776,4.5624,4.5476,4.5302,4.514,4.4587,4.4016,4.4016,4.3758,4.3497,4.3497,4.3646,4.3912,4.4474,4.4732,4.5011,4.5495,4.5586,4.5586,4.5586,4.5586,4.5495,4.5182,4.3538,4.1436,3.8911,3.6622,3.5082,3.4726,3.6342,3.8432,4.0772,4.2819,4.3025,4.064,3.8533,3.8021,3.9559,3.7868,3.8891,4.3351,4.3497,4.3497,4.3497,4.3497,4.3214,4.2711,4.1768,4.1178,4.0856,4.0319,4.007,4.007,4.007,4.0737,4.181,4.181,4.2483,4.3497,4.3497,4.3178,4.2655,4.2342,4.1853,4.1223,3.1044,3.1315,3.1888,3.3518,3.3876,3.4312,3.5133,3.6009,3.6888,3.769,3.8541,3.9315,4.002,4.0497,4.0827,4.0903,4.1853,4.2774,4.3615,4.4042,4.4317,4.4444,4.4998,4.5123,4.4682,4.5182,4.5495,4.5586,4.5495,4.5362,4.518,4.5419,4.54,4.5201,4.5457,4.5586,4.5586,4.5586,4.5586,4.5605,4.5757,4.5829,4.592,4.6058,4.6172,4.6308,4.6308,4.623,4.6111,4.5949,4.5873,4.5796,4.5643,4.5586,4.5531,4.5201,4.4612,4.4058,4.4016,4.3758,4.3513,4.3563,4.3631,4.3836,4.4527,4.4707,4.4919,4.5495,4.5586,4.5586,4.5586,4.5586,4.5189,4.3947,4.1049,3.848,3.7248,3.4587,3.4041,3.7515,3.8208,3.9884,4.3651,4.3955,4.3955,4.4016,4.0784,4.0203,4.333,4.0249,3.9955,4.3387,4.3497,4.3497,4.3497,4.3497,4.325,4.2826,4.2121,4.1534,4.0995,4.0368,4.007,4.0121,4.0221,4.0814,4.181,4.1895,4.2562,4.3497,4.3497,4.3214,4.2826,4.275,4.2302,4.1725,3.1044,3.1815,3.2464,3.2749,3.3449,3.4027,3.4245,3.5477,3.6763,3.7674,3.9049,3.9952,4.007,4.0154,4.0417,4.0856,4.1087,4.1455,4.2091,4.2463,4.302,4.3815,4.3942,4.432,4.5011,4.4849,4.5033,4.5586,4.5033,4.5011,4.5513,4.5302,4.5302,4.5513,4.5568,4.5586,4.5586,4.5586,4.5586,4.5605,4.5757,4.583,4.5916,4.6054,4.6172,4.6308,4.6308,4.6289,4.6229,4.5988,4.5893,4.5853,4.5643,4.5586,4.5531,4.5201,4.4806,4.4447,4.4087,4.3758,4.3563,4.3849,4.4194,4.4527,4.4943,4.5243,4.5457,4.5586,4.5586,4.5586,4.5586,4.5586,4.4341,4.0481,3.9147,3.7234,3.3393,3.5032,3.6877,3.7503,4.0533,4.2963,4.393,4.374,4.3712,4.3986,4.3167,4.2886,4.3461,4.2892,4.2837,4.3461,4.3497,4.3497,4.3497,4.3497,4.3444,4.3356,4.2306,4.175,4.1621,4.0594,4.007,4.0121,4.0577,4.1178,4.1853,4.2342,4.2921,4.3497,4.3497,4.3444,4.3339,4.2864,4.2302,4.181,3.1044,3.196,3.2749,3.3241,3.4177,3.4839,3.4839,3.612,3.7318,3.7748,3.9119,4.007,4.007,4.007,4.0204,4.0449,4.0926,4.1332,4.1609,4.206,4.2576,4.3153,4.3188,4.3565,4.4339,4.4523,4.4849,4.5322,4.4849,4.4849,4.5322,4.518,4.518,4.5342,4.5513,4.5586,4.5586,4.5586,4.5586,4.5605,4.568,4.5776,4.5902,4.5971,4.6117,4.6308,4.6308,4.6308,4.6268,4.5988,4.5912,4.5853,4.5643,4.5586,4.5531,4.5201,4.4707,4.4194,4.3836,4.3758,4.3804,4.3955,4.429,4.4701,4.5011,4.5222,4.5381,4.5568,4.5586,4.5586,4.5586,4.5438,4.4592,4.2379,3.9894,3.744,3.5224,3.6408,3.7507,3.7507,4.1038,4.3563,4.3726,4.3597,4.3563,4.3726,4.3597,4.3497,4.3497,4.3497,4.3497,4.3497,4.3497,4.3497,4.3497,4.3497,4.3497,4.3479,4.2657,4.2121,4.175,4.0938,4.0368,4.0121,4.0655,4.1223,4.1853,4.244,4.3014,4.3497,4.3497,4.3497,4.3479,4.3214,4.2752,4.2302,3.1044,3.1742,3.2664,3.3765,3.4566,3.5219,3.5672,3.6872,3.7815,3.8019,3.9226,4.007,4.007,4.007,4.007,4.007,4.077,4.1305,4.1677,4.1944,4.2389,4.3013,4.3174,4.3441,4.3893,4.4271,4.4682,4.5096,4.4682,4.4732,4.5222,4.5052,4.5074,4.5222,4.5495,4.5586,4.5586,4.5586,4.5586,4.5586,4.5624,4.5757,4.5907,4.5932,4.6079,4.6308,4.6308,4.6282,4.6221,4.5979,4.5893,4.5834,4.5643,4.5586,4.5513,4.5096,4.4535,4.3955,4.3712,4.3804,4.4028,4.4204,4.4482,4.4781,4.514,4.5222,4.5282,4.5438,4.5495,4.5457,4.5381,4.5161,4.455,4.3271,4.0239,3.7891,3.7566,3.7507,3.7826,3.8762,4.1607,4.3497,4.3497,4.3497,4.3497,4.3497,4.3497,4.3497,4.3497,4.3497,4.3497,4.3497,4.3497,4.3497,4.3497,4.3497,4.3497,4.3479,4.2808,4.2262,4.1768,4.1059,4.0497,4.0121,4.0844,4.1358,4.1853,4.2598,4.3142,4.3497,4.3497,4.341,4.3339,4.3444,4.3087,4.2519,3.1044,3.1241,3.1847,3.35,3.3907,3.4479,3.6091,3.701,3.785,3.8712,3.9558,4.007,4.007,4.007,4.007,4.007,4.0154,4.0787,4.2142,4.1823,4.2301,4.4025,4.4331,4.4489,4.4535,4.4204,4.4382,4.5096,4.4382,4.4568,4.555,4.4943,4.4966,4.5568,4.5586,4.5586,4.5586,4.5586,4.5586,4.5605,4.5738,4.5834,4.5911,4.6042,4.6163,4.6308,4.6308,4.6215,4.6078,4.5949,4.5873,4.5776,4.5624,4.5586,4.5457,4.4849,4.4318,4.3998,4.3986,4.3986,4.4175,4.4853,4.5052,4.514,4.5495,4.5568,4.5495,4.5201,4.5137,4.5052,4.4732,4.4657,4.3309,3.917,3.8215,3.7891,3.7566,3.7507,3.8872,4.2598,4.3314,4.3497,4.3497,4.3497,4.3497,4.3497,4.3497,4.3497,4.3497,4.3497,4.3497,4.3497,4.3497,4.3497,4.3497,4.3497,4.3497,4.3497,4.2386,4.1835,4.175,4.0642,4.0121,4.0171,4.1241,4.175,4.1895,4.2977,4.3444,4.3497,4.3497,4.3214,4.2826,4.3339,4.281,4.2021,3.0279,3.0833,3.1775,3.3485,3.4295,3.5289,3.6974,3.7906,3.8482,3.8837,3.961,4.007,4.007,4.0634,4.0993,4.0993,4.1977,4.2871,4.346,4.3821,4.383,4.3355,4.398,4.4248,4.4046,4.4459,4.483,4.5096,4.4612,4.4787,4.5586,4.5118,4.5161,4.5586,4.5586,4.5586,4.5586,4.5586,4.5586,4.5605,4.5757,4.5843,4.5912,4.605,4.6173,4.6308,4.6308,4.627,4.6181,4.597,4.587,4.5834,4.5643,4.5586,4.5476,4.4781,4.4501,4.4373,4.4373,4.4535,4.4738,4.503,4.5096,4.5118,4.5263,4.5118,4.4943,4.4825,4.48,4.4732,4.4606,4.4392,4.367,4.2006,4.1549,4.1359,4.1236,4.1203,4.1772,4.3314,4.3497,4.3497,4.3497,4.3497,4.3497,4.3497,4.3497,4.3497,4.3497,4.3497,4.3497,4.3497,4.3497,4.3497,4.3497,4.3497,4.3497,4.3479,4.2714,4.2162,4.175,4.0967,4.04,4.0171,4.1286,4.181,4.1895,4.3014,4.3286,4.3014,4.3014,4.2637,4.2162,4.2346,4.2185,4.1937,2.9792,3.0732,3.2126,3.3806,3.5135,3.652,3.8286,3.8924,3.9262,3.9262,4.0035,4.0446,4.0121,4.1174,4.181,4.151,4.2871,4.3886,4.4183,4.509,4.5029,4.3736,4.4195,4.4367,4.4148,4.4778,4.5096,4.5096,4.4872,4.5052,4.5586,4.5243,4.5282,4.5586,4.5586,4.5586,4.5586,4.5586,4.5605,4.568,4.5796,4.5877,4.5991,4.6104,4.6215,4.6308,4.6308,4.6267,4.6195,4.5976,4.5893,4.5834,4.5643,4.5513,4.5342,4.4776,4.4657,4.4776,4.4776,4.4988,4.5222,4.5137,4.5096,4.5074,4.4985,4.4776,4.4553,4.4447,4.4419,4.4392,4.428,4.4035,4.3849,4.3849,4.3646,4.3497,4.3497,4.3497,4.3497,4.3497,4.3497,4.3497,4.3497,4.3497,4.3497,4.3497,4.3497,4.3497,4.3497,4.3497,4.3497,4.3497,4.3497,4.3497,4.3497,4.3497,4.341,4.325,4.2675,4.2121,4.149,4.092,4.0528,4.0417,4.1375,4.1895,4.2162,4.2921,4.3014,4.2655,4.248,4.2038,4.1534,4.1707,4.1664,4.1621,2.9792,3.1135,3.2862,3.4584,3.6378,3.8114,3.9817,4.007,4.007,4.007,4.0902,4.1165,4.0237,4.1734,4.245,4.1618,4.2322,4.323,4.4158,4.509,4.5586,4.5586,4.5263,4.5096,4.5096,4.5096,4.5096,4.5096,4.5096,4.5263,4.5586,4.5263,4.5263,4.5586,4.5586,4.5586,4.5586,4.5586,4.568,4.5815,4.5873,4.5988,4.6108,4.6245,4.6308,4.6308,4.6308,4.6214,4.6074,4.5938,4.5861,4.5776,4.5624,4.5362,4.503,4.4682,4.4849,4.5096,4.5096,4.5342,4.5513,4.518,4.5096,4.5007,4.4657,4.458,4.4474,4.4058,4.4016,4.3893,4.3563,4.3497,4.3497,4.3497,4.3497,4.3497,4.3497,4.3497,4.3497,4.3497,4.3497,4.3497,4.3497,4.3497,4.3497,4.3497,4.3497,4.3497,4.3497,4.3497,4.3497,4.3497,4.3497,4.3497,4.3479,4.3479,4.3214,4.2693,4.2062,4.149,4.0856,4.0319,4.0417,4.0949,4.1534,4.2121,4.2711,4.2711,4.2711,4.2616,4.2021,4.1446,4.0949,4.1578,4.1402,4.1087,3.1329,3.1973,3.3246,3.6181,3.715,3.8114,3.9817,4.007,4.007,4.007,4.0902,4.1417,4.1121,4.2699,4.3679,4.3423,4.4228,4.4887,4.5168,4.5437,4.5586,4.5586,4.5495,4.5438,4.5438,4.5438,4.5438,4.5438,4.5438,4.5495,4.5586,4.5495,4.5495,4.5586,4.5586,4.5643,4.5738,4.5738,4.5796,4.5873,4.5988,4.6065,4.6108,4.6245,4.6308,4.6286,4.6192,4.6131,4.6066,4.5892,4.5819,4.5776,4.5624,4.5362,4.5074,4.4966,4.503,4.5052,4.4806,4.4988,4.5222,4.5118,4.4919,4.4657,4.4261,4.4004,4.3791,4.3679,4.3646,4.3631,4.3513,4.3497,4.3497,4.3497,4.3497,4.3497,4.3497,4.3497,4.3497,4.3497,4.3497,4.3497,4.3497,4.3497,4.3497,4.3497,4.3497,4.3497,4.3497,4.3497,4.3497,4.3497,4.3497,4.3339,4.2939,4.2939,4.2864,4.2711,4.1664,4.1087,4.0856,4.0319,4.0417,4.0949,4.1534,4.2121,4.2711,4.2711,4.244,4.2021,4.1402,4.0844,4.0368,4.0563,4.0984,4.1578,3.3123,3.3877,3.5033,3.715,3.8389,3.943,4.047,4.0958,4.1183,4.1183,4.1995,4.2414,4.2073,4.365,4.4592,4.4228,4.505,4.5586,4.5586,4.5586,4.5586,4.5586,4.5586,4.5586,4.5586,4.5586,4.5586,4.5586,4.5586,4.5586,4.5586,4.5586,4.5586,4.5586,4.5586,4.5643,4.5719,4.5776,4.5838,4.5902,4.6037,4.6139,4.6192,4.6273,4.6308,4.6284,4.6145,4.6103,4.6065,4.5873,4.5757,4.5682,4.5477,4.5342,4.5263,4.514,4.5201,4.5222,4.4896,4.4943,4.503,4.4738,4.4508,4.4261,4.3881,4.3646,4.3497,4.3497,4.3497,4.3497,4.3497,4.3497,4.3497,4.3497,4.3497,4.3497,4.3497,4.3497,4.3497,4.3497,4.3497,4.3497,4.3497,4.3497,4.3497,4.3497,4.3497,4.3497,4.3497,4.3497,4.3497,4.3497,4.3497,4.325,4.2711,4.248,4.2203,4.1979,4.1268,4.078,4.0577,4.0254,4.0417,4.0903,4.1313,4.181,4.2342,4.208,4.175,4.1402,4.0797,4.0368,4.007,4.007,4.0563,4.1168,3.5211,3.6466,3.7625,3.7936,3.9918,4.151,4.1618,4.2285,4.28,4.28,4.3631,4.3867,4.3019,4.4526,4.5266,4.4391,4.5109,4.5586,4.5586,4.5586,4.5586,4.5586,4.5586,4.5586,4.5586,4.5586,4.5586,4.5586,4.5586,4.5586,4.5586,4.5586,4.5605,4.5605,4.5605,4.5624,4.5643,4.5776,4.5872,4.5955,4.6079,4.6191,4.6284,4.6284,4.6265,4.6258,4.6112,4.6065,4.6046,4.5853,4.5699,4.555,4.5243,4.5342,4.5531,4.5201,4.5322,4.5457,4.5096,4.4988,4.483,4.4117,4.3955,4.3881,4.3563,4.3497,4.3497,4.3497,4.3497,4.3497,4.3497,4.3497,4.3497,4.3497,4.3497,4.3497,4.3497,4.3497,4.3497,4.3497,4.3497,4.3497,4.3497,4.3497,4.3497,4.3497,4.3497,4.3497,4.3497,4.3497,4.3497,4.3497,4.3444,4.3178,4.2616,4.2021,4.1446,4.0903,4.0856,4.0577,4.007,4.007,4.0417,4.0903,4.0903,4.1223,4.175,4.1178,4.0903,4.0874,4.0336,4.007,4.007,4.007,4.0121,4.0254,3.7633,3.7725,3.8381,4.1174,4.1563,4.1747,4.2414,4.2681,4.28,4.28,4.3631,4.4113,4.3914,4.4927,4.5512,4.5304,4.5475,4.5586,4.5586,4.5586,4.5586,4.5586,4.5586,4.5586,4.5586,4.5586,4.5586,4.5586,4.5586,4.5586,4.5586,4.5586,4.5643,4.5757,4.5757,4.5834,4.5988,4.6026,4.6108,4.6221,4.6245,4.6206,4.6137,4.6137,4.6083,4.5979,4.5877,4.5873,4.5834,4.5699,4.5605,4.5586,4.5513,4.5531,4.5531,4.5201,4.514,4.5074,4.4428,4.4261,4.4146,4.3693,4.3597,4.3597,4.3513,4.3497,4.3497,4.3497,4.3497,4.3497,4.3497,4.3497,4.3497,4.3497,4.3497,4.3497,4.3497,4.3497,4.3497,4.3497,4.3497,4.3497,4.3497,4.3497,4.3497,4.3497,4.3497,4.3497,4.3497,4.3497,4.3497,4.3497,4.3087,4.2598,4.1979,4.1402,4.1041,4.0903,4.0497,4.0204,4.007,4.007,4.0417,4.0903,4.0903,4.1223,4.1768,4.1213,4.0938,4.0874,4.0336,4.007,4.007,4.007,4.0368,4.0827,3.9821,3.9954,4.0416,4.2431,4.2803,4.2938,4.3404,4.3896,4.4233,4.4233,4.4683,4.5001,4.4982,4.5419,4.5738,4.5738,4.5738,4.5738,4.5699,4.5699,4.568,4.5586,4.5643,4.5699,4.5699,4.5738,4.5699,4.5586,4.5643,4.5699,4.5699,4.5738,4.5776,4.5834,4.5849,4.5912,4.6015,4.6053,4.6143,4.6205,4.6278,4.6215,4.6103,4.6103,4.602,4.5893,4.5822,4.5757,4.5699,4.5605,4.5586,4.5586,4.5586,4.5495,4.5322,4.514,4.5007,4.4732,4.4146,4.4016,4.3924,4.3597,4.3497,4.3497,4.3497,4.3497,4.3497,4.3497,4.3497,4.3497,4.3497,4.3497,4.3497,4.3497,4.3497,4.3497,4.3497,4.3497,4.3497,4.3497,4.3497,4.3497,4.3497,4.3497,4.3497,4.3497,4.3497,4.3497,4.3497,4.3497,4.3375,4.3142,4.2864,4.2262,4.1402,4.1041,4.078,4.048,4.0254,4.007,4.007,4.007,4.0237,4.0546,4.0546,4.072,4.1001,4.0707,4.0563,4.0497,4.0204,4.007,4.007,4.007,4.0286,4.0577,4.1828,4.2204,4.2577,4.3185,4.3811,4.4278,4.4448,4.5263,4.5813,4.5819,4.5873,4.5893,4.5819,4.5873,4.5912,4.5912,4.5912,4.5893,4.5819,4.5811,4.5776,4.5643,4.5757,4.583,4.5819,4.5873,4.5825,4.5643,4.5757,4.5811,4.5819,4.5873,4.5902,4.5928,4.5944,4.5939,4.5967,4.6065,4.6108,4.6102,4.6202,4.6166,4.6046,4.6046,4.5969,4.5834,4.5796,4.5699,4.5586,4.5586,4.5586,4.5586,4.5531,4.5322,4.5074,4.4943,4.4707,4.4419,4.4016,4.3893,4.3849,4.3563,4.3497,4.3497,4.3497,4.3497,4.3497,4.3497,4.3497,4.3497,4.3497,4.3497,4.3497,4.3497,4.3497,4.3497,4.3497,4.3497,4.3497,4.3497,4.3497,4.3497,4.3497,4.3497,4.3497,4.3497,4.3497,4.3444,4.3375,4.3356,4.3124,4.2559,4.244,4.1895,4.0903,4.0827,4.0528,4.007,4.007,4.007,4.007,4.007,4.007,4.007,4.007,4.007,4.007,4.007,4.007,4.007,4.007,4.007,4.007,4.007,4.007,4.007,4.3513,4.323,4.3317,4.5082,4.4838,4.4655,4.5534,4.5799,4.5889,4.5899,4.5891,4.5911,4.5891,4.5891,4.5911,4.5911,4.5911,4.5911,4.5891,4.5892,4.5873,4.5853,4.5873,4.5881,4.5881,4.5911,4.5886,4.5853,4.5873,4.5877,4.5891,4.5911,4.597,4.6065,4.6075,4.6152,4.6249,4.6132,4.6093,4.6099,4.5987,4.5902,4.5834,4.5834,4.5757,4.5624,4.5624,4.5605,4.5586,4.5586,4.5586,4.555,4.5243,4.5137,4.4966,4.4346,4.4117,4.4016,4.3679,4.3563,4.3582,4.3513,4.3497,4.3497,4.3497,4.3497,4.3497,4.3497,4.3497,4.3497,4.3497,4.3497,4.3497,4.3497,4.3497,4.3497,4.3497,4.3497,4.3497,4.3497,4.3497,4.3497,4.3497,4.3497,4.3497,4.3497,4.3497,4.3286,4.2826,4.2826,4.2559,4.1937,4.1402,4.1087,4.0903,4.0449,4.0154,4.007,4.007,4.007,4.007,4.007,4.007,4.007,4.007,4.007,4.007,4.007,4.007,4.007,4.007,4.007,4.007,4.007,4.007,4.007,4.4083,4.4252,4.453,4.5668,4.5509,4.5401,4.5815,4.5963,4.5998,4.6007,4.6088,4.6097,4.6019,4.6018,4.6033,4.6128,4.6117,4.6097,4.6019,4.6001,4.5978,4.5893,4.5966,4.5995,4.6002,4.6085,4.6124,4.6125,4.6047,4.6012,4.6015,4.6086,4.6167,4.6212,4.6212,4.6208,4.6173,4.6132,4.6065,4.5986,4.5911,4.5862,4.5778,4.5591,4.5554,4.5586,4.5586,4.5476,4.5322,4.5322,4.5201,4.5011,4.4872,4.4682,4.4409,4.4087,4.3881,4.3693,4.3548,4.3497,4.3497,4.3497,4.3497,4.3497,4.3497,4.3497,4.3497,4.3497,4.3497,4.3497,4.3497,4.3497,4.3497,4.3497,4.3497,4.3497,4.3497,4.3497,4.341,4.3105,4.305,4.305,4.305,4.305,4.3178,4.3479,4.3497,4.325,4.275,4.2711,4.2262,4.1313,4.1041,4.0733,4.0449,4.0204,4.007,4.007,4.007,4.007,4.007,4.007,4.007,4.007,4.007,4.007,4.007,4.007,4.007,4.007,4.007,4.007,4.007,4.007,4.007,4.007]},{"header":{"parameterUnit":"m.s-1","parameterCategory":1,"la1":30.6,"la2":28.766,"lo1":-90.7593,"lo2":-88.6598,"dy":0.0162,"dx":0.0183,"nx":116,"ny":114,"refTime":"2023-10-17T12:00:00:Z","depth":0,"parameterNumber":3,"parameterNumberName":"V-component_of_WINDS"},"data":[0.0,0.0,0.0,0.0,0.0,0.0,0.0,0.0,0.0,0.0,0.0,0.0,0.0,0.0,0.0,0.0,0.0,0.0,0.0,0.0,0.0,0.0,0.0,0.0,0.0,0.0,0.0,0.0,0.0,0.0,0.0,0.0,0.0,0.0,0.0,0.0,0.0,0.0,0.0,0.0,0.0,0.0,0.0,0.0,0.0,0.0,0.0,0.0,0.0,0.0,0.0,0.0,0.0,0.0,0.0,0.0,0.0,0.0,0.0,0.0,0.0,0.0,0.0,0.0,0.0,0.0,0.0,0.0,0.0,0.0,0.0,0.0,0.0,0.0,0.0,0.0,0.0,0.0,0.0,0.0,0.0,0.0,0.0,0.0,0.0,0.0,0.0,0.0,0.0,0.0,0.0,0.0,0.0,0.0,0.0,0.0,0.0,0.0,0.0,0.0,0.0,0.0,0.0,0.0,0.0,0.0,0.0,0.0,0.0,0.0,0.0,0.0,0.0,0.0,0.0,0.0,0.0,0.0,0.0,0.0,0.0,0.0,0.0,0.0,0.0,0.0,0.0,0.0,0.0,0.0,0.0,0.0,0.0,0.0,0.0,0.0,0.0,0.0,0.0,0.0,0.0,0.0,0.0,0.0,0.0,0.0,0.0,0.0,0.0,0.0,0.0,0.0,0.0,0.0,0.0,0.0,0.0,0.0,0.0,0.0,0.0,0.0,0.0,0.0,0.0,0.0,0.0,0.0,0.0,0.0,0.0,0.0,0.0,0.0,0.0,0.0,0.0,0.0,0.0,0.0,0.0,0.0,0.0,0.0,0.0,0.0,0.0,0.0,0.0,0.0,0.0,0.0,0.0,0.0,0.0,0.0,0.0,0.0,0.0,0.0,0.0,0.0,0.0,0.0,0.0,0.0,0.0,0.0,0.0,0.0,0.0,0.0,0.0,0.0,0.0,0.0,0.0,0.0,0.0,0.0,0.0,0.0,0.0,0.0,0.0,0.0,0.0,0.0,0.0,0.0,0.0,0.0,0.0,0.0,0.0,0.0,0.0,0.0,0.0,0.0,0.0,0.0,0.0,0.0,0.0,0.0,0.0,0.0,0.0,0.0,0.0,0.0,0.0,0.0,0.0,0.0,0.0,0.0,0.0,0.0,0.0,0.0,0.0,0.0,0.0,0.0,0.0,0.0,0.0,0.0,0.0,0.0,0.0,0.0,0.0,0.0,0.0,0.0,0.0,0.0,0.0,0.0,0.0,0.0,0.0,0.0,0.0,0.0,0.0,0.0,0.0,0.0,0.0,0.0,0.0,0.0,0.0,0.0,0.0,0.0,0.0,0.0,0.0,0.0,0.0,0.0,0.0,0.0,0.0,0.0,0.0,0.0,0.0,0.0,0.0,0.0,0.0,0.0,0.0,0.0,0.0,0.0,0.0,0.0,0.0,0.0,0.0,0.0,0.0,0.0,0.0,0.0,0.0,0.0,0.0,0.0,0.0,0.0,0.0,0.0,0.0,0.0,0.0,0.0,0.0,0.0,0.0,0.0,0.0,0.0,0.0,0.0,0.0,0.0,0.0,0.0,0.0,0.0,0.0,0.0,0.0,0.0,0.0,0.0,0.0,0.0,0.0,0.0,0.0,0.0,0.0,0.0,0.0,0.0,0.0,0.0,0.0,0.0,0.0,0.0,0.0,0.0,0.0,0.0,0.0,0.0,0.0,0.0,0.0,0.0,0.0,0.0,0.0,0.0,0.0,0.0,0.0,0.0,0.0,0.0,0.0,0.0,0.0,0.0,0.0,0.0,0.0,0.0,0.0,0.0,0.0,0.0,0.0,0.0,0.0,0.0,0.0,0.0,0.0,0.0,0.0,0.0,0.0,0.0,0.0,0.0,0.0,0.0,0.0,0.0,0.0,0.0,0.0,0.0,0.0,0.0,0.0,0.0,0.0,0.0,0.0,0.0,0.0,0.0,0.0,0.0,0.0,0.0,0.0,0.0,0.0,0.0,0.0,0.0,0.0,0.0,0.0,0.0,0.0,0.0,0.0,0.0,0.0,0.0,0.0,0.0,0.0,0.0,0.0,0.0,0.0,0.0,0.0,0.0,0.0,0.0,0.0,0.0,0.0,0.0,0.0,0.0,0.0,0.0,0.0,0.0,0.0,0.0,0.0,0.0,0.0,0.0,0.0,0.0,0.0,0.0,0.0,0.0,0.0,0.0,0.0,0.0,0.0,0.0,0.0,0.0,0.0,0.0,0.0,0.0,0.0,0.0,0.0,0.0,0.0,0.0,0.0,0.0,0.0,0.0,0.0,0.0,0.0,0.0,0.0,0.0,0.0,0.0,0.0,0.0,0.0,0.0,0.0,0.0,0.0,0.0,0.0,0.0,0.0,0.0,0.0,0.0,0.0,0.0,0.0,0.0,0.0,0.0,0.0,0.0,0.0,0.0,0.0,0.0,0.0,0.0,0.0,0.0,0.0,0.0,0.0,0.0,0.0,0.0,0.0,0.0,0.0,0.0,0.0,0.0,0.0,0.0,0.0,0.0,0.0,0.0,0.0,0.0,0.0,0.0,0.0,0.0,0.0,0.0,0.0,0.0,0.0,0.0,0.0,0.0,0.0,0.0,0.0,0.0,0.0,0.0,0.0,0.0,0.0,0.0,0.0,0.0,0.0,0.0,0.0,0.0,0.0,0.0,0.0,0.0,0.0,0.0,0.0,0.0,0.0,0.0,0.0,0.0,0.0,0.0,0.0,0.0,0.0,0.0,0.0,0.0,0.0,0.0,0.0,0.0,0.0,0.0,0.0,0.0,0.0,0.0,0.0,0.0,0.0,0.0,0.0,0.0,0.0,0.0,0.0,0.0,0.0,0.0,0.0,0.0,0.0,0.0,0.0,0.0,0.0,0.0,0.0,0.0,0.0,0.0,0.0,0.0,0.0,0.0,0.0,0.0,0.0,0.0,0.0,0.0,0.0,0.0,0.0,0.0,0.0,0.0,0.0,0.0,0.0,0.0,0.0,0.0,0.0,0.0,0.0,0.0,0.0,0.0,0.0,0.0,0.0,0.0,0.0,0.0,0.0,0.0,0.0,0.0,0.0,0.0,0.0,0.0,0.0,0.0,0.0,0.0,0.0,0.0,0.0,0.0,0.0,0.0,0.0,0.0,0.0,0.0,0.0,0.0,0.0,0.0,0.0,0.0,0.0,0.0,0.0,0.0,0.0,0.0,0.0,0.0,0.0,0.0,0.0,0.0,0.0,0.0,0.0,0.0,0.0,0.0,0.0,0.0,0.0,0.0,0.0,0.0,0.0,0.0,0.0,0.0,0.0,0.0,0.0,0.0,0.0,0.0,0.0,0.0,0.0,0.0,0.0,0.0,0.0,0.0,0.0,0.0,0.0,0.0,0.0,0.0,0.0,0.0,0.0,0.0,0.0,0.0,0.0,0.0,0.0,0.0,0.0,0.0,0.0,0.0,0.0,0.0,0.0,0.0,0.0,0.0,0.0,0.0,0.0,0.0,0.0,0.0,0.0,0.0,0.0,0.0,0.0,0.0,0.0,0.0,0.0,0.0,0.0,0.0,0.0,0.0,0.0,0.0,0.0,0.0,0.0,0.0,0.0,0.0,0.0,0.0,0.0,0.0,0.0,0.0,0.0,0.0,0.0,0.0,0.0,0.0,0.0,0.0,0.0,0.0,0.0,0.0,0.0,0.0,0.0,0.0,0.0,0.0,0.0,0.0,0.0,0.0,0.0,0.0,0.0,0.0,0.0,0.0,0.0,0.0,0.0,0.0,0.0,0.0,0.0,0.0,0.0,0.0,0.0,0.0,0.0,0.0,0.0,0.0,0.0,0.0,0.0,0.0,0.0,0.0,0.0,0.0,0.0,0.0,0.0,0.0,0.0,0.0,0.0,0.0,0.0,0.0,0.0,0.0,0.0,0.0,0.0,0.0,0.0,0.0,0.0,0.0,0.0,0.0,0.0,0.0,0.0,0.0,0.0,0.0,0.0,0.0,0.0,0.0,0.0,0.0,0.0,0.0,0.0,0.0,0.0,0.0,0.0,0.0,0.0,0.0,0.0,0.0,0.0,0.0,0.0,0.0,0.0,0.0,0.0,0.0,0.0,0.0,0.0,0.0,0.0,0.0,0.0,0.0,0.0,0.0,0.0,0.0,0.0,0.0,0.0,0.0,0.0,0.0,0.0,0.0,0.0,0.0,0.0,0.0,0.0,0.0,0.0,0.0,0.0,0.0,0.0,0.0,0.0,0.0,0.0,0.0,0.0,0.0,0.0,0.0,0.0,0.0,0.0,0.0,0.0,0.0,0.0,0.0,0.0,0.0,0.0,0.0,0.0,0.0,0.0,0.0,0.0,0.0,0.0,0.0,0.0,0.0,0.0,0.0,0.0,0.0,0.0,0.0,0.0,0.0,0.0,0.0,0.0,0.0,0.0,0.0,0.0,0.0,0.0,0.0,0.0,0.0,0.0,0.0,0.0,0.0,0.0,0.0,0.0,0.0,0.0,0.0,0.0,0.0,0.0,0.0,0.0,0.0,0.0,0.0,0.0,0.0,0.0,0.0,0.0,0.0,0.0,0.0,0.0,0.0,0.0,0.0,0.0,0.0,0.0,0.0,0.0,0.0,0.0,0.0,0.0,0.0,0.0,0.0,0.0,0.0,0.0,0.0,0.0,0.0,0.0,0.0,0.0,0.0,0.0,0.0,0.0,0.0,0.0,0.0,0.0,0.0,0.0,0.0,0.0,0.0,0.0,0.0,0.0,0.0,0.0,0.0,0.0,0.0,0.0,0.0,0.0,0.0,0.0,0.0,0.0,0.0,0.0,0.0,0.0,0.0,0.0,0.0,0.0,0.0,0.0,0.0,0.0,0.0,0.0,0.0,0.0,0.0,0.0,0.0,0.0,0.0,0.0,0.0,0.0,0.0,0.0,0.0,0.0,0.0,0.0,0.0,0.0,0.0,0.0,0.0,0.0,0.0,0.0,0.0,0.0,0.0,0.0,0.0,0.0,0.0,0.0,0.0,0.0,0.0,0.0,0.0,0.0,0.0,0.0,0.0,0.0,0.0,0.0,0.0,0.0,0.0,0.0,0.0,0.0,0.0,0.0,0.0,0.0,0.0,0.0,0.0,0.0,0.0,0.0,0.0,0.0,0.0,0.0,0.0,0.0,0.0,0.0,0.0,0.0,0.0,0.0,0.0,0.0,0.0,0.0,0.0,0.0,0.0,0.0,0.0,0.0,0.0,0.0,0.0,0.0,0.0,0.0,0.0,0.0,0.0,0.0,0.0,0.0,0.0,0.0,0.0,0.0,0.0,0.0,0.0,0.0,0.0,0.0,0.0,0.0,0.0,0.0,0.0,0.0,0.0,0.0,0.0,0.0,0.0,0.0,0.0,0.0,0.0,0.0,0.0,0.0,0.0,0.0,0.0,0.0,0.0,0.0,0.0,0.0,0.0,0.0,0.0,0.0,0.0,0.0,0.0,0.0,0.0,0.0,0.0,0.0,0.0,0.0,0.0,0.0,0.0,0.0,0.0,0.0,0.0,0.0,0.0,0.0,0.0,0.0,0.0,0.0,0.0,0.0,0.0,0.0,0.0,0.0,0.0,0.0,0.0,0.0,0.0,0.0,0.0,0.0,0.0,0.0,0.0,0.0,0.0,0.0,0.0,0.0,0.0,0.0,0.0,0.0,0.0,0.0,0.0,0.0,0.0,0.0,0.0,0.0,0.0,0.0,0.0,0.0,0.0,0.0,0.0,0.0,0.0,0.0,0.0,0.0,0.0,0.0,0.0,0.0,0.0,0.0,0.0,0.0,0.0,0.0,0.0,0.0,0.0,0.0,0.0,0.0,0.0,0.0,0.0,0.0,0.0,0.0,0.0,0.0,0.0,0.0,0.0,0.0,0.0,0.0,0.0,0.0,0.0,0.0,0.0,0.0,0.0,0.0,0.0,0.0,0.0,0.0,0.0,0.0,0.0,0.0,0.0,0.0,0.0,0.0,0.0,0.0,0.0,0.0,0.0,0.0,0.0,0.0,0.0,0.0,0.0,0.0,0.0,0.0,0.0,0.0,0.0,0.0,0.0,0.0,0.0,-0.9582,-0.7623,0.0,0.0,0.0,0.0,0.0,0.0,0.0,0.0,0.0,0.0,0.0,0.0,0.0,0.0,0.0,0.0,0.0,0.0,0.0,0.0,0.0,0.0,0.0,0.0,0.0,0.0,0.0,0.0,0.0,0.0,0.0,0.0,0.0,0.0,0.0,0.0,0.0,0.0,0.0,0.0,0.0,0.0,0.0,0.0,0.0,0.0,0.0,0.0,0.0,0.0,0.0,0.0,0.0,0.0,0.0,0.0,0.0,0.0,0.0,0.0,0.0,0.0,0.0,0.0,0.0,0.0,0.0,0.0,0.0,0.0,0.0,0.0,0.0,0.0,0.0,0.0,0.0,0.0,0.0,0.0,0.0,0.0,0.0,0.0,0.0,0.0,0.0,0.0,0.0,0.0,0.0,0.0,0.0,0.0,0.0,0.0,0.0,0.0,0.0,0.0,0.0,0.0,0.0,0.0,0.0,0.0,0.0,0.0,0.0,0.0,0.0,0.0,0.0,0.0,-1.1894,-1.0601,0.0,0.0,0.0,0.0,0.0,0.0,0.0,0.0,0.0,0.0,0.0,0.0,0.0,0.0,0.0,0.0,0.0,0.0,0.0,0.0,0.0,0.0,0.0,0.0,0.0,0.0,0.0,0.0,0.0,0.0,0.0,0.0,0.0,0.0,0.0,0.0,0.0,0.0,0.0,0.0,0.0,0.0,0.0,0.0,0.0,0.0,0.0,0.0,0.0,0.0,0.0,0.0,0.0,0.0,0.0,0.0,0.0,0.0,0.0,0.0,0.0,0.0,0.0,0.0,0.0,0.0,0.0,0.0,0.0,0.0,0.0,0.0,0.0,0.0,0.0,0.0,0.0,0.0,0.0,0.0,0.0,0.0,0.0,0.0,0.0,0.0,0.0,0.0,0.0,0.0,0.0,0.0,0.0,0.0,0.0,0.0,0.0,0.0,0.0,0.0,0.0,0.0,0.0,0.0,0.0,0.0,0.0,0.0,-1.2643,-1.3461,-1.3469,-1.4863,-1.4984,-1.4091,-1.4396,-1.4092,-1.3251,-1.1708,0.0,0.0,0.0,0.0,0.0,0.0,0.0,0.0,0.0,0.0,0.0,0.0,0.0,0.0,0.0,0.0,0.0,0.0,0.0,0.0,0.0,0.0,0.0,0.0,0.0,0.0,0.0,0.0,0.0,0.0,0.0,0.0,0.0,0.0,0.0,0.0,0.0,0.0,-0.2646,-0.0862,-0.0182,-0.0586,0.0,0.0,0.0,0.0,0.0,0.0,0.0,0.0,0.0,0.0,0.0,0.0,0.0,0.0,0.0,0.0,0.0,0.0,0.0,0.0,0.0,0.0,0.0,0.0,0.0,0.0,0.0,0.0,0.0,0.0,0.0,0.0,0.0,0.0,0.0,0.0,0.0,0.0,0.0,0.0,0.0,0.0,0.0,0.0,-0.7422,-0.8238,0.0,0.0,0.0,0.0,0.0,0.0,0.0,0.0,0.0,0.0,0.0,0.0,0.0,-0.9406,-1.0131,-1.1297,-1.2201,-1.283,-1.4092,-1.4756,-1.4756,-1.5963,-1.6312,-1.6182,-1.5501,0.0,-1.3581,-1.3812,0.0,0.0,0.0,0.0,0.0,0.0,0.0,0.0,0.0,0.0,0.0,0.0,0.0,0.0,0.0,0.0,0.0,0.0,0.0,0.0,0.0,0.0,0.0,0.0,0.0,0.0,0.0,0.0,0.0,0.0,0.0,0.0,0.0,0.0,0.0,0.0,-0.2203,-0.1451,-0.114,-0.0356,0.0,-0.0071,-0.1137,-0.2051,-0.2725,-0.1388,0.0,0.0,0.0,0.0,0.0,0.0,0.0,0.0,0.0,0.0,0.0,0.0,0.0,0.0,0.0,0.0,0.0,0.0,0.0,0.0,0.0,0.0,0.0,0.0,0.0,0.0,0.0,0.0,0.0,0.0,0.0,0.0,0.0,0.0,0.0,0.0,0.0,0.0,0.0,-0.7443,-0.8568,-0.7938,-0.7905,-0.7487,0.0,0.0,0.0,0.0,0.0,0.0,0.0,0.0,0.0,-1.0947,-1.1496,-1.1972,-1.2447,-1.3335,-1.3926,-1.4202,-1.5399,-1.591,-1.6006,-1.8002,-1.8177,-1.6937,-1.8156,-1.7187,-1.4803,-1.4205,-1.352,-1.2866,0.0,0.0,0.0,0.0,-0.9924,-0.9905,0.0,0.0,0.0,0.0,0.0,0.0,0.0,0.0,0.0,0.0,0.0,0.0,0.0,0.0,0.0,-0.2654,0.0,0.0,0.0,0.0,0.0,0.0,0.0,0.0,0.0,0.0,0.0,0.0,-0.1216,0.0,-0.0,-0.1099,-0.1021,0.0,0.0,-0.1022,-0.2557,-0.0765,0.0,0.0,0.0,0.0,0.0,0.0,0.0,0.0,0.0,0.0,0.0,0.0,0.0,0.0,0.0,0.0,0.0,0.0,0.0,0.0,0.0,0.0,0.0,0.0,0.0,0.0,0.0,0.0,0.0,0.0,0.0,0.0,0.0,0.0,0.0,0.0,0.0,0.0,0.0,-0.8357,-0.9508,-0.846,-0.9048,-0.8985,0.0,0.0,0.0,0.0,0.0,0.0,-1.1172,-1.1378,-1.1985,-1.2966,-1.3634,-1.4088,-1.4309,-1.4823,-1.5077,-1.507,-1.6019,-1.6407,-1.6504,-1.8871,-1.8905,-1.731,-1.9455,-1.8848,-1.6209,-1.5081,-1.4321,-1.3901,-1.4115,-1.3238,-1.1948,-1.2147,-1.1948,-1.1705,0.0,0.0,0.0,0.0,0.0,0.0,0.0,0.0,0.0,0.0,0.0,0.0,0.0,0.0,-0.1746,-0.1426,-0.1386,-0.168,0.0,0.0,0.0,0.0,0.0,0.0,0.0,0.0,0.0,-0.3572,-0.1208,0.0,-0.0079,-0.4095,-0.3857,0.0,0.0,-0.0075,-0.014,-0.007,0.0,-0.0,0.0,0.0,0.0,0.0,0.0,0.0,0.0,0.0,0.0,0.0,0.0,0.0,0.0,0.0,0.0,0.0,0.0,0.0,0.0,0.0,0.0,0.0,0.0,0.0,0.0,0.0,0.0,0.0,0.0,0.0,0.0,0.0,0.0,0.0,0.0,0.0,0.0,0.0,0.0,-1.0887,-1.1674,0.0,0.0,0.0,0.0,-1.0563,-1.0718,-1.1502,-1.3305,-1.3466,-1.3858,-1.4803,-1.487,-1.4903,-1.4917,-1.5224,-1.5378,-1.5378,-1.5651,-1.588,-1.5873,-1.7282,-1.7755,-1.7662,-1.7863,-1.7777,-1.7591,-1.7509,-1.6721,-1.5618,-1.481,-1.4462,-1.4223,-1.3426,-1.3652,-1.4276,0.0,0.0,0.0,0.0,0.0,0.0,0.0,0.0,0.0,0.0,0.0,0.0,0.0,-0.3153,-0.2289,-0.0586,-0.0482,-0.1139,-0.2728,0.0,0.0,0.0,0.0,0.0,0.0,0.0,-0.2946,-0.1291,-0.0457,0.0,-0.0079,-0.4639,-0.5974,-0.4511,-0.3011,-0.2341,-0.2206,-0.0689,0.0,0.0,0.0,-0.0537,0.0,0.0,0.0,0.0,0.0,0.0,0.0,0.0,0.0,0.0,0.0,0.0,0.0,0.0,0.0,0.0,0.0,0.0,0.0,0.0,0.0,0.0,0.0,0.0,0.0,0.0,0.0,0.0,0.0,0.0,0.0,0.0,0.0,0.0,0.0,0.0,0.0,-1.0578,-1.1531,0.0,-1.1611,-1.1588,-1.1938,-1.2544,-1.3121,-1.3789,-1.4469,-1.4669,-1.4917,-1.5237,-1.5424,-1.5518,-1.5518,-1.5625,-1.5671,-1.5678,-1.5778,-1.5832,-1.5825,-1.7131,-1.7225,-1.648,-1.7318,-1.7225,-1.648,-1.648,-1.6204,-1.5798,-1.5484,-1.5364,-1.5324,-1.501,-1.5097,-1.5364,0.0,0.0,0.0,0.0,0.0,0.0,0.0,0.0,0.0,0.0,0.0,-0.2907,-0.3516,-0.2901,-0.1718,-0.0127,-0.0399,-0.1186,-0.2587,0.0,0.0,0.0,0.0,0.0,0.0,-0.4265,-0.3726,-0.2093,-0.07,0.0,-0.008,-0.407,-0.6361,-0.7044,-0.5427,-0.4699,-0.4699,-0.3092,-0.1485,0.0,0.0,0.0,-0.023,0.0,0.0,0.0,0.0,0.0,0.0,0.0,0.0,0.0,0.0,0.0,0.0,0.0,0.0,0.0,0.0,0.0,0.0,0.0,0.0,0.0,0.0,0.0,0.0,0.0,0.0,0.0,0.0,0.0,0.0,0.0,0.0,0.0,0.0,-1.0096,-1.1721,-1.107,-1.2264,-1.2933,-1.2683,-1.3115,-1.3613,-1.4143,-1.4776,-1.515,-1.5251,-1.5438,-1.5538,-1.5538,-1.5732,-1.5832,-1.5832,-1.5832,-1.5832,-1.5832,-1.5832,-1.5832,-1.5825,-1.7131,-1.7043,-1.6021,-1.7172,-1.7035,-1.5936,-1.5886,-1.5832,-1.5832,-1.5832,-1.5832,-1.5832,-1.5832,-1.5832,-1.5832,0.0,0.0,0.0,0.0,0.0,0.0,0.0,0.0,0.0,0.0,-0.2564,-0.2234,-0.3364,-0.143,0.0,0.0,-0.1107,-0.1856,-0.1876,-0.1849,0.0,0.0,0.0,0.0,-0.2688,-0.3195,-0.4405,-0.6274,-0.2175,-0.0163,-0.0082,-0.2409,-0.4797,-0.7122,-0.6916,-0.6923,-0.7129,-0.7119,-0.4462,-0.025,-0.0078,0.0,-0.0134,0.0,0.0,0.0,0.0,0.0,0.0,0.0,0.0,0.0,0.0,0.0,0.0,0.0,0.0,0.0,0.0,0.0,0.0,0.0,0.0,0.0,0.0,0.0,0.0,0.0,0.0,0.0,0.0,0.0,0.0,0.0,0.0,0.0,-0.9067,-1.0789,-1.2258,-1.2649,-1.4095,-1.4977,-1.4977,-1.4983,-1.511,-1.5391,-1.5411,-1.5531,-1.5812,-1.5805,-1.5792,-1.5792,-1.5792,-1.5792,-1.5792,-1.5812,-1.5832,-1.5832,-1.5832,-1.5832,-1.5825,-1.7037,-1.7153,-1.6365,-1.7266,-1.7131,-1.6301,-1.592,-1.5832,-1.5832,-1.5832,-1.5832,-1.5832,-1.5832,-1.5832,-1.5825,0.0,0.0,0.0,0.0,0.0,0.0,0.0,0.0,0.0,0.0,-0.2343,-0.1303,-0.0998,-0.0376,0.0,0.0,-0.187,-0.3135,-0.313,0.0,0.0,0.0,0.0,0.0,-0.2067,-0.1326,-0.2718,-0.6334,-0.5133,-0.304,-0.0,-0.068,-0.3181,-0.7118,-0.7024,-0.7065,-0.7068,-0.7088,-0.6367,-0.4821,-0.1415,0.0,-0.0073,0.0,0.0,0.0,0.0,0.0,0.0,0.0,0.0,0.0,0.0,0.0,0.0,0.0,0.0,0.0,0.0,0.0,0.0,0.0,0.0,0.0,0.0,0.0,0.0,0.0,0.0,0.0,0.0,0.0,0.0,0.0,-1.0386,-1.189,-1.1582,-1.2706,-1.3769,-1.4274,-1.4907,-1.5277,-1.5277,-1.5471,-1.5625,-1.5705,-1.5712,-1.5745,-1.5825,-1.5224,-1.4883,-1.4883,-1.4883,-1.4883,-1.4883,-1.5511,-1.5832,-1.5832,-1.5832,-1.5832,-1.5825,-1.6204,-1.6154,-1.5927,-1.6181,-1.6147,-1.5934,-1.5819,-1.5832,-1.5832,-1.5832,-1.5832,-1.5832,-1.5832,-1.5832,-1.5738,0.0,0.0,0.0,0.0,0.0,0.0,0.0,0.0,0.0,0.0,-0.2381,-0.1098,-0.0113,0.0,-0.0742,-0.2499,-0.3927,-0.4167,-0.2715,0.0,0.0,0.0,0.0,-0.2783,-0.1099,-0.0387,-0.1203,-0.3668,-0.3656,-0.2446,-0.0,-0.1043,-0.2459,-0.4232,-0.6239,-0.7091,-0.7108,-0.7111,-0.7121,-0.684,-0.4104,-0.1742,0.0,0.0,-0.1103,-0.2643,-0.2664,-0.2402,-0.2076,-0.2108,0.0,0.0,0.0,0.0,0.0,0.0,0.0,0.0,0.0,0.0,0.0,0.0,0.0,0.0,0.0,0.0,0.0,0.0,0.0,0.0,0.0,0.0,0.0,0.0,-1.1253,-1.2924,-1.3798,-1.4333,-1.481,-1.5271,-1.5478,-1.5578,-1.5578,-1.5732,-1.5832,-1.5832,-1.5832,-1.5832,-1.5832,-1.5344,-1.4897,-1.4529,-1.4877,-1.489,-1.4522,-1.5391,-1.5832,-1.5832,-1.5832,-1.5832,-1.5832,-1.5832,-1.5631,-1.5304,-1.5671,-1.5618,-1.5311,-1.5678,-1.5832,-1.5832,0.0,0.0,0.0,0.0,-1.5832,-1.5758,0.0,0.0,0.0,0.0,0.0,0.0,0.0,0.0,0.0,0.0,0.0,-0.1321,-0.0123,0.0,-0.1621,-0.5613,-0.5962,-0.4703,0.0,0.0,0.0,-0.3559,-0.3305,-0.2188,-0.0079,0.0,0.0,0.0,0.0,0.0,-0.0087,-0.2216,-0.2323,-0.0984,-0.4639,-0.6634,-0.7135,-0.7108,-0.7121,-0.7075,-0.7055,-0.426,0.0,0.0,0.0,-0.0374,-0.3067,-0.2243,0.0,0.0,0.0,0.0,0.0,0.0,0.0,0.0,0.0,0.0,0.0,0.0,0.0,0.0,0.0,0.0,0.0,0.0,0.0,0.0,0.0,0.0,0.0,0.0,0.0,0.0,-1.1945,-1.3646,-1.5523,-1.5611,-1.5538,-1.5798,-1.5832,-1.5832,-1.5832,-1.5832,-1.5832,-1.5832,-1.5832,-1.5832,-1.5832,-1.5732,0.0,0.0,0.0,-1.5311,-1.4529,-1.5391,-1.5832,-1.5832,-1.5832,-1.5832,-1.5832,-1.5832,-1.5404,-1.471,-1.5491,-1.5384,-1.473,-1.5511,-1.5832,-1.5832,-1.5832,-1.5832,-1.5818,-1.5718,-1.5745,-1.5812,0.0,0.0,0.0,0.0,0.0,0.0,0.0,0.0,0.0,-0.3605,-0.2523,-0.1321,-0.0123,0.0,-0.1089,-0.3916,-0.4136,-0.3872,0.0,0.0,-0.3548,-0.363,-0.1755,-0.0441,-0.0,0.0,0.0,0.0,0.0,0.0,-0.0,-0.0448,-0.2516,-0.5602,-0.2693,-0.3501,-0.7135,-0.7058,-0.7058,-0.7145,-0.7068,-0.4206,0.0,0.0,0.0,-0.0087,-0.0693,-0.0519,0.0,0.0,0.0,0.0,0.0,0.0,0.0,0.0,0.0,0.0,0.0,0.0,0.0,0.0,0.0,0.0,0.0,0.0,0.0,0.0,0.0,0.0,0.0,0.0,0.0,-1.2357,-1.4038,-1.5343,-1.571,-1.5785,-1.5765,-1.5818,-1.5832,-1.5832,-1.5832,-1.5832,-1.5832,-1.5832,-1.5832,-1.5832,-1.5832,-1.5157,-1.4696,-1.4522,-1.4683,-1.4689,-1.4522,-1.5391,-1.5832,-1.5832,-1.5832,0.0,-1.5832,-1.5832,-1.5738,-1.5585,-1.5758,-1.5732,-1.5591,-1.5758,-1.5832,-1.5832,-1.5832,-1.5832,-1.5738,-1.503,-1.5224,-1.5725,0.0,0.0,0.0,0.0,0.0,0.0,0.0,0.0,0.0,0.0,-0.2741,-0.1907,-0.1399,-0.0954,-0.1165,-0.2314,-0.2871,0.0,0.0,-0.3434,-0.2777,-0.1846,-0.0669,0.0,0.0,0.0,0.0,0.0,0.0,0.0,0.0,0.0,-0.1257,-0.3514,-0.2332,-0.242,-0.3687,-0.6051,-0.7062,-0.6879,-0.4508,-0.2159,0.0,0.0,0.0,0.0,0.0,0.0,0.0,0.0,0.0,0.0,0.0,0.0,0.0,0.0,0.0,0.0,0.0,0.0,0.0,0.0,0.0,0.0,0.0,0.0,0.0,0.0,0.0,-0.6777,-0.8186,0.0,-1.0334,-1.2808,-1.3777,-1.4568,-1.567,-1.5832,-1.5832,-1.5832,-1.5832,-1.5832,-1.5832,-1.5832,-1.5832,-1.5832,-1.5832,-1.5832,-1.5832,-1.5418,-1.4977,-1.4536,-1.4943,-1.4963,-1.4522,-1.5391,-1.5832,-1.5832,-1.5832,-1.5832,-1.5832,-1.5985,-1.6052,-1.6059,-1.6206,-1.6266,-1.6266,-1.6266,-1.6266,-1.6266,-1.6266,-1.6179,-1.6012,-1.5725,-1.5892,-1.6206,0.0,0.0,0.0,0.0,0.0,0.0,0.0,0.0,0.0,0.0,0.0,-0.2649,-0.2776,-0.2191,-0.1769,0.0,0.0,0.0,0.0,-0.354,-0.2416,-0.0078,0.0,0.0,0.0,0.0,0.0,0.0,0.0,0.0,0.0,0.0,0.0,-0.009,-0.2057,-0.179,-0.027,-0.4137,-0.5687,-0.5422,-0.1529,0.0,0.0,0.0,0.0,0.0,0.0,0.0,0.0,0.0,0.0,0.0,0.0,-0.0733,-0.1538,-0.1538,-0.4641,0.0,0.0,0.0,0.0,0.0,0.0,0.0,0.0,-0.6481,-0.6583,-0.6495,-0.6637,-0.7272,-0.8839,-0.8879,-0.9819,-1.32,-1.3404,-1.3816,-1.5536,-1.5832,-1.5832,-1.5832,-1.5832,-1.5832,-1.5832,-1.5832,-1.5832,-1.5832,-1.5832,-1.5832,-1.5832,-1.5832,-1.5504,-1.4796,-1.5458,-1.5491,-1.4783,-1.5478,-1.5832,-1.5832,-1.5885,-1.5912,-1.5925,-1.6226,-1.6359,-1.6373,-1.6607,-1.6707,-1.6707,-1.6707,-1.6707,-1.6714,-1.6767,-1.6653,-1.6466,-1.664,-1.6707,-1.6707,0.0,0.0,0.0,0.0,0.0,0.0,0.0,0.0,0.0,0.0,0.0,0.0,0.0,0.0,0.0,0.0,0.0,0.0,0.0,-0.4456,-0.4152,-0.0157,0.0,0.0,0.0,0.0,0.0,0.0,0.0,0.0,0.0,0.0,0.0,-0.0,-0.0269,-0.0269,-0.0,-0.0539,-0.0809,-0.0719,-0.018,0.0,0.0,0.0,0.0,0.0,0.0,0.0,0.0,0.0,0.0,0.0,0.0,-0.3279,-0.7063,-0.7116,0.0,-0.7708,-0.6332,-0.5424,-0.5016,-0.5501,-0.6047,-0.6485,0.0,-0.7268,-0.7729,-0.7329,-0.7577,-0.8631,-1.102,-1.1517,-1.2321,-1.5087,-1.5483,-1.5523,-1.5818,-1.5832,-1.5832,-1.5832,-1.5832,-1.5832,-1.5832,-1.5832,-1.5832,-1.5832,-1.5832,-1.5832,-1.5832,-1.5832,-1.5785,-1.5685,-1.5778,-1.5778,-1.5685,-1.5778,-1.5832,-1.5832,-1.6092,-1.6226,-1.6233,-1.6526,-1.666,-1.666,-1.6693,-1.6707,-1.6707,-1.6707,-1.6707,-1.6734,-1.7001,-1.7081,-1.7027,-1.6794,-1.6707,-1.6707,0.0,0.0,0.0,0.0,0.0,0.0,0.0,0.0,0.0,0.0,0.0,0.0,0.0,0.0,0.0,0.0,0.0,0.0,-0.3367,-0.2883,-0.2916,-0.3608,-0.1335,0.0,0.0,0.0,0.0,-0.0,-0.2785,-0.4137,-0.4137,-0.2777,-0.1343,0.0,0.0,0.0,0.0,0.0,0.0,0.0,0.0,0.0,0.0,0.0,0.0,0.0,0.0,0.0,0.0,0.0,0.0,0.0,0.0,-0.1573,-0.3695,-0.5405,-0.596,0.0,-0.5782,-0.5882,-0.6176,-0.6427,-0.6943,-0.74,-0.7465,-0.777,-0.7987,-0.7797,-0.7909,-0.8825,-1.1458,-1.1532,-1.2138,-1.5259,-1.5398,-1.5244,-1.5758,-1.5832,-1.5832,-1.5832,-1.5231,-1.4883,-1.505,-1.5531,-1.5618,-1.5104,-1.5538,-1.5832,-1.5832,-1.5832,-1.5832,-1.5832,-1.5832,-1.5832,-1.5832,-1.5999,-1.6086,-1.6092,-1.6386,-1.6526,-1.6533,-1.6827,-1.7054,-1.7215,-1.7215,-1.7215,-1.7215,-1.7215,-1.7215,-1.7228,-1.7355,-1.7402,-1.7388,-1.7261,-1.7215,-1.7215,0.0,0.0,0.0,0.0,0.0,0.0,0.0,0.0,0.0,0.0,0.0,0.0,0.0,0.0,0.0,0.0,0.0,0.0,0.0,-0.1404,-0.1381,-0.4399,-0.1649,0.0,0.0,0.0,0.0,-0.0,-0.477,-0.7135,-0.7045,-0.5379,-0.3664,-0.1878,-0.0626,0.0,0.0,0.0,0.0,0.0,0.0,0.0,0.0,0.0,0.0,0.0,0.0,0.0,0.0,0.0,0.0,0.0,0.0,-0.0263,-0.1039,-0.3215,-0.422,-0.4806,-0.5545,-0.6182,-0.6729,-0.7058,-0.7499,-0.7889,-0.8011,-0.8038,-0.8038,-0.8038,-0.8038,-0.8825,-1.1458,-1.1358,-1.2021,-1.524,-1.5297,-1.5104,-1.5738,-1.5832,-1.5712,-1.5384,-1.4603,-1.3941,-1.3581,-1.4643,-1.5217,-1.4903,-1.5471,-1.5832,-1.5832,-1.5832,-1.5832,-1.5832,-1.5912,-1.5952,-1.5952,-1.6246,-1.6393,-1.6393,-1.6687,-1.6827,-1.684,-1.7134,-1.7382,-1.7582,-1.7582,-1.7582,-1.7582,-1.7582,-1.7582,-1.7582,-1.7582,-1.7582,-1.7582,-1.7582,-1.7582,-1.7582,0.0,0.0,0.0,0.0,0.0,0.0,0.0,0.0,0.0,0.0,0.0,0.0,0.0,0.0,0.0,0.0,0.0,0.0,0.0,-0.0668,-0.0073,-0.0157,-0.0079,0.0,0.0,0.0,0.0,-0.0,-0.477,-0.7135,-0.7135,-0.7022,-0.692,-0.6646,-0.2056,0.0,0.0,0.0,0.0,0.0,0.0,0.0,0.0,0.0,0.0,0.0,0.0,0.0,0.0,0.0,0.0,0.0,0.0,-0.1019,0.0,-0.2261,-0.3589,-0.5229,-0.5805,-0.5732,-0.5691,-0.6851,-0.7265,-0.7506,-0.794,-0.8038,-0.8038,-0.8038,-0.8038,-0.8825,-1.1458,-1.1833,-1.2694,-1.5337,-1.5805,-1.5798,-1.5825,-1.5832,-1.5411,-1.4275,-1.4108,-1.33,-1.1296,-1.2946,-1.4596,-1.5705,-1.5812,-1.5832,-1.5832,-1.5832,-1.5832,-1.5832,-1.6112,-1.6259,-1.6259,-1.6547,-1.6693,-1.6693,-1.6994,-1.7134,-1.7148,-1.7435,-1.7575,-1.7582,-1.7582,-1.7582,-1.7582,-1.7582,-1.7582,-1.7582,-1.7582,-1.7582,-1.7582,-1.7582,-1.7582,-1.7582,0.0,0.0,0.0,0.0,0.0,0.0,0.0,0.0,0.0,0.0,0.0,0.0,0.0,0.0,0.0,0.0,0.0,0.0,0.0,-0.1101,0.0,0.0,0.0,0.0,0.0,0.0,0.0,-0.0,-0.1603,-0.4034,-0.7115,-0.7098,-0.7091,-0.7002,-0.5466,-0.2952,0.0,0.0,0.0,0.0,0.0,0.0,0.0,0.0,0.0,0.0,0.0,0.0,0.0,0.0,0.0,0.0,0.0,-0.0356,-0.1104,-0.3128,-0.4623,-0.559,-0.5616,-0.6054,-0.6637,-0.7041,-0.7482,-0.7855,-0.8004,-0.8038,-0.8038,-0.8038,-0.7723,-0.7989,-0.9708,-1.0154,-1.0974,-1.3561,-1.3231,-1.3171,-1.4352,-1.3498,-1.3065,-1.389,-1.3342,-1.3247,-1.4115,-1.4135,-1.4001,-1.3794,-1.505,-1.5832,-1.5832,-1.6019,-1.6126,-1.6126,-1.6406,-1.656,-1.656,-1.6854,-1.7001,-1.7007,-1.7295,-1.7442,-1.7442,-1.7542,-1.7582,-1.7582,-1.7582,-1.7582,-1.7582,-1.7582,-1.7582,-1.7582,-1.7582,-1.7582,-1.7582,-1.7582,-1.7582,-1.7582,0.0,0.0,0.0,0.0,0.0,0.0,0.0,0.0,0.0,0.0,0.0,0.0,0.0,0.0,0.0,0.0,0.0,0.0,0.0,0.0,-0.1098,-0.0667,-0.0559,-0.0509,-0.0676,-0.1097,-0.1301,-0.1258,-0.2101,-0.4113,-0.7094,-0.7081,-0.7074,-0.7074,-0.7088,-0.5102,-0.1607,-0.0448,-0.054,-0.1355,-0.0349,0.0,0.0,0.0,0.0,0.0,0.0,0.0,0.0,0.0,0.0,0.0,0.0,0.0,-0.0571,-0.3451,-0.5029,-0.5779,-0.5878,-0.6481,-0.7129,-0.7397,-0.7753,-0.8038,-0.8038,-0.8038,-0.8038,-0.8038,-0.7729,-0.7738,-0.8839,-0.9292,-1.0072,-1.1925,-1.1727,-1.1834,-1.3053,-1.2198,-1.1906,-1.3117,-1.2667,-1.2866,-1.4376,-1.4369,-1.3961,-1.3273,-1.4549,-1.5357,-1.5357,-1.5645,-1.5999,-1.6413,-1.6714,-1.6867,-1.6867,-1.7161,-1.7301,-1.7308,-1.7495,-1.7582,-1.7582,-1.7582,-1.7355,-1.6981,-1.7402,-1.7348,-1.6987,-1.7408,-1.7582,-1.7582,-1.7582,-1.7582,-1.7582,-1.7582,-1.7582,-1.7582,0.0,0.0,0.0,0.0,0.0,0.0,0.0,0.0,0.0,0.0,0.0,0.0,0.0,0.0,0.0,0.0,0.0,0.0,0.0,0.0,0.0,-0.1939,-0.1544,-0.1506,-0.1847,-0.2979,-0.3622,-0.3722,-0.5942,-0.6997,-0.6994,-0.697,-0.6964,-0.7051,-0.7071,-0.6274,-0.4669,-0.1587,-0.1696,-0.3694,-0.1302,-0.016,0.0,0.0,0.0,0.0,0.0,0.0,0.0,0.0,-0.041,-0.0403,-0.0245,-0.019,-0.0726,-0.3318,-0.4886,-0.5975,-0.664,-0.6939,-0.7153,-0.7862,-0.8038,-0.8038,-0.8038,-0.8038,-0.8028,-0.7991,-0.7957,-0.808,-0.8547,-0.9101,-0.9766,-1.0507,-1.1084,-1.1514,-1.1718,-1.1742,-1.1703,-1.1927,-1.2089,-1.2159,-1.2372,-1.3712,-1.4489,-1.4155,-1.4442,-1.4629,-1.4629,-1.4917,-1.5585,-1.6693,-1.7014,-1.7174,-1.7174,-1.7442,-1.7582,-1.7582,-1.7582,-1.7582,-1.7582,-1.7582,-1.6974,-1.5985,-1.7094,-1.6947,-1.6005,-1.7121,-1.7582,-1.7582,-1.7582,-1.7595,-1.7609,-1.7609,-1.7615,-1.7629,0.0,0.0,0.0,0.0,0.0,0.0,0.0,0.0,0.0,0.0,0.0,0.0,0.0,0.0,0.0,0.0,0.0,0.0,0.0,0.0,0.0,0.0,0.0,0.0,0.0,0.0,0.0,0.0,0.0,-0.5709,-0.5403,-0.5397,-0.5535,0.0,-0.614,-0.6075,-0.5627,-0.4528,-0.3366,-0.2491,0.0,-0.2616,0.0,0.0,0.0,0.0,0.0,0.0,0.0,0.0,-0.5961,-0.5582,-0.3618,-0.296,-0.3309,-0.4788,-0.6295,-0.7243,-0.6593,-0.7078,-0.7801,-0.7991,-0.8038,-0.8038,-0.8038,-0.8038,-0.7882,-0.7326,-0.6854,-0.6355,-0.5877,-0.6125,-0.6881,-0.8351,-0.8121,-0.8221,-0.9587,-0.9029,-0.8805,-0.9784,-1.1369,-1.2821,-1.3694,-1.521,-1.5758,-1.481,-1.5618,-1.6146,-1.6146,-1.6433,-1.6727,-1.7027,-1.7321,-1.7468,-1.7468,-1.7549,-1.7582,-1.7582,-1.7582,-1.7582,-1.7582,-1.7582,-1.7415,-1.7154,-1.7448,-1.7408,-1.7161,-1.7455,-1.7582,-1.7582,-1.7582,-1.7722,-1.7929,-1.7929,-1.807,-1.8257,0.0,0.0,0.0,0.0,0.0,0.0,0.0,0.0,0.0,0.0,0.0,0.0,0.0,0.0,0.0,0.0,0.0,0.0,0.0,0.0,0.0,0.0,0.0,0.0,0.0,0.0,0.0,0.0,0.0,0.0,0.0,-0.5036,-0.5166,-0.5428,-0.5649,-0.5722,-0.5726,0.0,0.0,0.0,0.0,0.0,0.0,0.0,0.0,0.0,0.0,0.0,0.0,0.0,0.0,-0.7765,-0.6193,-0.5793,-0.5915,-0.6556,-0.7349,-0.7838,-0.7201,-0.7529,-0.8038,-0.8038,-0.8038,-0.7953,-0.7628,-0.7553,-0.7322,-0.6508,-0.6071,-0.5562,-0.466,-0.5011,-0.5756,-0.6656,-0.6716,-0.7024,-0.8111,-0.7754,-0.7789,-0.9042,-1.0418,-1.1806,-1.333,-1.4361,-1.4986,-1.4986,-1.566,-1.6132,-1.6132,-1.6406,-1.6807,-1.7321,-1.7495,-1.7582,-1.7582,-1.7582,-1.7582,-1.7582,-1.7582,-1.7582,-1.7582,-1.7582,-1.7301,-1.684,-1.7361,-1.7288,-1.6854,-1.7368,-1.7662,-1.7789,-1.7789,-1.7976,-1.8243,-1.8243,-1.8343,-1.851,0.0,0.0,0.0,0.0,0.0,0.0,0.0,0.0,0.0,0.0,0.0,0.0,0.0,0.0,0.0,0.0,0.0,0.0,0.0,0.0,0.0,0.0,0.0,0.0,0.0,0.0,0.0,0.0,0.0,0.0,0.0,0.0,0.0,0.0,0.0,0.0,0.0,0.0,0.0,0.0,0.0,0.0,0.0,0.0,0.0,0.0,0.0,0.0,0.0,0.0,-0.704,-0.7844,-0.7974,-0.8024,-0.8007,-0.7886,-0.7923,-0.7942,-0.7866,-0.7977,-0.8038,-0.8038,-0.8038,-0.7868,-0.7224,-0.6983,-0.6647,-0.5772,-0.5494,-0.5172,-0.4338,-0.4875,-0.5495,-0.5586,-0.6299,-0.6802,-0.6851,-0.7187,-0.7797,-0.8796,-0.9296,-1.0236,-1.205,-1.2531,-1.3268,-1.4653,-1.5158,-1.549,-1.5685,-1.5925,-1.6533,-1.7549,-1.7582,-1.7582,-1.7582,-1.7582,-1.7582,-1.7582,-1.7582,-1.7582,-1.7582,-1.7582,-1.7027,-1.6119,-1.7141,-1.7027,-1.6206,-1.7221,-1.7829,-1.8103,-1.8103,-1.829,-1.8551,-1.8551,-1.8577,-1.8644,0.0,0.0,0.0,0.0,0.0,0.0,0.0,0.0,0.0,0.0,0.0,0.0,0.0,0.0,0.0,0.0,0.0,0.0,0.0,0.0,0.0,0.0,0.0,0.0,0.0,0.0,0.0,0.0,0.0,0.0,0.0,0.0,0.0,0.0,0.0,0.0,0.0,0.0,0.0,0.0,0.0,0.0,0.0,0.0,0.0,0.0,0.0,0.0,0.0,0.0,-0.6863,-0.7138,-0.7759,-0.7962,-0.7904,-0.7373,-0.7563,-0.7866,-0.7397,-0.7662,-0.8038,-0.8038,-0.8038,-0.8004,-0.7875,-0.7272,-0.6522,-0.5749,-0.4999,-0.4378,-0.4224,-0.4546,-0.5046,-0.5647,-0.6094,-0.6287,-0.5895,-0.6732,-0.7324,-0.7197,-0.8816,-1.024,-1.112,-1.1904,-1.2814,-1.3581,-1.4761,-1.5927,-1.7098,-1.7248,-1.7368,-1.7575,-1.7582,-1.7582,-1.7582,-1.7582,-1.7582,-1.7582,-1.7582,-1.7582,-1.7582,-1.7582,-1.7475,-1.7288,-1.7495,-1.7615,-1.7682,-1.7883,-1.8143,-1.841,-1.841,-1.8591,-1.8844,-1.8844,-1.9005,-1.9219,0.0,0.0,0.0,0.0,0.0,0.0,0.0,0.0,0.0,0.0,0.0,0.0,0.0,0.0,0.0,0.0,0.0,0.0,0.0,0.0,0.0,0.0,0.0,0.0,0.0,0.0,-0.2947,-0.3018,0.0,-0.3048,-0.3189,-0.3189,-0.3273,-0.3459,0.0,0.0,0.0,0.0,0.0,0.0,0.0,0.0,0.0,0.0,0.0,0.0,0.0,0.0,0.0,0.0,-0.6104,-0.6296,-0.7567,-0.8038,-0.7923,-0.7316,-0.7567,-0.7906,-0.7305,-0.758,-0.8038,-0.8038,-0.8038,-0.7814,-0.6959,-0.6434,-0.5755,-0.446,-0.3853,-0.3484,-0.3446,-0.3673,-0.4273,-0.5494,-0.5945,-0.6257,-0.659,-0.7193,-0.7519,-0.7302,-0.8317,-0.9118,-0.9347,-0.985,-1.0531,-1.162,-1.2265,-1.3811,-1.6355,-1.7147,-1.7582,-1.7582,-1.7582,-1.7582,-1.7582,-1.7582,-1.7582,-1.7582,-1.7582,-1.7582,-1.7582,-1.7582,-1.7669,-1.7822,-1.7822,-1.7642,-1.7395,-1.8023,-1.8083,-1.7856,-1.8477,-1.8898,-1.9152,-1.9152,-1.9245,-1.9366,0.0,0.0,0.0,0.0,0.0,0.0,0.0,0.0,0.0,0.0,0.0,0.0,0.0,0.0,0.0,0.0,0.0,0.0,0.0,0.0,0.0,0.0,0.0,0.0,0.0,0.0,0.0,-0.3082,-0.3008,0.0,0.0,0.0,0.0,0.0,-0.3323,-0.3436,-0.3578,0.0,0.0,0.0,0.0,-0.3581,0.0,0.0,0.0,0.0,0.0,0.0,0.0,0.0,-0.5331,-0.561,-0.7169,-0.7705,-0.759,-0.7337,-0.7571,-0.777,-0.7424,-0.7682,-0.8045,-0.8045,-0.8048,-0.7665,-0.6409,-0.5832,-0.5157,-0.3749,-0.3113,-0.2815,-0.2731,-0.2881,-0.3592,-0.5423,-0.5745,-0.6183,-0.7299,-0.7522,-0.7645,-0.7838,-0.7967,-0.8089,-0.8218,-0.8116,-0.8485,-0.9819,-1.023,-1.1709,-1.4837,-1.6393,-1.7147,-1.7147,-1.747,-1.7582,-1.7582,-1.7582,-1.7582,-1.7582,-1.7582,-1.7615,-1.7682,-1.7682,-1.7849,-1.8143,-1.8143,-1.7629,-1.6894,-1.809,-1.8056,-1.7361,-1.8551,-1.9158,-1.9366,-1.9366,-1.9366,-1.9366,0.0,0.0,0.0,0.0,0.0,0.0,0.0,0.0,0.0,0.0,0.0,0.0,0.0,0.0,0.0,0.0,0.0,0.0,0.0,0.0,0.0,0.0,0.0,0.0,0.0,0.0,0.0,-0.3082,-0.3068,0.0,0.0,0.0,0.0,0.0,0.0,-0.3478,-0.3571,-0.3386,0.0,0.0,0.0,0.0,0.0,0.0,0.0,0.0,0.0,0.0,0.0,0.0,0.0,-0.5297,-0.6395,-0.6605,-0.6687,-0.7639,-0.7556,-0.7329,-0.7821,-0.7912,-0.7969,-0.7969,-0.7979,-0.7935,-0.782,-0.6537,-0.5396,-0.5204,-0.3874,-0.2698,-0.2716,-0.274,-0.3452,-0.562,-0.5443,-0.5481,-0.6807,-0.6881,-0.7105,-0.7923,-0.8031,-0.8255,-0.8801,-0.836,-0.8265,-0.892,-1.0252,-1.1788,-1.3367,-1.4877,-1.563,-1.563,-1.6929,-1.7582,-1.7582,-1.7582,-1.7582,-1.7582,-1.7582,-1.7729,-1.8003,-1.8003,-1.8163,-1.845,-1.845,-1.7936,-1.7201,-1.839,-1.8357,-1.7662,-1.8858,-1.9339,-1.9366,-1.9366,-1.9366,-1.9366,0.0,0.0,0.0,0.0,0.0,0.0,0.0,0.0,0.0,0.0,0.0,0.0,0.0,0.0,0.0,0.0,0.0,0.0,0.0,0.0,0.0,0.0,0.0,0.0,0.0,0.0,-0.3216,-0.3216,-0.3129,0.0,0.0,0.0,0.0,0.0,0.0,-0.3385,-0.3442,-0.3476,0.0,0.0,0.0,0.0,0.0,0.0,0.0,0.0,0.0,0.0,-0.4124,-0.4365,0.0,0.0,-0.4734,-0.4876,0.0,0.0,-0.7114,-0.7458,-0.6807,-0.7323,-0.7566,-0.6037,-0.5632,-0.5566,-0.5622,-0.5078,-0.4226,-0.3171,-0.2349,-0.185,-0.1847,-0.2332,-0.3041,-0.4025,-0.4663,-0.5552,-0.7082,-0.7282,-0.7573,-0.8472,-0.8581,-0.8533,-0.8411,-0.818,-0.814,-0.8381,-0.8906,-0.97,-1.0651,-1.2832,-1.4556,-1.5417,-1.5956,-1.628,-1.628,-1.7147,-1.7582,-1.7589,-1.7769,-1.7923,-1.8056,-1.823,-1.847,-1.8751,-1.8751,-1.7842,-1.6401,-1.7376,-1.6679,-1.5267,-1.6101,-1.7097,-1.7923,-1.7923,-1.8525,-1.9366,0.0,0.0,0.0,0.0,0.0,0.0,0.0,0.0,0.0,0.0,0.0,0.0,0.0,0.0,0.0,0.0,0.0,0.0,0.0,0.0,0.0,0.0,0.0,0.0,0.0,0.0,-0.3329,-0.3373,-0.331,-0.3256,0.0,0.0,-0.3314,-0.3373,0.0,0.0,0.0,0.0,0.0,0.0,0.0,0.0,0.0,0.0,0.0,0.0,0.0,0.0,0.0,0.0,0.0,0.0,0.0,0.0,0.0,0.0,-0.6508,-0.7151,-0.6515,-0.6616,-0.6545,-0.5438,-0.4022,-0.2807,-0.2787,-0.284,-0.2437,-0.116,-0.0904,-0.0904,-0.0904,-0.1442,-0.2039,0.0,0.0,-0.5581,-0.6837,-0.7175,-0.76,-0.8499,-0.8567,-0.8479,-0.8323,-0.8306,-0.8306,-0.8306,-0.8306,-0.8594,-0.9457,-1.1105,-1.2615,-1.4126,-1.4556,-1.4984,-1.5417,-1.658,-1.7277,-1.7722,-1.8029,-1.8036,-1.7802,-1.8364,-1.8584,-1.8544,-1.8898,-1.8023,-1.6401,-1.7384,-1.6264,-1.4105,-1.4918,-1.5666,-1.6256,-1.6256,-1.7331,-1.8648,0.0,0.0,0.0,0.0,0.0,0.0,0.0,0.0,0.0,0.0,0.0,0.0,0.0,0.0,0.0,0.0,0.0,0.0,0.0,0.0,0.0,0.0,0.0,0.0,0.0,0.0,-0.3468,-0.3578,-0.3578,-0.3575,-0.3575,-0.3575,-0.3578,-0.3571,0.0,0.0,0.0,0.0,0.0,0.0,0.0,0.0,0.0,0.0,0.0,0.0,0.0,0.0,0.0,0.0,0.0,0.0,0.0,-0.3604,-0.3917,0.0,-0.5748,-0.6033,-0.7575,-0.6084,-0.4626,-0.7296,-0.3985,-0.0081,-0.007,-0.0059,-0.0047,-0.0,-0.0,-0.0,-0.0,-0.0034,-0.0307,-0.1172,-0.3444,0.0,-0.5686,-0.616,-0.6817,-0.7716,-0.7699,-0.796,-0.8842,-0.893,-0.893,-0.893,-0.893,-0.9585,-1.1,-0.9699,-0.9588,-1.1105,-1.2512,-1.4019,-1.5417,-1.5784,-1.6581,-1.805,-1.8343,-1.8016,-1.7201,-1.8384,-1.8437,-1.7662,-1.8851,-1.8677,-1.7655,-1.8871,-1.7735,-1.5296,-1.6562,-1.602,-1.4604,-1.4604,-1.5666,-1.6968,0.0,0.0,0.0,0.0,0.0,0.0,0.0,0.0,0.0,0.0,0.0,0.0,0.0,0.0,0.0,0.0,0.0,0.0,0.0,0.0,0.0,0.0,0.0,0.0,0.0,0.0,0.0,0.0,-0.3527,-0.3581,-0.3581,-0.3581,-0.3581,-0.3578,-0.3527,-0.3449,0.0,0.0,0.0,0.0,0.0,0.0,-0.3393,0.0,0.0,0.0,0.0,0.0,0.0,0.0,0.0,0.0,0.0,0.0,0.0,-0.4166,-0.3123,-0.2371,-0.4903,-0.614,-0.6073,-0.3214,-0.128,0.0,0.0,0.0,0.0,0.0,0.0,0.0,0.0,0.0,-0.008,-0.0375,-0.109,-0.2775,-0.6138,-0.6253,-0.6629,-0.8371,-0.8543,-0.8628,-0.891,-0.8567,-0.8496,-0.8906,-0.8557,-0.8709,-0.9567,-0.9154,-0.9592,-1.0996,-1.1538,-1.2032,-1.2602,-1.3673,-1.5121,-1.6648,-1.7028,-1.7192,-1.7298,-1.8591,-1.8624,-1.7649,-1.8844,-1.8691,-1.7569,-1.7704,-1.613,-1.3568,-1.3664,-1.3407,-1.2933,-1.2933,-1.4004,-1.5548,0.0,0.0,0.0,0.0,0.0,0.0,0.0,0.0,0.0,0.0,0.0,0.0,0.0,0.0,0.0,0.0,0.0,0.0,0.0,0.0,0.0,0.0,0.0,0.0,0.0,0.0,0.0,0.0,0.0,0.0,-0.3581,-0.3581,-0.3581,-0.3581,-0.3581,-0.3493,0.0,0.0,0.0,0.0,0.0,0.0,-0.3326,0.0,0.0,0.0,0.0,0.0,0.0,0.0,0.0,0.0,0.0,0.0,0.0,0.0,-0.1894,-0.0395,-0.2314,-0.5366,-0.6676,-0.1354,0.0,0.0,0.0,0.0,0.0,0.0,0.0,0.0,0.0,0.0,-0.0354,-0.1517,-0.1688,-0.2699,-0.5728,-0.6013,-0.6459,-0.7841,-0.836,-0.8689,-0.8916,-0.8598,-0.8533,-0.891,-0.8591,-0.8543,-0.892,-0.8991,-0.9461,-1.0334,-1.0334,-1.0711,-1.1255,-1.2979,-1.46,-1.6232,-1.7183,-1.7544,-1.7361,-1.8738,-1.8718,-1.7649,-1.8844,-1.8945,0.0,-1.7995,-1.6126,-1.3483,-1.3207,-1.2333,-1.1257,-1.1257,-1.2693,-1.4723,0.0,0.0,0.0,0.0,0.0,0.0,0.0,0.0,0.0,0.0,0.0,0.0,0.0,0.0,0.0,0.0,0.0,0.0,0.0,0.0,0.0,0.0,0.0,0.0,0.0,0.0,0.0,-0.3293,-0.3344,-0.3475,-0.3581,0.0,-0.3581,-0.3581,-0.3581,-0.3487,-0.3273,-0.2995,-0.2903,-0.2907,-0.3049,-0.3155,0.0,0.0,0.0,0.0,0.0,0.0,0.0,0.0,0.0,0.0,0.0,0.0,0.0,0.0,0.0,0.0,0.0,-0.3629,-0.625,-0.1235,0.0,0.0,0.0,0.0,0.0,0.0,0.0,0.0,0.0,0.0,-0.0928,-0.3742,-0.4423,-0.4624,-0.4662,-0.5787,-0.6552,-0.6508,-0.7451,-0.8306,-0.8825,-0.8913,-0.894,-0.894,-0.894,-0.894,-0.894,-0.9076,-0.9154,-0.9154,-0.9174,-0.9968,-1.1297,-1.325,-1.4934,-1.6383,-1.8359,-1.8579,-1.7502,-1.8784,-1.8718,-1.7649,-1.8844,-1.9366,-1.9366,-1.9366,-1.7455,-1.4604,-1.4604,-1.2573,-0.9822,-0.9822,-1.1736,-1.4247,0.0,0.0,0.0,0.0,0.0,0.0,0.0,0.0,0.0,0.0,0.0,0.0,0.0,0.0,0.0,0.0,0.0,0.0,0.0,0.0,0.0,0.0,0.0,0.0,0.0,0.0,0.0,-0.3135,-0.3334,-0.3475,-0.3581,-0.3581,0.0,0.0,0.0,-0.3429,-0.3122,-0.2985,-0.2842,-0.2747,-0.29,-0.3046,0.0,0.0,0.0,0.0,-0.3356,-0.3384,0.0,0.0,0.0,0.0,0.0,0.0,0.0,0.0,-0.046,0.0,0.0,0.0,-0.1562,-0.0335,0.0,0.0,0.0,0.0,0.0,0.0,0.0,0.0,0.0,0.0,-0.0259,-0.0917,-0.3949,-0.6152,-0.615,-0.6949,-0.7329,-0.6875,-0.795,-0.8601,-0.8282,-0.8665,-0.894,-0.894,-0.894,-0.894,-0.894,-0.9076,-0.9154,-0.9154,-0.9381,-1.031,-1.1798,-1.235,-1.3546,-1.5493,-1.6912,-1.7133,-1.6313,-1.841,-1.8718,-1.7649,-1.8844,-1.9366,-1.9366,-1.9366,-1.7455,-1.4604,-1.4604,-1.2573,-0.9822,-0.9822,-1.0301,-1.1257,0.0,0.0,0.0,0.0,0.0,0.0,0.0,0.0,0.0,0.0,0.0,0.0,0.0,0.0,0.0,0.0,0.0,0.0,0.0,0.0,0.0,0.0,0.0,0.0,0.0,0.0,0.0,0.0,0.0,-0.3361,0.0,0.0,0.0,0.0,0.0,-0.3344,-0.3072,-0.2968,-0.2822,-0.273,-0.2849,0.0,0.0,0.0,0.0,0.0,-0.3452,-0.3313,0.0,-0.1858,-0.0798,0.0,0.0,0.0,0.0,0.0,0.0,0.0,0.0,0.0,0.0,0.0,0.0,0.0,0.0,0.0,0.0,0.0,0.0,0.0,0.0,-0.1638,-0.1833,-0.2518,-0.4638,-0.6317,-0.6623,-0.7068,-0.7288,-0.6966,-0.7573,-0.8021,-0.8038,-0.8584,-0.894,-0.894,-0.894,-0.8967,-0.9032,-0.9178,-0.9289,-0.9361,-0.9588,-1.0025,-1.089,-1.2373,-1.3456,-1.4137,-1.6822,-1.7604,-1.6693,-1.8531,-1.9011,-1.8397,-1.8364,-1.8738,-1.9312,-1.8631,-1.7359,-1.5666,-1.4842,-1.3053,-1.0778,-1.0061,-1.0781,-1.2213,0.0,0.0,0.0,0.0,0.0,0.0,0.0,0.0,0.0,0.0,0.0,0.0,0.0,0.0,0.0,0.0,0.0,0.0,0.0,0.0,0.0,0.0,0.0,0.0,0.0,0.0,0.0,0.0,0.0,0.0,0.0,0.0,-0.3581,0.0,-0.3437,-0.3242,-0.3072,-0.2944,-0.2801,-0.2726,-0.2822,0.0,0.0,0.0,0.0,0.0,0.0,0.0,0.0,-0.0527,0.0,0.0,0.0,0.0,0.0,0.0,0.0,0.0,0.0,0.0,0.0,0.0,0.0,0.0,0.0,0.0,0.0,0.0,0.0,0.0,0.0,-0.3549,-0.399,-0.5186,-0.5639,-0.6109,-0.6742,-0.6912,-0.7031,-0.6939,-0.7109,-0.7448,-0.7987,-0.8584,-0.894,-0.894,-0.894,-0.9001,-0.9147,-0.93,-0.9452,-0.9605,-0.9747,-0.9764,-0.9642,-1.2733,-1.3919,-1.3161,-1.7169,-1.8506,-1.7622,-1.8818,-1.9366,-1.9299,-1.8036,-1.8203,-1.9272,-1.8009,-1.7321,-1.685,-1.5192,-1.3651,-1.1976,-1.066,-1.1856,-1.4242,0.0,0.0,0.0,0.0,0.0,0.0,0.0,0.0,0.0,0.0,0.0,0.0,0.0,0.0,0.0,0.0,0.0,0.0,0.0,0.0,0.0,0.0,0.0,0.0,0.0,0.0,0.0,0.0,0.0,0.0,-0.3581,-0.3581,-0.3581,-0.3568,-0.3283,-0.3144,-0.3103,-0.2829,-0.2737,-0.2716,-0.2706,0.0,0.0,0.0,0.0,0.0,0.0,0.0,0.0,-0.0108,0.0,0.0,0.0,0.0,0.0,0.0,0.0,0.0,0.0,0.0,0.0,0.0,0.0,0.0,0.0,0.0,0.0,0.0,0.0,0.0,0.0,-0.326,-0.368,-0.3912,-0.5391,-0.6734,-0.7191,-0.7548,-0.7489,-0.699,-0.7936,-0.8476,-0.8079,-0.8584,-0.894,-0.894,-0.894,-0.9001,-0.9147,-0.93,-0.9452,-0.9605,-0.9747,-0.9812,-0.9788,-1.1603,-1.3341,-1.49,-1.6588,-1.7459,-1.7622,-1.8818,-1.9366,-1.9359,-1.9125,-1.9158,-1.9352,-1.9118,-1.8211,-1.685,-1.5192,-1.3651,-1.2217,-1.1976,-1.2093,-1.2928,0.0,0.0,0.0,0.0,0.0,0.0,0.0,0.0,0.0,0.0,0.0,0.0,0.0,0.0,0.0,0.0,0.0,0.0,0.0,0.0,0.0,0.0,0.0,0.0,0.0,0.0,0.0,0.0,0.0,-0.3276,-0.3581,-0.3581,-0.3581,-0.3488,-0.3222,-0.308,-0.2991,-0.2774,-0.2712,-0.2712,0.0,0.0,0.0,0.0,0.0,0.0,0.0,0.0,0.0,0.0,0.0,0.0,0.0,0.0,0.0,0.0,0.0,0.0,0.0,0.0,-0.0679,-0.3602,-0.2892,-0.1194,0.0,0.0,0.0,0.0,0.0,0.0,0.0,-0.4033,-0.4868,-0.509,-0.6681,-0.7822,-0.7643,-0.7698,-0.774,-0.755,-0.8004,-0.8252,-0.8058,-0.8584,-0.894,-0.894,-0.894,-0.9039,-0.9262,-0.9344,-0.9486,-0.9717,-0.9788,-0.9822,-0.9822,-1.0539,-1.1953,-1.3922,-1.6012,-1.7227,-1.7622,-1.8818,-1.9366,-1.9325,-1.8517,-1.8624,-1.9305,-1.8504,-1.8295,-1.8163,-1.6497,-1.5424,-1.4826,-1.4826,-1.4826,-1.5063,0.0,0.0,0.0,0.0,0.0,0.0,0.0,0.0,0.0,0.0,0.0,0.0,0.0,0.0,0.0,0.0,0.0,0.0,0.0,0.0,0.0,0.0,0.0,0.0,0.0,0.0,-0.2808,-0.3069,-0.3065,-0.3276,-0.3581,-0.3588,-0.3506,-0.3385,-0.3154,-0.3012,-0.29,-0.2747,-0.2712,-0.2716,0.0,0.0,0.0,0.0,0.0,0.0,0.0,0.0,0.0,0.0,0.0,0.0,0.0,0.0,0.0,0.0,0.0,0.0,0.0,0.0,-0.1307,-0.6653,-0.5004,0.0,0.0,0.0,0.0,0.0,0.0,0.0,-0.3975,-0.4728,-0.5618,-0.6583,-0.7771,-0.8451,-0.8136,-0.8075,-0.8119,-0.8238,-0.8147,-0.8119,-0.8238,-0.8665,-0.894,-0.894,-0.894,-0.9052,-0.9313,-0.9361,-0.95,-0.9764,-0.9802,-0.9822,-0.9822,-0.9822,-1.0757,-1.2691,-1.5192,-1.6785,-1.7469,-1.8831,-1.9366,-1.9305,-1.8163,-1.8317,-1.9279,-1.8136,-1.8337,-1.9243,-1.7683,-1.6968,-1.6968,-1.6968,-1.7208,-1.7566,0.0,0.0,0.0,0.0,0.0,0.0,0.0,0.0,0.0,0.0,0.0,0.0,0.0,0.0,0.0,0.0,0.0,0.0,0.0,0.0,0.0,0.0,0.0,0.0,0.0,-0.2712,-0.2761,-0.2924,-0.3056,-0.3276,-0.3578,-0.3478,-0.3403,-0.3382,-0.3052,-0.2917,-0.29,-0.2747,-0.2712,-0.2716,-0.2693,0.0,0.0,0.0,0.0,0.0,0.0,0.0,0.0,0.0,0.0,0.0,0.0,0.0,0.0,0.0,0.0,0.0,0.0,0.0,-0.1281,-0.6672,-0.4065,0.0,-0.4265,-0.4151,0.0,-0.3625,0.0,-0.4237,-0.5125,-0.4467,-0.4516,-0.6979,-0.7446,-0.7834,-0.8659,-0.8859,-0.8862,-0.8872,-0.8866,-0.8862,-0.8872,-0.8913,-0.894,-0.894,-0.894,-0.9008,-0.9161,-0.9303,-0.9456,-0.9618,-0.9751,-0.9822,-0.9822,-0.9822,-1.0635,-1.2252,-1.3975,-1.551,-1.7095,-1.8726,-1.9366,-1.9359,-1.9252,-1.9272,-1.9359,-1.9252,-1.9272,-1.9243,-1.7683,-1.6968,-1.6968,-1.6968,-1.7923,-1.9243,0.0,0.0,0.0,0.0,0.0,0.0,0.0,0.0,0.0,0.0,0.0,0.0,0.0,0.0,0.0,0.0,0.0,0.0,0.0,0.0,0.0,0.0,0.0,-0.2712,-0.2712,-0.2712,-0.2798,-0.3042,-0.3286,-0.3466,-0.3578,-0.3464,0.0,-0.3198,-0.2998,-0.2856,-0.2764,-0.2713,-0.2706,-0.2707,-0.2706,-0.248,0.0,0.0,0.0,0.0,0.0,0.0,0.0,0.0,0.0,0.0,0.0,0.0,0.0,0.0,0.0,0.0,0.0,-0.1102,-0.2373,-0.2893,-0.402,0.0,0.0,-0.5851,-0.4544,-0.3851,-0.4475,-0.5207,-0.5515,-0.5755,-0.6373,-0.7429,-0.8011,-0.8511,-0.8899,-0.894,-0.894,-0.894,-0.894,-0.894,-0.894,-0.894,-0.894,-0.894,-0.894,-0.9001,-0.9147,-0.93,-0.9452,-0.9605,-0.9747,-0.9822,-0.9822,-1.0778,-1.1615,-1.2217,-1.3885,-1.6026,-1.8525,-1.9127,-1.9366,-1.9366,-1.9366,-1.9366,-1.9366,-1.9366,-1.9366,-1.9366,-1.8765,-1.8525,-1.8525,-1.8525,-1.8887,-1.9366,0.0,0.0,0.0,0.0,0.0,0.0,0.0,0.0,0.0,0.0,0.0,0.0,0.0,0.0,0.0,0.0,0.0,0.0,0.0,0.0,0.0,0.0,0.0,-0.2712,-0.2712,-0.2727,-0.2852,-0.3052,-0.3358,-0.3531,-0.3578,0.0,0.0,0.0,-0.2995,-0.2852,-0.2754,-0.273,-0.2691,-0.2695,-0.2694,-0.2714,0.0,0.0,0.0,0.0,0.0,0.0,0.0,0.0,0.0,0.0,0.0,0.0,0.0,0.0,-0.0403,-0.0841,-0.0841,-0.1625,-0.2352,-0.1948,0.0,0.0,-0.7757,-0.7052,-0.5914,-0.4864,-0.5373,-0.6063,-0.6106,-0.6756,-0.7366,-0.7706,-0.8218,-0.8665,-0.8906,-0.894,-0.894,-0.894,-0.894,-0.894,-0.894,-0.894,-0.894,-0.894,-0.894,-0.8981,-0.9079,-0.9228,-0.9381,-0.9534,-0.968,-1.0013,-1.0539,-1.1619,-1.2689,-1.376,-1.4831,-1.6503,-1.8648,-1.9127,-1.9366,-1.9366,-1.9366,-1.9366,-1.9366,-1.9366,-1.9366,-1.9366,-1.9366,-1.9366,-1.9366,-1.9366,-1.9366,-1.9366,0.0,0.0,0.0,0.0,0.0,0.0,0.0,0.0,0.0,0.0,0.0,0.0,0.0,0.0,0.0,0.0,0.0,0.0,0.0,0.0,0.0,0.0,0.0,-0.2712,-0.2712,-0.2832,-0.2913,-0.2913,-0.3165,-0.3386,-0.3578,-0.3464,0.0,0.0,-0.3087,-0.2953,-0.2874,-0.2739,-0.2698,-0.2713,-0.2695,-0.2672,-0.2475,0.0,0.0,0.0,0.0,0.0,0.0,0.0,0.0,0.0,0.0,0.0,0.0,0.0,-0.1283,-0.2683,-0.269,-0.1385,-0.0943,-0.4802,0.0,0.0,-0.7303,-0.7986,-0.7779,-0.7067,-0.6768,-0.6675,-0.7058,-0.7101,-0.7267,-0.758,-0.7726,-0.8085,-0.8832,-0.894,-0.894,-0.894,-0.894,-0.894,-0.894,-0.894,-0.894,-0.894,-0.894,-0.8937,-0.8937,-0.9072,-0.9336,-0.949,-0.9527,-1.0502,-1.2213,-1.2213,-1.388,-1.6968,-1.6968,-1.6968,-1.7085,-1.8642,-1.9366,-1.9366,-1.9366,-1.9366,-1.9366,-1.9366,-1.9366,-1.9366,-1.9366,-1.9366,-1.9366,-1.9366,-1.9366,-1.9366,0.0,0.0,0.0,0.0,0.0,0.0,0.0,0.0,0.0,0.0,0.0,0.0,0.0,0.0,0.0,0.0,0.0,0.0,0.0,0.0,0.0,0.0,0.0,0.0,0.0,0.0,-0.3072,-0.3179,-0.3266,-0.3386,0.0,0.0,0.0,-0.3159,0.0,0.0,-0.2753,-0.2725,-0.2708,-0.2576,-0.1323,-0.0803,-0.0745,0.0,0.0,0.0,0.0,0.0,0.0,0.0,0.0,0.0,0.0,0.0,0.0,0.0,-0.0399,-0.1097,-0.2346,-0.2323,-0.2264,-0.3844,0.0,0.0,0.0,-0.5737,0.0,0.0,-0.7122,-0.6552,-0.6391,-0.7255,-0.7939,-0.7662,-0.8163,-0.8682,-0.8906,-0.894,-0.894,-0.894,-0.894,-0.894,-0.894,-0.894,-0.894,-0.894,-0.9805,-1.0457,-1.0457,-1.1616,-1.2361,-1.2561,-1.2762,-1.2609,-1.2213,-1.447,-1.5542,-1.5311,-1.7572,-1.8648,-1.8642,-1.9127,-1.9366,-1.9366,-1.9366,-1.9366,-1.9366,-1.9366,-1.9366,-1.9366,-1.9366,-1.9366,-1.9366,-1.9366,-1.9366,-1.9366,0.0,0.0,0.0,0.0,0.0,0.0,0.0,0.0,0.0,0.0,0.0,0.0,0.0,0.0,0.0,0.0,0.0,0.0,0.0,0.0,0.0,0.0,0.0,0.0,0.0,-0.3029,-0.3155,0.0,0.0,0.0,0.0,0.0,0.0,-0.3182,0.0,-0.3246,-0.2782,-0.1951,-0.2058,-0.2525,-0.074,0.0,0.0,0.0,0.0,0.0,0.0,0.0,0.0,0.0,0.0,0.0,0.0,0.0,-0.0122,-0.0864,-0.08,-0.0959,-0.2871,-0.3247,-0.3345,-0.4562,-0.5411,-0.5699,-0.4466,-0.5026,-0.6247,-0.7698,-0.757,-0.7082,-0.681,-0.7733,-0.8367,-0.8007,-0.8506,-0.894,-0.894,-0.894,-0.894,-0.894,-0.894,-0.894,-0.894,-0.894,-0.894,-0.894,-1.0241,-1.1105,-1.1105,-1.2636,-1.3573,-1.3683,-1.4013,-1.3998,-1.3868,-1.5965,-1.685,-1.6503,-1.8525,-1.9366,-1.9366,-1.9366,-1.9366,-1.9366,-1.9366,-1.9366,-1.9366,-1.9366,-1.9366,-1.9366,-1.9366,-1.9366,-1.9366,-1.9366,-1.9366,-1.9366,0.0,0.0,0.0,0.0,0.0,0.0,0.0,0.0,0.0,0.0,-0.6107,0.0,0.0,0.0,0.0,0.0,0.0,0.0,0.0,0.0,0.0,0.0,0.0,0.0,0.0,0.0,0.0,0.0,0.0,0.0,0.0,0.0,-0.3266,-0.3266,0.0,-0.3053,-0.2739,-0.1207,-0.1295,-0.2293,-0.0652,0.0,0.0,0.0,0.0,0.0,0.0,0.0,0.0,0.0,0.0,0.0,0.0,0.0,-0.0331,-0.1979,-0.2209,-0.2325,-0.4302,-0.427,-0.4168,-0.6088,-0.577,-0.5133,-0.5284,-0.5664,-0.6312,-0.7746,-0.7987,-0.7957,-0.8028,-0.8272,-0.8465,-0.8479,-0.8726,-0.8923,-0.8937,-0.894,-0.894,-0.894,-0.894,-0.894,-0.894,-0.894,-0.8937,-0.9047,-1.0457,-1.1324,-1.1428,-1.294,-1.3806,-1.393,-1.4137,-1.5042,-1.6459,-1.6931,-1.7898,-1.9127,-1.9366,-1.9366,-1.9366,-1.9366,-1.9366,-1.9366,-1.9366,-1.9366,-1.9366,-1.9366,-1.9366,-1.9366,-1.9366,-1.9366,-1.9366,-1.9366,-1.9366,-1.9366,0.0,0.0,0.0,0.0,0.0,0.0,0.0,0.0,0.0,0.0,0.0,0.0,0.0,0.0,0.0,0.0,0.0,0.0,0.0,0.0,0.0,0.0,0.0,0.0,0.0,0.0,0.0,0.0,0.0,0.0,0.0,0.0,0.0,-0.3029,0.0,-0.3101,-0.1793,-0.4005,-0.3256,-0.0547,-0.0171,0.0,0.0,0.0,0.0,0.0,0.0,0.0,0.0,0.0,0.0,0.0,0.0,0.0,-0.0077,-0.0449,-0.3414,-0.6676,-0.7096,-0.5934,-0.4713,-0.5266,-0.5106,-0.5222,-0.6939,-0.7017,-0.6949,-0.7778,-0.7493,-0.7346,-0.7933,-0.8191,-0.835,-0.8465,-0.8638,-0.8801,-0.892,-0.894,-0.894,-0.894,-0.894,-0.894,-0.894,-0.894,-0.9372,-1.0566,-1.1973,-1.3264,-1.4449,-1.5849,-1.6744,-1.7034,-1.7104,-1.6913,-1.6459,-1.7811,-1.8186,-1.7566,-1.8765,-1.9366,-1.9366,-1.9366,-1.9366,-1.9366,-1.9366,-1.9366,-1.9366,-1.9366,-1.9366,-1.9366,-1.9366,-1.9366,-1.9366,-1.9366,-1.9366,-1.9366,0.0,0.0,0.0,0.0,0.0,0.0,0.0,0.0,0.0,0.0,0.0,0.0,0.0,0.0,0.0,0.0,0.0,0.0,0.0,0.0,0.0,0.0,0.0,0.0,0.0,0.0,0.0,0.0,0.0,0.0,0.0,0.0,0.0,-0.3029,0.0,-0.2841,-0.1384,-0.2722,-0.2013,0.0,0.0,0.0,0.0,0.0,0.0,0.0,0.0,0.0,0.0,0.0,0.0,0.0,0.0,0.0,0.0,0.0,-0.3066,-0.6463,-0.6478,-0.6002,-0.5559,-0.5863,-0.6127,-0.6508,-0.7322,-0.7485,-0.7573,-0.7878,-0.774,-0.758,-0.7967,-0.8167,-0.8296,-0.837,-0.8567,-0.8737,-0.8818,-0.8893,-0.894,-0.894,-0.894,-0.894,-0.894,-0.894,-0.9482,-1.1,-1.2512,-1.3911,-1.531,-1.6823,-1.7655,-1.7816,-1.7969,-1.774,-1.7235,-1.832,-1.8535,-1.7968,-1.8938,-1.9366,-1.9366,-1.9366,-1.9366,-1.9366,-1.9366,-1.9366,-1.9366,-1.9366,-1.9366,-1.9366,-1.9366,-1.9366,-1.9366,-1.9366,-1.9366,-1.9366,0.0,0.0,0.0,0.0,0.0,0.0,0.0,0.0,0.0,0.0,0.0,0.0,0.0,0.0,0.0,0.0,0.0,0.0,0.0,0.0,0.0,0.0,0.0,0.0,0.0,0.0,0.0,0.0,0.0,0.0,0.0,0.0,0.0,-0.3236,0.0,-0.2634,-0.1542,-0.0443,0.0,0.0,0.0,0.0,0.0,0.0,0.0,0.0,0.0,0.0,0.0,0.0,0.0,0.0,0.0,0.0,0.0,0.0,-0.1876,-0.4144,-0.4888,-0.585,-0.6674,-0.6847,-0.7295,-0.756,-0.7204,-0.7499,-0.7885,-0.8014,-0.8038,-0.8038,-0.8038,-0.8143,-0.8238,-0.8269,-0.8496,-0.8679,-0.8706,-0.8842,-0.894,-0.894,-0.894,-0.894,-0.894,-0.894,-0.9482,-1.1,-1.2512,-1.3911,-1.531,-1.6823,-1.7582,-1.7582,-1.7836,-1.7989,-1.805,-1.8531,-1.8824,-1.8925,-1.9225,-1.9366,-1.9366,-1.9366,-1.9366,-1.9366,-1.9366,-1.9366,-1.9366,-1.9366,-1.9366,-1.9366,-1.9366,-1.9366,-1.9366,-1.9366,-1.9366,-1.9366,0.0,0.0,0.0,0.0,0.0,0.0,0.0,0.0,0.0,0.0,-0.3768,0.0,0.0,0.0,0.0,0.0,0.0,0.0,0.0,0.0,0.0,0.0,-0.29,0.0,0.0,0.0,0.0,0.0,0.0,0.0,0.0,0.0,0.0,-0.3704,0.0,0.0,-0.2731,-0.0803,0.0,0.0,0.0,0.0,0.0,0.0,0.0,0.0,0.0,0.0,0.0,0.0,0.0,0.0,0.0,0.0,0.0,0.0,-0.029,-0.146,-0.5338,0.0,-0.7646,-0.7044,-0.6512,-0.6413,-0.7617,-0.7468,-0.7261,-0.7906,-0.8038,-0.8038,-0.8038,-0.8058,-0.8113,-0.8248,-0.8408,-0.856,-0.8693,-0.8842,-0.894,-0.894,-0.894,-0.894,-0.894,-0.894,-0.9482,-1.1,-1.2512,-1.3911,-1.531,-1.6823,-1.7582,-1.7582,-1.7622,-1.7776,-1.8043,-1.8123,-1.8417,-1.8925,-1.9225,-1.9366,-1.9366,-1.9366,-1.9366,-1.9366,-1.9366,-1.9366,-1.9366,-1.9366,-1.9366,-1.9366,-1.9366,-1.9366,-1.9366,-1.9366,-1.9366,-1.9366,0.0,0.0,0.0,0.0,0.0,0.0,0.0,0.0,0.0,0.0,0.0,-0.3593,0.0,0.0,0.0,0.0,0.0,0.0,0.0,0.0,0.0,-0.2903,-0.291,-0.29,-0.2873,0.0,0.0,0.0,0.0,0.0,0.0,-0.4161,-0.41,0.0,0.0,0.0,0.0,-0.1608,-0.0609,0.0,0.0,-0.0815,-0.1859,-0.0515,0.0,0.0,0.0,0.0,0.0,0.0,0.0,0.0,0.0,0.0,0.0,0.0,0.0,-0.0742,-0.4179,-0.5755,-0.656,-0.7302,-0.6668,-0.6193,-0.7699,-0.7461,-0.7139,-0.7885,-0.8038,-0.8038,-0.8038,-0.8038,-0.8062,-0.813,-0.8265,-0.8414,-0.856,-0.9455,-0.9701,-0.9037,-0.9588,-0.9805,-0.8937,-0.894,-0.9482,-1.1,-1.2512,-1.3911,-1.531,-1.6823,-1.7582,-1.7582,-1.7582,-1.7649,-1.7782,-1.7963,-1.8263,-1.8684,-1.8978,-1.9118,-1.9125,-1.9292,-1.9366,-1.9366,-1.9366,-1.9366,-1.9366,-1.9366,-1.9366,-1.9366,-1.9366,-1.9366,-1.9366,-1.9366,-1.9366,-1.9366,0.0,0.0,0.0,0.0,0.0,0.0,0.0,0.0,0.0,0.0,0.0,0.0,0.0,0.0,0.0,0.0,0.0,0.0,0.0,0.0,0.0,-0.2903,-0.291,-0.2856,-0.274,0.0,0.0,0.0,0.0,0.0,-0.435,-0.4606,-0.4589,0.0,-0.4843,-0.4548,0.0,0.0,0.0,-0.004,-0.0323,-0.1736,-0.3407,-0.1612,-0.0717,-0.0448,-0.0351,-0.0171,0.0,0.0,0.0,0.0,0.0,0.0,0.0,0.0,0.0,-0.0454,-0.2464,-0.4354,-0.6048,-0.6994,-0.66,-0.6262,-0.7255,-0.7041,-0.6854,-0.76,-0.7906,-0.8038,-0.8038,-0.8038,-0.8038,-0.8038,-0.817,-0.8306,-0.8414,-0.9531,-1.0134,-0.9516,-1.0108,-1.0241,-0.9482,-0.9154,-0.9375,-1.0457,-1.2295,-1.3804,-1.477,-1.6605,-1.7582,-1.7582,-1.7582,-1.7582,-1.7582,-1.7889,-1.8265,-1.8913,-1.8783,-1.8957,-1.9364,-1.926,-1.9516,-1.9924,-1.9591,-1.9366,-1.9366,-1.9366,-1.9366,-1.9366,-1.9366,-1.9366,-1.9366,-1.9366,-1.9366,-1.9366,0.0,0.0,0.0,0.0,0.0,0.0,0.0,0.0,0.0,0.0,0.0,0.0,0.0,0.0,0.0,-0.2712,-0.2712,-0.2716,-0.2726,-0.2719,-0.2751,-0.2903,-0.291,0.0,-0.2896,-0.2907,0.0,0.0,0.0,0.0,-0.3843,-0.4568,-0.4965,-0.5067,-0.4972,-0.5229,-0.5771,0.0,0.0,0.0,0.0,-0.2451,-0.3587,-0.3482,-0.2708,-0.1682,-0.1347,-0.0686,0.0,0.0,0.0,0.0,0.0,0.0,0.0,0.0,0.0,0.0,-0.0191,-0.3945,-0.7413,-0.5652,-0.5915,-0.6456,-0.6001,-0.5888,-0.6074,-0.6831,-0.7546,-0.8038,-0.8038,-0.8038,-0.8038,-0.8038,-0.817,-0.8272,-0.8282,-0.8632,-0.9348,-1.0625,-0.9712,-0.9482,-1.0891,-0.9699,-0.8937,-0.9047,-1.1647,-1.3372,-1.3372,-1.6068,-1.7582,-1.7582,-1.7582,-1.7582,-1.7582,-1.7889,-1.8676,-2.0052,-1.9009,-1.9299,-2.0759,-1.9477,-1.987,-2.1365,-2.004,-1.9366,-1.9366,-1.9366,-1.9366,-1.9366,-1.9366,-1.9366,-1.9366,-1.9366,-1.9366,-1.9366,0.0,0.0,0.0,0.0,0.0,0.0,0.0,0.0,0.0,0.0,0.0,0.0,0.0,-0.2654,-0.2675,-0.2575,-0.2658,-0.2723,-0.2822,-0.2734,-0.2751,-0.2903,-0.2815,-0.2764,-0.2764,-0.2764,0.0,0.0,0.0,-0.3158,-0.3802,-0.427,-0.4659,-0.5165,-0.5983,-0.5703,-0.4757,-0.583,0.0,0.0,-0.314,-0.3342,-0.3598,-0.3593,-0.3723,-0.384,-0.3055,-0.2347,-0.1545,-0.0375,0.0,0.0,0.0,0.0,0.0,0.0,0.0,0.0,0.0,-0.1422,-0.3112,-0.4127,-0.4542,-0.4782,-0.5239,-0.559,-0.5878,-0.6149,-0.7183,-0.7892,-0.7414,-0.7716,-0.8038,-0.8038,-0.8085,-0.8157,-0.8255,-0.9171,-0.9735,-0.9533,-1.0667,-1.1397,-1.1093,-1.1433,-1.1324,-1.0351,-1.2093,-1.3228,-1.3337,-1.5154,-1.6607,-1.7555,-1.7582,-1.7582,-1.7582,-1.7695,-1.8471,-1.9814,-1.9626,-1.9837,-2.0372,-2.0048,-1.9778,-1.9682,-2.0195,-2.1173,-2.2161,-2.1145,-2.0809,-2.0702,-1.9815,-1.9366,-1.9366,-1.9366,-1.9366,-1.9366,0.0,0.0,0.0,0.0,0.0,0.0,0.0,0.0,0.0,0.0,0.0,0.0,0.0,0.0,-0.2675,-0.2568,-0.2654,-0.2723,-0.2825,-0.2737,-0.2727,-0.2829,-0.2734,-0.2712,-0.2712,-0.2712,0.0,0.0,0.0,0.0,0.0,-0.3956,-0.4354,-0.482,-0.5928,-0.5789,0.0,0.0,-0.6523,-0.5515,-0.4841,-0.4574,-0.457,-0.416,-0.4382,-0.4901,-0.4419,-0.3953,-0.3303,-0.1958,-0.1036,-0.0391,-0.0078,0.0,0.0,0.0,0.0,0.0,0.0,0.0,-0.0428,-0.2205,-0.2532,-0.2759,-0.424,-0.5067,-0.5596,-0.5789,-0.6993,-0.7889,-0.7394,-0.7706,-0.8038,-0.8038,-0.8038,-0.8075,-0.8177,-0.9037,-0.9556,-0.9264,-1.1002,-1.2058,-1.1738,-1.2617,-1.2754,-1.186,-1.3093,-1.401,-1.3976,-1.5325,-1.658,-1.7555,-1.7582,-1.7582,-1.7582,-1.7582,-1.8304,-1.9635,-1.9852,-2.0227,-2.0763,-2.0452,-2.0192,-1.9997,-2.1167,-2.2096,-2.2871,-2.1986,-2.1586,-2.1472,-2.004,-1.9366,-1.9366,-1.9366,-1.9366,-1.9366,0.0,0.0,0.0,0.0,0.0,0.0,0.0,0.0,0.0,0.0,0.0,0.0,0.0,0.0,0.0,-0.2712,-0.2712,-0.2712,-0.2712,-0.2712,-0.2712,-0.2712,-0.2712,-0.2712,-0.2712,-0.2686,0.0,0.0,0.0,0.0,0.0,0.0,-0.4026,-0.418,-0.4694,-0.5382,-0.6213,-0.6393,-0.6936,-0.7493,-0.6161,-0.599,-0.6405,-0.5264,-0.4786,-0.4828,-0.5446,-0.5456,-0.5072,-0.4659,-0.315,-0.125,-0.0348,-0.0,0.0,0.0,0.0,0.0,0.0,0.0,0.0,0.0,0.0,-0.0602,-0.2979,-0.4298,-0.5164,-0.5732,-0.6956,-0.8001,-0.8007,-0.8024,-0.8038,-0.8038,-0.8038,-0.8038,-0.8038,-0.817,-0.8769,-1.0171,-1.0326,-1.1023,-1.2785,-1.2926,-1.3022,-1.3239,-1.4624,-1.5376,-1.5411,-1.6823,-1.7582,-1.7582,-1.7582,-1.7582,-1.7582,-1.7582,-1.8297,-1.9627,-1.9627,-2.0519,-2.2092,-2.0845,-2.1129,-2.2609,-2.2724,-2.2169,-2.1188,-2.1527,-2.1662,-2.1556,-2.0005,-1.9455,-1.9455,-1.9339,-1.9345,-1.9352,0.0,0.0,0.0,0.0,0.0,0.0,0.0,0.0,0.0,0.0,0.0,0.0,0.0,0.0,-0.2592,-0.2702,-0.2712,-0.2712,-0.2712,-0.2712,-0.2683,-0.2693,-0.2686,-0.2683,-0.2693,-0.2688,0.0,0.0,0.0,0.0,0.0,0.0,0.0,0.0,-0.4083,-0.4515,-0.4877,-0.5996,-0.5741,-0.4685,-0.6596,-0.6389,-0.5198,-0.7024,-0.6729,-0.5486,-0.676,-0.6427,-0.5512,-0.5894,-0.4931,-0.3326,-0.1504,-0.0504,0.0,0.0,0.0,0.0,0.0,0.0,0.0,0.0,0.0,0.0,-0.084,-0.2466,-0.4304,-0.6049,-0.6727,-0.7105,-0.7217,-0.7675,-0.8038,-0.8038,-0.8038,-0.8038,-0.8038,-0.8075,-0.8244,-0.886,-0.9815,-1.0625,-1.1232,-1.3268,-1.4124,-1.3118,-1.4548,-1.5444,-1.537,-1.6823,-1.7582,-1.7582,-1.7582,-1.7582,-1.7582,-1.7582,-1.8805,-2.1143,-2.1143,-2.1912,-2.3243,-2.2831,-2.1865,-2.0531,-2.2859,-2.3133,-2.2112,-2.3423,-2.3896,-2.3682,-2.1205,-2.0236,-2.0132,-1.9054,-1.8865,-1.9045,0.0,0.0,0.0,0.0,0.0,0.0,0.0,0.0,0.0,0.0,0.0,0.0,0.0,0.0,0.0,-0.2706,-0.2712,-0.2712,-0.2712,-0.2686,-0.2717,-0.2712,-0.2324,-0.2315,-0.2704,-0.2328,0.0,0.0,0.0,0.0,0.0,0.0,0.0,0.0,0.0,0.0,0.0,-0.5104,-0.5291,-0.4884,-0.702,-0.7454,-0.6958,-0.8918,-0.8855,-0.7873,-0.8514,-0.7978,-0.7022,-0.7163,-0.6047,-0.4409,-0.3037,-0.1955,-0.0994,-0.0236,0.0,0.0,0.0,0.0,0.0,0.0,0.0,0.0,-0.0646,-0.2205,-0.4109,-0.5887,-0.6777,-0.719,-0.697,-0.7282,-0.7577,-0.7577,-0.7577,-0.7685,-0.7994,-0.8038,-0.8072,-0.8163,-0.9365,-1.0331,-1.0523,-1.3196,-1.4601,-1.3964,-1.5289,-1.6242,-1.6337,-1.7147,-1.7582,-1.7582,-1.7582,-1.7891,-1.8401,-1.7891,-1.8708,-2.0837,-2.1448,-2.2156,-2.2868,-2.3484,-2.2876,-2.1363,-2.3213,-2.3622,-2.303,-2.4499,-2.4996,-2.4551,-2.2207,-2.104,-2.0397,-1.9654,-1.9133,-1.8744,0.0,0.0,0.0,0.0,0.0,0.0,0.0,0.0,0.0,0.0,0.0,0.0,0.0,0.0,0.0,0.0,-0.2688,-0.2688,-0.2659,-0.2683,0.0,-0.2698,-0.1799,-0.1656,-0.2397,-0.1785,0.0,0.0,0.0,0.0,0.0,0.0,0.0,0.0,0.0,0.0,0.0,-0.4019,-0.5182,-0.6524,-0.7554,-0.8706,-0.9901,-1.0829,-1.0893,-1.0502,-1.0283,-0.9578,-0.8553,-0.8044,-0.657,-0.4938,-0.4602,-0.3764,-0.2581,-0.0837,-0.0167,0.0,0.0,0.0,0.0,-0.0072,0.0,0.0,-0.1355,-0.2842,-0.4344,-0.5751,-0.6926,-0.7611,-0.7123,-0.6927,-0.6756,-0.6672,-0.677,-0.7135,-0.7807,-0.7987,-0.8011,-0.7926,-0.8962,-0.9867,-1.0125,-1.2348,-1.4148,-1.4826,-1.6272,-1.7275,-1.7569,-1.7582,-1.7582,-1.7582,-1.7793,-1.8401,-1.9627,-1.8401,-1.8506,-1.9826,-2.1143,-2.1752,-2.1954,-2.3285,-2.3791,-2.3692,-2.389,-2.3791,-2.3791,-2.5128,-2.5348,-2.4738,-2.3258,-2.1881,-2.0818,-2.071,-1.9787,-1.8658,0.0277,0.0,0.0,0.0,0.0,0.0,0.0,0.0,0.0,0.0,0.0,0.0,0.0,0.0,0.0,0.0,-0.25,-0.25,-0.2475,-0.2593,-0.2713,-0.2717,-0.1809,-0.1061,-0.0555,-0.178,0.0,0.0,0.0,0.0,0.0,0.0,0.0,0.0,0.0,0.0,0.0,-0.367,-0.4267,-0.5304,-0.771,-0.8731,-0.9212,-1.2176,-1.1527,-0.921,-1.0953,-0.9675,-0.7268,-0.7039,-0.6662,-0.6089,-0.4709,-0.4306,-0.4079,-0.259,-0.1158,0.0,0.0,-0.1424,-0.2428,-0.0482,0.0,0.0,-0.0285,-0.2071,-0.4438,-0.7045,-0.6659,-0.6282,-0.7587,-0.6846,-0.5828,-0.532,-0.5997,-0.6783,-0.7114,-0.7662,-0.7818,-0.7217,-0.7861,-0.8443,-0.8475,-1.0083,-1.1707,-1.2909,-1.5636,-1.7275,-1.7569,-1.7582,-1.7582,-1.7582,-1.8603,-1.9324,-1.9627,-1.9324,-1.993,-2.1245,-2.155,-2.2265,-2.3384,-2.4716,-2.4716,-2.3791,-2.4815,-2.4716,-2.3791,-2.5128,-2.5635,-2.5366,-2.4026,-2.3305,-2.2892,-2.1857,-2.0713,-1.9806,0.1517,0.0,0.0,0.0,0.0,0.0,0.0,0.0,0.0,0.0,0.0,0.0,0.0,0.0,0.0,0.0,0.0,0.0,0.0,0.0,-0.271,-0.2682,-0.1401,-0.046,-0.0,-0.0897,0.0,0.0,0.0,0.0,0.0,0.0,0.0,0.0,0.0,0.0,0.0,-0.3432,-0.3938,-0.4963,-0.8064,-0.9448,-1.0099,-1.3507,-1.3718,-1.229,-1.2757,-1.1019,-0.8318,-0.7135,-0.6814,-0.6671,-0.5844,-0.5147,-0.4527,-0.3922,-0.2601,-0.1253,-0.0782,-0.1541,-0.235,-0.1892,-0.0891,0.0,0.0,-0.18,-0.2402,-0.4488,-0.4793,-0.4997,-0.5852,-0.5374,-0.4577,-0.348,-0.425,-0.5165,-0.5754,-0.6771,-0.7485,-0.7482,-0.7811,-0.8038,-0.8038,-0.9291,-1.1065,-1.316,-1.5551,-1.7054,-1.7348,-1.7368,-1.7435,-1.7582,-1.8304,-1.9213,-2.0641,-1.993,-2.0641,-2.2667,-2.2667,-2.3076,-2.3791,-2.5128,-2.5333,-2.4707,-2.543,-2.5323,-2.4716,-2.543,-2.5742,-2.5635,-2.4922,-2.4304,-2.3592,-2.2976,-2.197,-2.09,0.2658,0.0,0.0,0.0,0.0,0.0,0.0,0.0,0.0,0.0,0.0,0.0,0.0,0.0,0.0,0.0,0.0,0.0,-0.2502,-0.2628,-0.2552,-0.2203,-0.0431,0.0513,0.0534,0.0344,0.0262,0.0,0.0,0.0,0.0,0.0,0.0,0.0,0.0,0.0,0.0,-0.3609,-0.4111,-0.5211,-0.8285,-0.9776,-1.0529,-1.3835,-1.4948,-1.4612,-1.3576,-1.1648,-0.9377,-0.7531,-0.6929,-0.6905,-0.6759,-0.5698,-0.4591,-0.472,-0.3816,-0.2628,-0.1859,-0.1672,-0.2016,-0.3133,-0.2007,-0.1035,0.0,0.0,0.0,-0.1272,-0.2419,-0.3229,-0.3219,-0.3229,-0.2921,-0.1939,-0.2653,-0.3557,-0.4355,-0.543,-0.6466,-0.7148,-0.7485,-0.7597,-0.757,-0.8946,-1.0936,-1.3726,-1.5364,-1.6439,-1.7048,-1.7121,-1.7255,-1.7495,-1.7864,-1.9213,-2.1651,-2.0538,-2.1253,-2.3692,-2.3692,-2.3692,-2.3791,-2.5128,-2.5742,-2.5742,-2.5742,-2.5742,-2.5742,-2.5742,-2.5742,-2.5742,-2.5742,-2.502,-2.4097,-2.4097,-2.3276,-2.2055,0.2616,0.2479,0.0,0.0,0.0,0.0,0.0,0.0,0.0,0.0,0.0,0.0,-0.019,-0.159,-0.1928,-0.0452,-0.0755,-0.1302,-0.188,-0.2413,-0.1997,-0.0377,0.143,0.2401,0.2381,0.1575,0.1156,0.0,0.0,0.0,0.0,0.0,0.0,0.0,-0.255,0.0,0.0,-0.4657,-0.4979,-0.588,-0.8066,-0.8526,-0.8188,-1.1156,-1.185,-1.1093,-1.058,-0.9509,-0.8119,-0.718,-0.6929,-0.6814,-0.6142,-0.5348,-0.4636,-0.4539,-0.3904,-0.3158,-0.2891,-0.3066,-0.3236,-0.2874,-0.2873,-0.2471,-0.081,0.0,-0.0038,-0.0182,0.0,-0.0445,-0.0471,0.0,0.0,-0.1639,-0.2627,-0.3288,-0.3314,-0.3364,-0.3713,-0.4551,-0.5494,-0.6006,-0.5881,-0.7781,-0.9984,-1.2386,-1.3788,-1.5221,-1.664,-1.7007,-1.7161,-1.7194,-1.8669,-2.0135,-2.1651,-2.155,-2.2257,-2.3692,-2.3692,-2.3692,-2.3791,-2.5128,-2.5742,-2.5742,-2.5742,-2.5742,-2.5742,-2.5742,-2.5742,-2.5742,-2.5742,-2.5635,-2.543,-2.543,-2.4609,-2.3484,0.3034,0.2993,0.0,0.0,0.0,0.0,0.0,0.0,0.0,0.0,0.0,0.0,0.0,-0.067,-0.1231,-0.1538,-0.0825,-0.048,-0.0752,-0.0,0.0,0.1553,0.179,0.2156,0.2703,0.2323,0.2185,0.0,0.2326,0.0,0.0,0.0,0.0,0.0,-0.1543,-0.3294,-0.5064,-0.472,-0.504,-0.5892,-0.6641,-0.6714,-0.6816,-1.0476,-1.1696,-1.1282,-1.0651,-0.9907,-0.8817,-0.6915,-0.6854,-0.7366,-0.6176,-0.5586,-0.5304,-0.5159,-0.428,-0.3376,-0.3612,-0.3829,-0.3918,-0.3778,-0.3354,-0.2738,-0.1936,-0.1225,-0.0766,-0.0737,0.0,0.0,0.0,0.0,0.0,0.0,-0.1105,-0.1805,-0.2944,-0.2659,-0.2983,-0.4925,-0.5418,-0.5728,-0.619,-0.7378,-0.8885,-1.0656,-1.2331,-1.3774,-1.5157,-1.6112,-1.68,-1.7141,-1.7874,-1.8935,-2.0436,-2.1245,-2.2366,-2.3692,-2.451,-2.4815,-2.4913,-2.543,-2.5742,-2.5742,-2.5742,-2.5742,-2.5742,-2.5742,-2.5742,-2.5742,-2.5742,-2.5742,-2.5742,-2.5742,-2.5323,-2.4716,0.3594,0.0,0.0,0.0,0.0,0.0,0.0,0.0,0.1253,0.1008,0.0424,0.0,0.0,0.0,-0.055,-0.1843,-0.075,0.0,0.0,0.1224,0.253,0.3833,0.2556,0.224,0.318,0.2939,0.2905,0.0,0.0,0.0,0.0,0.0,0.0,0.0,-0.0431,-0.2301,-0.4535,-0.4904,-0.5463,-0.6118,-0.6601,-0.7026,-0.7606,-1.007,-1.0963,-1.0775,-1.0666,-1.0062,-0.9083,-0.6866,-0.6834,-0.7543,-0.6454,-0.5969,-0.5823,-0.5925,-0.5036,-0.4066,-0.4498,-0.4616,-0.4629,-0.445,-0.3761,-0.3074,-0.2934,-0.2318,-0.1759,-0.1699,-0.1674,0.0,0.0,0.0,-0.0169,-0.0652,0.0,-0.0635,-0.2502,-0.2327,-0.2774,-0.4745,-0.5076,-0.5311,-0.5738,-0.6522,-0.7624,-0.9187,-1.0987,-1.2588,-1.3851,-1.5431,-1.6473,-1.6901,-1.7068,-1.7956,-1.9493,-2.0993,-2.2366,-2.3692,-2.502,-2.5742,-2.5742,-2.5742,-2.5742,-2.5742,-2.5742,-2.5742,-2.5742,-2.5742,-2.5742,-2.5742,-2.5742,-2.5742,-2.5742,-2.5742,-2.5742,-2.5538,0.4211,0.3398,0.0,0.0,0.259,0.0,0.2405,0.3732,0.4459,0.3581,0.1457,0.0,0.0,0.0,-0.0046,-0.0063,-0.0064,0.0,0.0,0.0062,0.2144,0.6763,0.4427,0.3464,0.4439,0.3542,0.311,0.3113,0.0,0.0,0.0,0.0,0.0,0.0,0.0588,-0.1413,-0.322,-0.5547,-0.6685,-0.7039,-0.9075,-1.0577,-1.1507,-0.9456,-0.8434,-0.8329,-0.9575,-0.919,-0.7923,-0.7153,-0.6926,-0.6956,-0.6909,-0.639,-0.5945,-0.6675,-0.6332,-0.5728,-0.5745,-0.5752,-0.5511,-0.4452,-0.4194,-0.388,-0.2938,-0.2829,-0.2901,-0.27,-0.2641,-0.2659,-0.2608,-0.118,-0.0582,-0.2321,-0.1152,0.0,0.0,-0.2318,-0.2706,-0.2778,-0.3813,-0.4241,-0.3503,-0.4766,-0.6417,-0.8283,-0.9808,-1.1532,-1.3477,-1.5317,-1.6279,-1.6299,-1.6854,-1.7851,-1.9157,-2.0881,-2.2366,-2.3692,-2.502,-2.5742,-2.5742,-2.5742,-2.5742,-2.5742,-2.5742,-2.5742,-2.5742,-2.5742,-2.5742,-2.5742,-2.5742,-2.5742,-2.5742,-2.5742,-2.5742,-2.5732,0.0,0.0,0.0,0.3155,0.2972,0.2789,0.2516,0.2908,0.3529,0.4334,0.4577,0.3492,0.0351,0.0,0.0,0.0,0.0,0.1346,0.4466,0.3443,0.3783,0.6277,0.5253,0.4535,0.4289,0.3921,0.3571,0.3313,0.3171,0.0,0.0,0.0,0.0,0.0,0.0,-0.0822,-0.3098,-0.4854,-0.608,-0.6949,-0.7642,-0.8192,-0.8841,-1.1247,-1.1452,-1.0774,-1.2134,-1.1745,-1.043,-0.9699,-0.9809,-0.9974,-0.8628,-0.8057,-0.7823,-0.7714,-0.678,-0.5911,-0.641,-0.6549,-0.6464,-0.6112,-0.5498,-0.4894,-0.4541,-0.3701,-0.2905,-0.2717,-0.2773,-0.2798,-0.273,-0.1883,-0.152,-0.2534,-0.2191,-0.1526,0.0,-0.0783,-0.1143,-0.1718,-0.2123,-0.2843,-0.3959,-0.4219,-0.4998,-0.6832,-0.8007,-0.9266,-1.0637,-1.3146,-1.4623,-1.4823,-1.5959,-1.6953,-1.7545,-2.0122,-2.1586,-2.209,-2.4575,-2.5742,-2.5742,-2.5742,-2.5742,-2.5742,-2.5742,-2.5742,-2.5742,-2.5742,-2.5742,-2.5742,-2.5742,-2.5742,-2.5742,-2.5742,-2.5742,-2.543,0.4823,0.4413,0.407,0.3403,0.306,0.2908,0.2951,0.2949,0.3517,0.5012,0.5574,0.5008,0.275,0.2494,0.1831,0.0154,0.0,0.2075,0.7076,0.522,0.4704,0.6549,0.5731,0.5199,0.5121,0.4555,0.4246,0.4275,0.3537,0.3388,0.0,0.0,0.0,0.0,0.0,0.0211,-0.222,-0.4423,-0.5805,-0.6549,-0.7315,-0.8289,-0.9665,-1.2502,-1.2543,-1.1361,-1.2716,-1.2619,-1.1839,-1.1382,-1.1533,-1.1626,-1.0371,-0.9981,-0.9931,-0.953,-0.843,-0.7357,-0.7893,-0.7681,-0.7248,-0.6926,-0.6339,-0.5755,-0.55,-0.4582,-0.3819,-0.3666,-0.3754,-0.3642,-0.2944,-0.2436,-0.2269,-0.2759,-0.2751,-0.2063,0.0,0.0,-0.0202,-0.0773,-0.0839,-0.164,-0.3683,-0.3875,-0.4371,-0.5486,-0.6761,-0.7933,-0.9004,-1.1984,-1.3734,-1.3928,-1.5451,-1.6359,-1.6553,-1.9465,-2.1072,-2.1197,-2.4147,-2.5586,-2.5742,-2.5742,-2.5742,-2.5742,-2.5742,-2.5742,-2.5742,-2.5742,-2.5742,-2.5742,-2.5742,-2.5742,-2.5742,-2.5742,-2.5742,-2.543,0.504,0.4778,0.4457,0.3481,0.2922,0.2878,0.3659,0.3944,0.4419,0.5475,0.4423,0.4476,0.6675,0.6929,0.5164,0.0675,0.0145,0.2372,0.7583,0.5297,0.4965,0.7636,0.6157,0.5709,0.6681,0.545,0.5121,0.58,0.4237,0.3804,0.0,0.0,0.0,0.0,0.2763,0.156,-0.0599,-0.4206,-0.5772,-0.6061,-0.7951,-1.0676,-1.3454,-1.2863,-1.151,-1.0194,-1.1556,-1.2042,-1.2042,-1.2042,-1.2042,-1.2042,-1.2047,-1.2042,-1.1945,-1.1945,-1.1072,-1.0096,-1.0096,-0.9118,-0.7928,-0.7066,-0.6816,-0.6478,-0.5623,-0.5511,-0.5545,-0.5459,-0.5484,-0.5124,-0.3445,-0.2948,-0.284,-0.3055,-0.2797,-0.196,-0.0235,0.0,0.0,0.0,-0.0086,-0.0814,-0.2465,-0.3734,-0.4451,-0.4398,-0.6024,-0.7518,-0.8732,-1.166,-1.3393,-1.3559,-1.5197,-1.6099,-1.6253,-1.9039,-2.0724,-2.1147,-2.383,-2.5273,-2.5703,-2.5703,-2.5713,-2.5742,-2.5742,-2.5742,-2.5742,-2.5742,-2.5742,-2.5742,-2.5742,-2.5742,-2.5742,-2.5742,-2.5742,-2.5732,0.508,0.4575,0.4164,0.3564,0.3707,0.3876,0.3801,0.43,0.4489,0.3985,0.3583,0.3717,0.4678,0.4814,0.4678,0.4311,0.2637,0.3176,0.6729,0.6369,0.6495,0.7719,0.7447,0.7135,0.6875,0.642,0.6057,0.58,0.4602,0.4117,0.4284,0.0,0.0,0.0,0.0,0.1835,0.012,-0.3389,-0.5526,-0.6607,-0.6615,-0.7415,-0.8765,-0.9625,-0.9984,-1.0386,-1.359,-1.4758,-1.4758,-1.4758,-1.4758,-1.4663,-1.3686,-1.3392,-1.3199,-1.2237,-1.1653,-1.1365,-1.1365,-1.0485,-0.9445,-0.9172,-0.7897,-0.6641,-0.641,-0.5959,-0.5545,-0.5459,-0.5484,-0.5413,-0.4877,-0.4157,-0.3461,-0.2918,-0.1612,-0.0538,-0.0067,0.0,0.0,0.0,-0.1194,-0.1915,-0.169,-0.3168,-0.4209,-0.4398,-0.5162,-0.6532,-0.8665,-0.9227,-1.0795,-1.3486,-1.3006,-1.3721,-1.5925,-1.7689,-1.923,-2.0392,-2.3261,-2.4814,-2.5244,-2.5244,-2.542,-2.5742,-2.5742,-2.5742,-2.5742,-2.5742,-2.5742,-2.5742,-2.5742,-2.5742,-2.5742,-2.5742,-2.5742,-2.5538,0.5414,0.5136,0.4879,0.4306,0.5356,0.6054,0.5137,0.5103,0.5151,0.511,0.4513,0.4463,0.5467,0.5642,0.5891,0.6692,0.4786,0.4622,0.7037,0.6606,0.6685,0.7862,0.7682,0.7356,0.6939,0.6844,0.6634,0.6295,0.486,0.4361,0.4707,0.0,0.0,0.0,0.0,0.2003,0.0623,-0.2493,-0.4966,-0.6718,-0.6308,-0.6993,0.0,-0.8755,-0.9719,-1.1165,-1.3301,-1.4465,-1.5045,-1.5635,-1.5832,-1.5635,-1.4949,-1.4752,-1.4561,-1.3788,-1.3204,-1.2813,-1.2813,-1.1843,-1.0681,-1.0096,-0.9059,-0.7998,-0.7375,-0.6959,-0.6637,-0.6549,-0.66,-0.6536,-0.6122,-0.5257,-0.4076,-0.2357,-0.0903,0.0,0.0,0.0,0.0,0.0,-0.1253,-0.203,-0.194,-0.3039,-0.3813,-0.3923,-0.4469,-0.5506,-0.7077,-0.8362,-0.9786,-1.1421,-1.2091,-1.2879,-1.3895,-1.5474,-1.7212,-1.9205,-2.1633,-2.3457,-2.4785,-2.4785,-2.5019,-2.5449,-2.5449,-2.5557,-2.5742,-2.5742,-2.5742,-2.5742,-2.5742,-2.5742,-2.5742,-2.5742,-2.5742,-2.5635,0.5924,0.5967,0.6012,0.548,0.7115,0.8215,0.7427,0.6814,0.6638,0.7464,0.6461,0.6127,0.7409,0.7611,0.7725,0.7879,0.6472,0.6296,0.7784,0.6443,0.6353,0.7963,0.7417,0.7075,0.7075,0.7075,0.7075,0.7075,0.5209,0.4724,0.5387,0.0,0.0,0.0,0.0,0.2016,0.0701,-0.1675,-0.405,-0.6319,-0.6503,-0.7764,-0.9456,-0.8957,-0.9831,-1.1365,-1.1556,-1.2619,-1.407,-1.5146,-1.5635,-1.5832,-1.5832,-1.5832,-1.5832,-1.5832,-1.5045,-1.4166,-1.4166,-1.3199,-1.1945,-1.0774,-1.0293,-0.9706,-0.8531,-0.8137,-0.8038,-0.8038,-0.8038,-0.7841,-0.7193,-0.6073,-0.4474,-0.193,-0.0767,-0.017,-0.024,-0.0392,-0.0416,-0.0211,-0.1089,0.0,-0.2643,-0.3154,-0.341,-0.3323,-0.3889,-0.46,-0.5335,-0.8072,-0.9421,-0.9118,-1.1677,-1.2556,-1.1724,-1.3269,-1.5413,-1.8108,-1.9724,-2.1836,-2.4336,-2.4336,-2.457,-2.498,-2.498,-2.5234,-2.5644,-2.5644,-2.5684,-2.5742,-2.5742,-2.5742,-2.5742,-2.5742,-2.5742,-2.5742,0.6099,0.5892,0.6287,0.6879,0.689,0.7772,1.0683,1.074,0.9995,0.8593,0.856,0.8309,0.7166,0.7489,0.7631,0.7265,0.6967,0.6947,0.7251,0.697,0.7166,0.8001,0.7913,0.7845,0.7845,0.7845,0.7845,0.7845,0.6047,0.5233,0.5387,0.3564,0.0,0.0,0.0,0.1488,-0.0551,-0.0769,-0.2283,-0.4592,-0.5984,-0.684,-0.7265,-0.7939,-0.8409,-0.8825,-0.9899,-1.1843,-1.3974,-1.4166,-1.4949,-1.5832,-1.5832,-1.5832,-1.5832,-1.5832,-1.5635,-1.5439,-1.5439,-1.4561,-1.3488,-1.3295,-1.1648,-0.9903,-0.9702,-0.8825,-0.8038,-0.8038,-0.8038,-0.7997,-0.7868,-0.6251,-0.4411,-0.2941,-0.1797,-0.1162,-0.1436,-0.2528,-0.2758,-0.1256,-0.2755,-0.3592,-0.2784,-0.308,-0.3327,-0.329,-0.3423,-0.4477,-0.6808,-0.6226,-0.7321,-1.0534,-1.0221,-1.0989,-1.3154,-1.3792,-1.5848,-1.919,-1.9808,-2.1387,-2.3896,-2.3896,-2.4131,-2.4531,-2.4531,-2.4775,-2.5185,-2.5185,-2.54,-2.5742,-2.5742,-2.5742,-2.5742,-2.5742,-2.5742,-2.5742,0.8712,0.7682,0.7308,0.8066,0.868,0.9846,1.2009,1.309,1.2813,1.0435,0.9899,0.9151,0.7619,0.776,0.7841,0.7624,0.7319,0.7272,0.7587,0.7312,0.7411,0.8014,0.8038,0.7858,0.7472,0.7841,0.7851,0.7461,0.6051,0.5428,0.5387,0.3564,0.2712,0.27,0.2696,0.2046,0.0962,0.1146,-0.0,-0.2087,-0.4314,-0.6103,-0.7376,-0.7811,-0.8038,-0.8038,-0.8726,-1.019,-1.2032,-1.3488,-1.4752,-1.5832,-1.5832,-1.5832,-1.5832,-1.5832,-1.5832,-1.5832,-1.5832,-1.5343,-1.4752,-1.407,-1.2909,-1.1648,-1.0288,-0.9509,-0.8825,-0.8137,-0.8038,-0.7896,-0.7431,-0.6443,-0.5352,-0.4156,-0.3044,-0.2352,-0.2447,-0.3227,-0.4015,-0.4716,-0.4685,-0.4411,-0.3709,-0.3632,-0.3563,-0.3336,-0.329,-0.4048,-0.5821,-0.5823,-0.699,-0.9579,-0.9967,-1.0902,-1.2478,-1.2877,-1.4847,-1.8338,-1.8734,-2.05,-2.3457,-2.3457,-2.3682,-2.4092,-2.4092,-2.4336,-2.4727,-2.4727,-2.499,-2.5391,-2.5391,-2.5527,-2.5742,-2.5742,-2.5742,-2.5742,1.2363,1.083,0.9846,1.0595,1.1573,1.2543,1.3504,1.481,1.4804,1.232,1.1347,1.019,0.8627,0.8432,0.8266,0.7818,0.7512,0.7397,0.7553,0.7417,0.7472,0.779,0.7953,0.7763,0.7177,0.774,0.7753,0.7166,0.6146,0.5566,0.5372,0.3731,0.2968,0.2968,0.3032,0.2805,0.2429,0.2624,0.1639,-0.0181,-0.234,-0.5129,-0.7982,-0.7955,-0.8045,-0.8045,-0.8041,-0.8821,-1.0288,-1.242,-1.407,-1.5439,-1.573,-1.5832,-1.5832,-1.5832,-1.5832,-1.5832,-1.5832,-1.5832,-1.5534,-1.4561,-1.407,-1.3392,-1.1258,-1.0386,-0.9702,-0.8627,-0.8237,-0.7821,-0.7115,-0.6854,-0.6374,-0.5142,-0.4177,-0.3437,-0.3158,-0.3478,-0.459,-0.6967,-0.5691,-0.4568,-0.443,-0.3999,-0.3609,-0.3324,-0.329,-0.3798,-0.4962,-0.5806,-0.6924,-0.835,-0.9773,-1.0788,-1.1329,-1.192,-1.4106,-1.7772,-1.8013,-1.9894,-2.3135,-2.3135,-2.333,-2.3652,-2.3652,-2.3887,-2.4287,-2.4385,-2.4619,-2.4932,-2.4932,-2.5146,-2.5469,-2.5566,-2.5596,-2.5605,1.662,1.5608,1.5216,1.6474,1.5451,1.5051,1.6896,1.6212,1.5106,1.3874,1.3567,1.2614,1.0096,0.9805,0.9092,0.7179,0.7597,0.74,0.6095,0.7231,0.7678,0.7058,0.7678,0.8007,0.7936,0.8004,0.8004,0.7936,0.7021,0.623,0.5545,0.4419,0.3894,0.3886,0.418,0.3276,0.1456,0.2329,0.1622,-0.0,-0.0301,-0.3425,-0.8016,-0.7982,-0.7969,-0.7969,-0.8045,-0.8821,-0.9998,-1.0288,-1.2037,-1.4268,-1.5439,-1.5832,-1.5832,-1.5832,-1.5832,-1.5832,-1.5832,-1.5832,-1.5737,-1.5635,-1.4752,-1.3878,-1.3584,-1.1745,-0.9998,-0.9801,-0.8825,-0.8014,-0.7929,-0.7363,-0.6614,-0.5644,-0.4874,-0.415,-0.3396,-0.3772,-0.4317,-0.4769,-0.4389,-0.4076,-0.4033,-0.3286,-0.2939,-0.327,-0.329,-0.421,-0.632,-0.5676,-0.6225,-0.8323,-0.8791,-0.9666,-1.1022,-1.1808,-1.4622,-1.9314,-1.8481,-1.9894,-2.3135,-2.3135,-2.3164,-2.3203,-2.3203,-2.3447,-2.3877,-2.4258,-2.4443,-2.4473,-2.4473,-2.4502,-2.459,-2.499,-2.5127,-2.5195,2.18,2.0052,1.8614,1.8451,1.7813,1.755,1.8213,1.7471,1.6661,1.6268,1.4829,1.3199,1.1361,1.117,1.0807,0.9939,0.9497,0.8921,0.8324,0.8083,0.7906,0.7607,0.7882,0.8038,0.8038,0.8038,0.8038,0.8038,0.66,0.5884,0.5825,0.4577,0.4307,0.4863,0.5347,0.3978,0.1261,0.1183,0.0677,0.0,0.0,-0.1308,-0.3425,-0.5029,-0.6645,-0.7972,-0.7962,-0.8343,-0.892,-0.9706,-1.1165,-1.2909,-1.4268,-1.4657,-1.4848,-1.554,-1.5832,-1.5832,-1.5832,-1.5832,-1.5832,-1.5832,-1.5439,-1.4657,-1.3108,-1.1848,-1.0681,-0.9118,-0.8333,-0.8038,-0.8038,-0.7797,-0.7329,-0.6522,-0.6139,-0.5681,-0.4925,-0.503,-0.5369,-0.5881,-0.5437,-0.523,-0.5593,-0.4412,-0.3626,-0.3698,-0.3235,-0.366,-0.5329,-0.5779,-0.7127,-0.9626,-0.9967,-1.1336,-1.3868,-1.3284,-1.4828,-1.8403,-1.8762,-2.0017,-2.2031,-2.2775,-2.3135,-2.3135,-2.3135,-2.3242,-2.332,-2.274,-2.3138,-2.3952,-2.3192,-2.3537,-2.4443,-2.4609,-2.4678,-2.4707,2.6703,2.4566,2.2615,2.1789,2.1424,2.0797,1.9269,1.8801,1.8193,1.6929,1.5431,1.3974,1.2619,1.2522,1.2097,1.1111,1.0417,0.9669,0.8857,0.8268,0.7943,0.7723,0.7923,0.8038,0.8038,0.8038,0.8038,0.8038,0.677,0.6183,0.623,0.5297,0.5189,0.5796,0.6463,0.5507,0.3207,0.1748,0.1207,0.1108,0.0302,0.0,-0.0201,-0.2108,-0.4019,-0.5837,-0.7466,-0.7965,-0.8148,-0.913,-1.0002,-1.1165,-1.3199,-1.3878,-1.4166,-1.5439,-1.5832,-1.5832,-1.5832,-1.5832,-1.5832,-1.5832,-1.5832,-1.5343,-1.3499,-1.2431,-1.1165,-0.8528,-0.8038,-0.8038,-0.8038,-0.8038,-0.778,-0.699,-0.6898,-0.6651,-0.585,-0.5739,-0.5935,-0.6471,-0.5789,-0.5549,-0.624,-0.5016,-0.4103,-0.404,-0.367,-0.3915,-0.5131,-0.5819,-0.734,-0.986,-0.9773,-1.1216,-1.4376,-1.3467,-1.4759,-1.8234,-1.9131,-2.0305,-2.1845,-2.2677,-2.3135,-2.3135,-2.3135,-2.2862,-2.2492,-2.1658,-2.1743,-2.2479,-2.2017,-2.2464,-2.3578,-2.4088,-2.4228,-2.4248,3.0929,2.9212,2.7822,2.7755,2.7059,2.4923,2.0476,2.0549,1.9505,1.5042,1.5184,1.5337,1.3974,1.3878,1.2516,0.9204,0.9554,0.8857,0.5998,0.7217,0.7712,0.6973,0.7645,0.8038,0.8038,0.8038,0.8038,0.8038,0.8018,0.7631,0.6909,0.6898,0.6817,0.6725,0.755,0.7959,0.7753,0.5122,0.3915,0.3715,0.1105,0.0,-0.0,-0.0,-0.0101,-0.0804,-0.605,-0.7982,-0.7972,-0.7972,-0.8058,-0.8722,-1.2614,-1.3878,-1.4166,-1.5439,-1.5832,-1.5832,-1.5832,-1.5832,-1.5832,-1.5832,-1.5832,-1.5825,-1.573,-1.3788,-1.1165,-0.8528,-0.8038,-0.8038,-0.8038,-0.8038,-0.7746,-0.6848,-0.6831,-0.6614,-0.5718,-0.5593,-0.5596,-0.5606,-0.468,-0.4395,-0.5356,-0.4555,-0.4033,-0.418,-0.4744,-0.5517,-0.6535,-0.5641,-0.6119,-0.8343,-0.7255,-0.8063,-1.1022,-1.1316,-1.4121,-1.9497,-1.9488,-2.0773,-2.3047,-2.3047,-2.3135,-2.3135,-2.3135,-2.2403,-2.1293,-2.1293,-2.0576,-1.9679,-2.0845,-2.1302,-2.1544,-2.3166,-2.3799,-2.3857,2.694,2.8945,2.9965,2.6298,2.6706,2.6829,2.4738,2.3291,2.1842,2.0431,1.8383,1.6936,1.6539,1.5704,1.4772,1.367,1.1758,1.0386,0.9999,0.8278,0.7404,0.7675,0.7428,0.7282,0.7282,0.7282,0.7282,0.7282,0.7177,0.7004,0.6773,0.7017,0.733,0.7624,0.7919,0.7959,0.7972,0.7054,0.6751,0.6656,0.5756,0.3224,0.0,0.0,0.0,-0.0201,-0.191,-0.4119,-0.6437,-0.7563,-0.7959,-0.8333,-1.0578,-1.1843,-1.2813,-1.4076,-1.5146,-1.5832,-1.5832,-1.5832,-1.5832,-1.5832,-1.5832,-1.5534,-1.4657,-1.2522,-1.0096,-0.8333,-0.8038,-0.8038,-0.8038,-0.8038,-0.778,-0.6987,-0.7322,-0.7407,-0.6614,-0.6812,-0.7129,-0.7129,-0.7148,-0.7103,-0.704,-0.6631,-0.598,-0.5071,-0.4922,-0.5408,-0.665,-0.7931,-0.9551,-1.1623,-1.149,-1.2331,-1.4275,-1.3387,-1.4724,-1.8326,-1.9139,-2.0764,-2.3135,-2.3135,-2.3135,-2.3135,-2.3135,-2.2403,-2.1203,-2.0395,-1.9852,-1.9497,-1.9039,-1.9852,-2.14,-2.1903,-2.2602,-2.3359,2.8951,3.0991,3.1972,2.8274,2.8535,2.8521,2.6252,2.4957,2.3676,2.204,2.0132,1.8824,1.8411,1.7217,1.6096,1.514,1.3138,1.1743,1.122,0.927,0.8013,0.8018,0.7594,0.7346,0.7346,0.7346,0.7346,0.7346,0.7251,0.7204,0.7204,0.7464,0.7681,0.8038,0.8038,0.8048,0.7959,0.7959,0.7965,0.7972,0.8002,0.5345,0.1407,0.0403,0.0,0.0,0.0,-0.211,-0.5222,-0.7263,-0.7962,-0.8137,-0.9019,-1.0096,-1.1556,-1.3392,-1.4752,-1.5832,-1.5832,-1.5832,-1.5832,-1.5832,-1.5832,-1.5343,-1.359,-1.1843,-1.019,-0.8333,-0.8038,-0.8038,-0.8038,-0.8038,-0.7983,-0.8055,-0.802,-0.7973,-0.8044,-0.7876,-0.7905,-0.809,-0.8351,-0.8422,-0.8164,-0.8018,-0.7582,-0.6745,-0.6109,-0.6743,-0.8908,-0.9248,-1.0264,-1.2325,-1.2659,-1.3514,-1.4997,-1.4102,-1.497,-1.7692,-1.9405,-2.1212,-2.3135,-2.3135,-2.3135,-2.3135,-2.3135,-2.2129,-2.0576,-1.9852,-1.894,-1.8126,-1.777,-1.8864,-2.0666,-2.1114,-2.2031,-2.3135,3.4861,3.4303,3.3531,3.2471,3.1621,2.9775,2.5864,2.5826,2.4825,2.0767,2.0763,2.073,1.9753,1.8596,1.6821,1.4351,1.3987,1.2816,1.0382,1.0032,0.9347,0.8233,0.7991,0.7963,0.7963,0.7963,0.7987,0.8038,0.8038,0.8038,0.8038,0.8038,0.8038,0.8038,0.8038,0.8038,0.8038,0.8038,0.8038,0.8041,0.7975,0.635,0.3715,0.1008,0.0,0.0,0.0,-0.1611,-0.4117,-0.7065,-0.7969,-0.8041,-0.8038,-0.892,-1.0485,-1.2909,-1.4561,-1.5635,-1.5635,-1.573,-1.5832,-1.5832,-1.573,-1.5051,-1.2431,-1.1848,-1.1068,-0.8531,-0.8038,-0.8038,-0.8038,-0.8038,-0.8432,-0.9706,-0.8924,-0.851,-0.9718,-0.8792,-0.8182,-0.8603,-0.8719,-0.8759,-0.8666,-0.8817,-0.898,-0.8906,-0.8161,-0.9244,-1.2619,-0.9768,-0.9087,-1.1269,-1.159,-1.2398,-1.3698,-1.3712,-1.5074,-1.7692,-2.0124,-2.1845,-2.296,-2.3047,-2.3135,-2.3135,-2.3135,-2.1774,-1.9497,-1.9497,-1.8033,-1.592,-1.7131,-1.8319,-1.9497,-2.0747,-2.1943,-2.296,2.8442,3.0654,3.2083,2.9309,2.96,2.977,2.8825,2.7375,2.6051,2.5081,2.2761,2.1176,2.0926,1.9761,1.8488,1.6922,1.4504,1.301,1.2945,1.0596,0.9249,0.9477,0.8044,0.719,0.719,0.719,0.7468,0.8038,0.8038,0.8038,0.8038,0.8038,0.8038,0.8038,0.8038,0.8038,0.8038,0.8038,0.8038,0.8041,0.7975,0.635,0.3715,0.1008,0.0,0.0,0.0,-0.0403,-0.1708,-0.6453,-0.7979,-0.7962,-0.8045,-0.892,-1.0096,-1.0774,-1.2517,-1.4364,-1.4364,-1.5045,-1.5832,-1.5832,-1.5045,-1.3878,-1.2237,-1.117,-0.9998,-0.8333,-0.8038,-0.8038,-0.8038,-0.8038,-0.8137,-0.8432,-0.9019,-0.9272,-0.8414,-0.9767,-1.0428,-0.9406,-1.1147,-1.1609,-0.9595,-1.141,-1.1515,-0.8866,-0.9707,-1.1015,-1.2449,-1.2123,-1.2782,-1.4629,-1.475,-1.4957,-1.5311,-1.5311,-1.6125,-1.7692,-2.0124,-2.1471,-2.1756,-2.2677,-2.3135,-2.3135,-2.3135,-2.1774,-1.9497,-1.9497,-1.8033,-1.5832,-1.6109,-1.703,-1.8226,-1.9497,-2.0666,-2.1845,2.991,3.1461,3.243,2.9781,2.9948,3.0279,2.9869,2.8371,2.7046,2.6554,2.4416,2.2707,2.2208,2.1033,2.0034,1.9405,1.6669,1.4764,1.3927,1.1646,1.0482,1.0854,0.8679,0.7982,0.9154,0.7978,0.7634,0.8038,0.8038,0.8333,0.892,0.8333,0.8333,0.8924,0.8233,0.8038,0.8038,0.8038,0.8038,0.8041,0.7972,0.6345,0.3715,0.1006,0.0,0.0,0.0,0.0,-0.0603,-0.4728,-0.6956,-0.7969,-0.8045,-0.8531,-0.9217,-0.9801,-1.1843,-1.3878,-1.3878,-1.4854,-1.5832,-1.5832,-1.5242,-1.4268,-1.2334,-1.1361,-1.0288,-0.8432,-0.8038,-0.8038,-0.8038,-0.8038,-0.8432,-0.9604,-0.9354,-0.9091,-0.9521,-1.0242,-1.0642,-1.0534,-1.2336,-1.3046,-1.1787,-1.2989,-1.3051,-1.1175,-1.1231,-1.2171,-1.3911,-1.3596,-1.4155,-1.5778,-1.5832,-1.5832,-1.5832,-1.5832,-1.648,-1.7692,-1.9588,-2.0755,-2.1382,-2.258,-2.3135,-2.3135,-2.3135,-2.1774,-1.9497,-1.9497,-1.8033,-1.5832,-1.5832,-1.6574,-1.7777,-1.8411,-1.9405,-2.0666,3.4177,3.3876,3.331,3.1669,3.1315,3.0895,3.0139,2.89,2.7671,2.6637,2.5389,2.4211,2.3222,2.2217,2.148,2.1293,1.9405,1.7282,1.4912,1.3465,1.2603,1.2221,1.0079,0.9694,1.1556,0.9604,0.8432,0.8038,0.8432,0.892,0.9706,0.8726,0.8825,0.9608,0.8528,0.8038,0.8038,0.8038,0.8038,0.8041,0.7965,0.6645,0.4219,0.1206,0.0,0.0,0.0,0.0,-0.0402,-0.3112,-0.5734,-0.7972,-0.8048,-0.8038,-0.8233,-0.9608,-1.1745,-1.368,-1.3878,-1.4854,-1.573,-1.5534,-1.5343,-1.4561,-1.2139,-1.1458,-1.0681,-0.8432,-0.8038,-0.8038,-0.8038,-0.8038,-0.8682,-1.0957,-0.9477,-0.8884,-1.1033,-1.0657,-1.057,-1.1829,-1.3156,-1.3928,-1.3868,-1.407,-1.407,-1.3878,-1.2957,-1.3354,-1.5664,-1.4649,-1.4543,-1.5792,-1.5832,-1.5832,-1.5832,-1.5832,-1.6386,-1.7412,-1.8864,-2.0034,-2.1114,-2.2492,-2.3135,-2.3047,-2.2872,-2.1587,-1.9497,-1.9314,-1.7848,-1.5832,-1.5832,-1.648,-1.7412,-1.7598,-1.8503,-1.9679,3.4177,3.338,3.2749,3.2464,3.1742,3.118,3.097,2.9245,2.7577,2.6625,2.4638,2.3299,2.3135,2.295,2.2403,2.1382,2.0935,2.0107,1.874,1.7372,1.5658,1.3605,1.3121,1.2083,1.0288,1.0974,1.019,0.8038,1.019,1.0288,0.8333,0.9217,0.9217,0.8333,0.8137,0.8038,0.8038,0.8038,0.8038,0.8041,0.7965,0.7772,0.6862,0.191,0.0,0.0,0.0,0.0,-0.0403,-0.3115,-0.5737,-0.7982,-0.8048,-0.8038,-0.8233,-0.9608,-1.1068,-1.2431,-1.3584,-1.4854,-1.5534,-1.4459,-1.3301,-1.2139,-1.0583,-0.941,-0.8528,-0.8038,-0.8038,-0.8038,-0.8038,-0.8038,-0.8118,-0.842,-0.8948,-0.9543,-0.9812,-1.1637,-1.3059,-1.3281,-1.4553,-1.5003,-1.3957,-1.4848,-1.5051,-1.3974,-1.4653,-1.5398,-1.5818,-1.5611,-1.5591,-1.5818,-1.5832,-1.5832,-1.5832,-1.5832,-1.592,-1.6103,-1.8395,-1.9579,-1.9852,-2.2041,-2.3135,-2.3047,-2.2031,-2.0755,-1.9405,-1.8411,-1.7124,-1.5832,-1.5832,-1.592,-1.6204,-1.7318,-1.8503,-1.9497,3.4177,3.3241,3.2464,3.196,3.1044,3.0419,3.0419,2.8603,2.6989,2.6554,2.4563,2.3135,2.3135,2.3135,2.2862,2.2306,2.1078,2.0048,1.9513,1.8179,1.6986,1.592,1.5188,1.3945,1.2088,1.193,1.0974,0.9118,1.0974,1.0974,0.9118,0.9706,0.9706,0.9019,0.8333,0.8038,0.8038,0.8038,0.8038,0.8041,0.7952,0.7969,0.7578,0.3618,0.1208,0.0,0.0,0.0,-0.0404,-0.3115,-0.5739,-0.7982,-0.8048,-0.8038,-0.8233,-0.9608,-1.1458,-1.3301,-1.4561,-1.4854,-1.4657,-1.407,-1.2909,-1.156,-1.0288,-0.9509,-0.8821,-0.8137,-0.8038,-0.8038,-0.8038,-0.8627,-0.9275,-0.9881,-1.041,-1.1002,-1.1615,-1.2803,-1.3559,-1.3559,-1.4937,-1.5534,-1.4949,-1.5439,-1.5534,-1.4949,-1.5439,-1.5832,-1.5832,-1.5832,-1.5832,-1.5832,-1.5832,-1.5832,-1.5832,-1.5832,-1.5832,-1.5825,-1.7669,-1.8864,-1.9579,-2.1311,-2.2492,-2.3047,-2.1845,-2.0666,-1.9405,-1.8234,-1.6943,-1.5832,-1.5832,-1.5832,-1.5825,-1.648,-1.749,-1.8503,3.4177,3.3449,3.2522,3.1349,3.0581,2.9947,2.9406,2.7659,2.6356,2.613,2.4392,2.3135,2.3135,2.3135,2.3135,2.3135,2.1337,1.9923,1.8993,1.8347,1.745,1.6404,1.5289,1.4325,1.3419,1.2694,1.1556,0.9998,1.1556,1.1361,0.9509,1.0194,1.0096,0.9509,0.8432,0.8038,0.8038,0.8038,0.8038,0.8038,0.8045,0.7965,0.7785,0.5741,0.2919,0.0,0.0,-0.0808,-0.2119,-0.3518,-0.5737,-0.7979,-0.8048,-0.8038,-0.8333,-0.9998,-1.2037,-1.407,-1.5051,-1.4657,-1.3776,-1.3199,-1.2231,-1.1165,-0.9801,-0.9509,-0.9316,-0.8627,-0.8432,-0.8528,-0.8821,-0.9702,-1.0798,-1.1696,-1.1729,-1.2129,-1.3395,-1.3559,-1.3768,-1.4108,-1.5144,-1.5832,-1.5832,-1.5832,-1.5832,-1.5832,-1.5832,-1.5832,-1.5832,-1.5832,-1.5832,-1.5832,-1.5832,-1.5832,-1.5832,-1.5832,-1.5832,-1.5825,-1.7404,-1.8596,-1.9588,-2.1033,-2.2217,-2.3047,-2.1489,-2.0395,-1.9405,-1.7863,-1.6669,-1.5832,-1.5832,-1.6015,-1.6204,-1.592,-1.6756,-1.8048,3.4177,3.3945,3.3268,3.1376,3.0935,3.0237,2.8325,2.7013,2.5892,2.502,2.3887,2.3135,2.3135,2.3135,2.3135,2.3135,2.295,2.1346,1.7888,1.8621,1.7198,1.2416,1.219,1.2129,1.2037,1.3199,1.2517,0.9998,1.2517,1.1838,0.8237,1.0583,1.0485,0.8137,0.8038,0.8038,0.8038,0.8038,0.8038,0.8041,0.7962,0.7979,0.7992,0.7808,0.4547,0.0,0.0,-0.3232,-0.7092,-0.4728,-0.5734,-0.7969,-0.8045,-0.8038,-0.8528,-1.0974,-1.2813,-1.3872,-1.3974,-1.3974,-1.3295,-1.0872,-1.0194,-0.9801,-0.8432,-0.8137,-0.8432,-0.9608,-0.9903,-1.0194,-1.1361,-1.1653,-1.1706,-1.1696,-1.1683,-1.2129,-1.3395,-1.3559,-1.4148,-1.5504,-1.5765,-1.5832,-1.5832,-1.5832,-1.5832,-1.5832,-1.5832,-1.5832,-1.5832,-1.5832,-1.5832,-1.5832,-1.5832,-1.5832,-1.5832,-1.5832,-1.5832,-1.5832,-1.8211,-1.9397,-1.9579,-2.1952,-2.3047,-2.296,-2.0674,-1.9579,-1.9314,-1.6929,-1.592,-1.5832,-1.5832,-1.648,-1.7412,-1.6204,-1.7296,-1.9039,3.4986,3.4394,3.3338,3.1362,3.0475,2.9349,2.7359,2.6052,2.523,2.4861,2.38,2.3135,2.3135,2.1719,2.0775,2.0775,1.7926,1.5498,1.4016,1.298,1.2879,1.4087,1.2715,1.2271,1.3047,1.2017,1.097,0.9998,1.1745,1.1063,0.8038,0.9899,0.9702,0.8038,0.8038,0.8038,0.8038,0.8038,0.8038,0.8041,0.7965,0.6954,0.5739,0.7397,0.4649,0.0,0.0,-0.1313,-0.3432,-0.5746,-0.7163,-0.7979,-0.8048,-0.8038,-0.8531,-1.1165,-1.2237,-1.2619,-1.2619,-1.2037,-1.1258,-1.0293,-0.9998,-0.9899,-0.9312,-0.9899,-1.0583,-1.1072,-1.117,-1.1361,-1.1848,-1.2624,-1.3143,-1.3043,-1.3701,-1.4443,-1.4907,-1.4997,-1.5204,-1.5765,-1.5832,-1.5832,-1.5832,-1.5832,-1.5832,-1.5832,-1.5832,-1.5832,-1.5832,-1.5832,-1.5832,-1.5832,-1.5832,-1.5832,-1.5832,-1.5832,-1.5832,-1.5825,-1.7584,-1.8772,-1.9579,-2.1212,-2.2394,-2.296,-2.0584,-1.9497,-1.9314,-1.6835,-1.6292,-1.6943,-1.6943,-1.777,-1.8772,-1.8303,-1.8672,-1.9222,3.5504,3.4432,3.2835,3.0842,2.9351,2.777,2.5703,2.4798,2.4296,2.4296,2.2882,2.2189,2.3047,2.0193,1.8506,1.9356,1.5498,1.2688,1.1839,0.9379,0.9571,1.3059,1.1945,1.1681,1.2555,1.0854,0.9998,0.9998,1.0877,1.0194,0.8038,0.941,0.9316,0.8038,0.8038,0.8038,0.8038,0.8038,0.8041,0.7952,0.7972,0.6856,0.524,0.5457,0.3232,0.0,0.0,-0.0505,-0.1815,-0.5543,-0.7269,-0.7979,-0.8048,-0.8333,-0.9019,-1.1268,-1.1653,-1.1268,-1.1268,-1.0386,-0.9509,-0.9903,-0.9998,-1.0096,-1.0489,-1.1268,-1.2042,-1.2431,-1.2528,-1.2624,-1.3011,-1.3884,-1.4459,-1.4459,-1.5242,-1.5832,-1.5832,-1.5832,-1.5832,-1.5832,-1.5832,-1.5832,-1.5832,-1.5832,-1.5832,-1.5832,-1.5832,-1.5832,-1.5832,-1.5832,-1.5832,-1.5832,-1.5832,-1.5832,-1.5832,-1.5832,-1.6015,-1.6386,-1.7677,-1.8864,-2.0124,-2.1302,-2.212,-2.2403,-2.0404,-1.9314,-1.8772,-1.7124,-1.6943,-1.7777,-1.8141,-1.9047,-2.0034,-1.967,-1.9761,-1.9852,3.5504,3.383,3.1734,2.9668,2.7537,2.5467,2.3454,2.3135,2.3135,2.3135,2.0953,2.03,2.2765,1.8581,1.6615,1.9076,1.6992,1.4465,1.1935,0.9379,0.8038,0.8038,0.9312,0.9998,0.9998,0.9998,0.9998,0.9998,0.9998,0.9312,0.8038,0.9312,0.9312,0.8038,0.8038,0.8038,0.8038,0.8038,0.7952,0.7975,0.7985,0.8006,0.7406,0.2019,0.0,-0.0,-0.0,-0.1816,-0.4031,-0.4019,-0.5834,-0.7969,-0.8045,-0.892,-1.0293,-1.1556,-1.0974,-0.9998,-0.9998,-0.9019,-0.8333,-0.9706,-0.9998,-1.0391,-1.1653,-1.1945,-1.2334,-1.368,-1.3878,-1.4262,-1.5534,-1.5832,-1.5832,-1.5832,-1.5832,-1.5832,-1.5832,-1.5832,-1.5832,-1.5832,-1.5832,-1.5832,-1.5832,-1.5832,-1.5832,-1.5832,-1.5832,-1.5832,-1.5832,-1.5832,-1.5832,-1.5832,-1.5832,-1.5832,-1.5825,-1.5825,-1.648,-1.7684,-1.8948,-2.0124,-2.1382,-2.258,-2.2403,-2.1203,-2.0034,-1.8864,-1.7692,-1.7692,-1.7692,-1.787,-1.9039,-2.0215,-2.1203,-1.9943,-2.0305,-2.0935,3.3596,3.2821,3.1275,2.7763,2.6621,2.5467,2.3454,2.3135,2.3135,2.3135,2.0953,1.9644,2.039,1.5964,1.325,1.4004,1.1748,0.9951,0.919,0.8421,0.8038,0.8038,0.8432,0.8627,0.8627,0.8627,0.8627,0.8627,0.8627,0.8432,0.8038,0.8432,0.8432,0.8038,0.8038,0.8048,0.7962,0.7962,0.7972,0.7985,0.8006,0.8019,0.7406,0.2019,0.0,-0.0505,-0.4244,-0.6176,-0.6782,-0.6756,-0.7359,-0.7969,-0.8045,-0.892,-1.0096,-1.0485,-1.0293,-1.0194,-1.1068,-1.0386,-0.9509,-0.9899,-1.0681,-1.1653,-1.3006,-1.398,-1.4758,-1.5146,-1.5242,-1.5343,-1.573,-1.5832,-1.5832,-1.5832,-1.5832,-1.5832,-1.5832,-1.5832,-1.5832,-1.5832,-1.5832,-1.5832,-1.5832,-1.5832,-1.5832,-1.5832,-1.5832,-1.5832,-1.5832,-1.5832,-1.5832,-1.5832,-1.5832,-1.6204,-1.7131,-1.7131,-1.7318,-1.7692,-1.9761,-2.0935,-2.1382,-2.258,-2.2403,-2.1203,-2.0034,-1.8864,-1.7692,-1.7692,-1.8234,-1.9039,-2.0305,-2.1489,-2.2492,-2.2138,-2.1221,-1.9943,3.1433,3.0503,2.9137,2.6621,2.4692,2.311,2.1859,2.0757,2.0086,2.0086,1.7934,1.6814,1.7751,1.3345,1.0706,1.1748,0.9473,0.8038,0.8038,0.8038,0.8038,0.8038,0.8038,0.8038,0.8038,0.8038,0.8038,0.8038,0.8038,0.8038,0.8038,0.8038,0.8038,0.8038,0.8038,0.8048,0.7959,0.7969,0.7363,0.6553,0.7601,0.669,0.4448,0.1212,0.0,-0.0707,-0.6075,-0.8026,-0.8019,-0.7985,-0.7965,-0.8055,-0.8634,-0.9019,-0.9312,-0.9801,-0.9608,-0.9509,-1.0779,-1.0583,-1.0293,-1.1258,-1.2134,-1.3006,-1.4364,-1.5242,-1.5832,-1.5832,-1.5832,-1.5832,-1.5832,-1.5832,-1.5832,-1.5832,-1.5832,-1.5832,-1.5832,-1.5832,-1.5832,-1.5832,-1.5832,-1.5832,-1.5832,-1.5832,-1.5832,-1.5832,-1.5832,-1.5832,-1.5832,-1.5832,-1.5832,-1.5832,-1.5832,-1.6386,-1.7692,-1.8141,-1.868,-1.9131,-2.0576,-2.1569,-2.2031,-2.2775,-2.2403,-2.1293,-2.0486,-1.9497,-1.8411,-1.8956,-1.9579,-2.0305,-2.1578,-2.2492,-2.3135,-2.3135,-2.2138,-2.0863,2.8768,2.7355,2.598,2.5348,2.2013,1.9356,1.9076,1.7084,1.5578,1.5578,1.3339,1.2682,1.5023,1.0895,0.8901,1.1274,0.9383,0.8038,0.8038,0.8038,0.8038,0.8038,0.8038,0.8038,0.8038,0.8038,0.8038,0.8038,0.8038,0.8038,0.8038,0.8038,0.8041,0.8041,0.8041,0.8045,0.8048,0.7969,0.6345,0.3819,0.6271,0.4041,-0.0707,-0.0707,-0.0606,-0.1009,-0.6173,-0.8019,-0.8016,-0.7982,-0.7955,-0.8237,-0.941,-0.9019,-0.8233,-0.9608,-0.9118,-0.8528,-0.9998,-1.0386,-1.097,-1.3488,-1.407,-1.4364,-1.5534,-1.5832,-1.5832,-1.5832,-1.5832,-1.5832,-1.5832,-1.5832,-1.5832,-1.5832,-1.5832,-1.5832,-1.5832,-1.5832,-1.5832,-1.5832,-1.5832,-1.5832,-1.5832,-1.5832,-1.5832,-1.5832,-1.5832,-1.5832,-1.5832,-1.5832,-1.5832,-1.5832,-1.592,-1.6574,-1.787,-1.9039,-2.0215,-2.1293,-2.1382,-2.2031,-2.3135,-2.3135,-2.2403,-2.1293,-2.1293,-2.0666,-1.9579,-2.0755,-2.1293,-2.1391,-2.2589,-2.3135,-2.3135,-2.3135,-2.3047,-2.2775,2.4673,2.5207,2.4451,1.8873,1.8723,1.8696,1.6707,1.5958,1.5578,1.5578,1.3339,1.2026,1.2592,0.9857,0.823,0.8806,0.8326,0.8038,0.8038,0.8038,0.8038,0.8038,0.8038,0.8038,0.8038,0.8038,0.8038,0.8038,0.8038,0.8038,0.8038,0.8038,0.8048,0.7965,0.7965,0.7979,0.8006,0.8012,0.5253,0.0908,0.1514,-0.1513,-0.6279,-0.6279,-0.4945,-0.3518,-0.6856,-0.7985,-0.7979,-0.7955,-0.8041,-0.8038,-0.8333,-0.8233,-0.8233,-0.9608,-0.9801,-1.0096,-1.2425,-1.3006,-1.3392,-1.5045,-1.5439,-1.5439,-1.573,-1.5832,-1.5832,-1.5832,-1.5832,-1.5832,-1.5832,-1.5832,-1.5832,-1.5832,-1.5832,-1.5832,-1.5832,-1.5832,-1.5832,-1.5832,-1.5832,-1.5832,-1.5832,-1.5832,-1.5832,-1.5832,-1.5832,-1.5832,-1.5832,-1.5832,-1.5832,-1.5832,-1.6756,-1.7863,-1.9131,-2.0305,-2.1025,-2.1293,-2.2217,-2.2862,-2.3135,-2.3135,-2.2403,-2.1293,-2.1293,-2.0666,-1.9588,-2.0773,-2.1311,-2.1391,-2.2589,-2.3135,-2.3135,-2.3135,-2.2492,-2.148,2.1621,2.1581,2.0704,1.6394,1.5685,1.5311,1.3998,1.2794,1.1956,1.1956,1.083,0.9976,0.9972,0.8829,0.7962,0.7962,0.7962,0.7962,0.7955,0.7955,0.7952,0.8038,0.8048,0.7955,0.7955,0.7962,0.7955,0.8038,0.8048,0.7955,0.7955,0.7962,0.7969,0.7979,0.6648,0.6044,0.616,0.75,0.6382,0.3636,0.101,-0.3232,-0.8026,-0.8026,-0.7083,-0.6042,-0.7463,-0.7965,-0.7955,-0.8041,-0.8038,-0.8038,-0.8038,-0.8432,-0.9118,-0.9801,-1.0391,-1.1361,-1.3392,-1.3878,-1.4166,-1.5439,-1.5832,-1.5832,-1.5832,-1.5832,-1.5832,-1.5832,-1.5832,-1.5832,-1.5832,-1.5832,-1.5832,-1.5832,-1.5832,-1.5832,-1.5832,-1.5832,-1.5832,-1.5832,-1.5832,-1.5832,-1.5832,-1.5832,-1.5832,-1.5832,-1.5832,-1.5832,-1.5832,-1.5832,-1.6109,-1.6669,-1.7318,-1.8596,-2.0305,-2.1025,-2.1569,-2.2208,-2.2775,-2.3135,-2.3135,-2.3135,-2.2765,-2.2129,-2.2129,-2.1765,-2.123,-2.1872,-2.2138,-2.2217,-2.2862,-2.3135,-2.3135,-2.3135,-2.2677,-2.2031,1.8514,1.7589,1.6557,1.4659,1.3082,1.1864,1.1288,0.9312,0.7872,0.7359,0.7266,0.7269,0.7359,0.7266,0.7272,0.7272,0.7272,0.7269,0.7359,0.7769,0.7969,0.8048,0.7965,0.7772,0.7359,0.7266,0.7566,0.8048,0.7965,0.7769,0.7359,0.7266,0.7578,0.7892,0.5641,0.4221,0.3416,0.474,0.5253,0.4947,0.0907,-0.3633,-0.8016,-0.8016,-0.8002,-0.7979,-0.7972,-0.7955,-0.8038,-0.8038,-0.8038,-0.8038,-0.8233,-0.9118,-1.0096,-1.0583,-1.1458,-1.2528,-1.3878,-1.4262,-1.4459,-1.5534,-1.5832,-1.5832,-1.5832,-1.5832,-1.5832,-1.5832,-1.5832,-1.5832,-1.5832,-1.5832,-1.5832,-1.5832,-1.5832,-1.5832,-1.5832,-1.5832,-1.5832,-1.5832,-1.5832,-1.5832,-1.5832,-1.5832,-1.5832,-1.5832,-1.5832,-1.592,-1.6109,-1.6103,-1.6662,-1.7956,-1.8234,-1.9314,-2.1293,-2.148,-2.212,-2.3135,-2.3135,-2.3135,-2.3135,-2.3135,-2.3135,-2.3135,-2.3135,-2.3135,-2.3135,-2.3135,-2.3135,-2.3135,-2.3135,-2.3135,-2.3135,-2.3135,-2.3135,-2.3135,1.372,1.4465,1.4389,0.9788,1.1179,1.1965,0.8954,0.8179,0.7166,0.4824,0.452,0.4522,0.452,0.452,0.4522,0.4522,0.4522,0.4522,0.452,0.6756,0.7985,0.7982,0.7985,0.6959,0.462,0.4522,0.5634,0.7982,0.7985,0.6856,0.452,0.4522,0.5746,0.8019,0.7607,0.4851,0.0303,-0.4036,-0.5864,-0.566,-0.4124,-0.5331,-0.7979,-0.7979,-0.7965,-0.8045,-0.8045,-0.8041,-0.8038,-0.8038,-0.8038,-0.8237,-0.941,-0.9903,-1.0485,-1.2716,-1.3488,-1.3878,-1.5146,-1.5534,-1.554,-1.573,-1.5832,-1.5832,-1.5832,-1.5832,-1.5832,-1.5832,-1.5832,-1.5832,-1.5832,-1.5832,-1.5832,-1.5832,-1.5832,-1.5832,-1.5832,-1.5832,-1.5832,-1.5832,-1.5832,-1.5832,-1.5832,-1.5832,-1.5832,-1.5832,-1.5832,-1.6292,-1.7412,-1.7412,-1.7956,-1.9222,-2.0305,-2.0935,-2.1293,-2.2306,-2.295,-2.3135,-2.3135,-2.3135,-2.3135,-2.3135,-2.3135,-2.3135,-2.3135,-2.3135,-2.3135,-2.3135,-2.3135,-2.3135,-2.3135,-2.3135,-2.3135,-2.3135,-2.3135,-2.3135,1.3058,1.2689,1.1828,0.8567,0.8024,0.7496,0.6032,0.7074,0.7594,0.6364,0.3627,0.1811,0.1808,0.4431,0.5041,0.2014,0.1812,0.1811,0.1808,0.2914,0.4225,0.5737,0.7178,0.7491,0.6261,0.4742,0.4543,0.5766,0.7293,0.739,0.616,0.3122,0.242,0.3536,0.3536,0.0504,-0.4649,-0.6997,-0.8019,-0.7902,-0.6759,-0.6956,-0.8072,-0.9069,-0.8855,-0.8038,-0.8038,-0.8531,-0.9118,-0.9118,-0.9608,-1.0288,-1.0877,-1.1556,-1.242,-1.3584,-1.4364,-1.5045,-1.5635,-1.5832,-1.5832,-1.5832,-1.5832,-1.5832,-1.5832,-1.5832,-1.5832,-1.5832,-1.5832,-1.5832,-1.5832,-1.5832,-1.5832,-1.5832,-1.5832,-1.5832,-1.5832,-1.5832,-1.6015,-1.6763,-1.685,-1.685,-1.685,-1.685,-1.6574,-1.5825,-1.5832,-1.6386,-1.7598,-1.7692,-1.8596,-2.0486,-2.1025,-2.1658,-2.2306,-2.2862,-2.3135,-2.3135,-2.3135,-2.3135,-2.3135,-2.3135,-2.3135,-2.3135,-2.3135,-2.3135,-2.3135,-2.3135,-2.3135,-2.3135,-2.3135,-2.3135,-2.3135,-2.3135,-2.3135,-2.3135]}]]